<?xml version="1.0" encoding="UTF-8" standalone="no" ?>
<gpx xmlns="http://www.topografix.com/GPX/1/1" xmlns:xsi="http://www.w3.org/2001/XMLSchema-instance" xsi:schemaLocation="http://www.topografix.com/GPX/1/1 http://www.topografix.com/GPX/1/1/gpx.xsd" version="1.1" creator="VisuGPX - https://www.visugpx.com">
  <metadata>
    <name>Oisans  Trièves - Etape 1 à Etape 7  De Bourg d'Oisans Bourg d'Oisans</name>
    <desc><![CDATA[Fusion des 7 étapes de TOP cyclo Trièves ]]></desc>
  </metadata>
  <wpt lat="45.05506" lon="6.02986">
    <ele>725</ele>
    <name><![CDATA[TO - Bourg d'Oisans / La Mure]]></name>
  </wpt>
  <wpt lat="44.90652" lon="5.78493">
    <ele>884</ele>
    <name><![CDATA[TO - La Mure / St Etienne]]></name>
  </wpt>
  <wpt lat="44.69428" lon="5.94024">
    <ele>1283</ele>
    <name><![CDATA[TO - St Etienne / Mens]]></name>
  </wpt>
  <wpt lat="44.8169" lon="5.75047">
    <ele>778</ele>
    <name><![CDATA[TO - Mens / Gresse]]></name>
  </wpt>
  <wpt lat="44.90227" lon="5.56743">
    <ele>1198</ele>
    <name><![CDATA[TO - Mens / Chatillon]]></name>
  </wpt>
  <wpt lat="44.69447" lon="5.48558">
    <ele>576</ele>
    <name><![CDATA[TO - Chatillon / Mens]]></name>
  </wpt>
  <wpt lat="44.81688" lon="5.75041">
    <ele>777</ele>
    <name><![CDATA[TO - Mens / Bourg d'Ois]]></name>
  </wpt>
  <trk>
    <name><![CDATA[20180318114343-lkuZh]]></name>
    <trkseg>
      <trkpt lat="44.90652" lon="5.78493">
        <ele>882.7</ele>
        <time>2017-12-15T18:46:17Z</time>
      </trkpt>
      <trkpt lat="44.90666" lon="5.78486">
        <ele>883.5</ele>
        <time>2017-12-15T18:46:32Z</time>
      </trkpt>
      <trkpt lat="44.9067" lon="5.78517">
        <ele>882.6</ele>
        <time>2017-12-15T18:46:34Z</time>
      </trkpt>
      <trkpt lat="44.90681" lon="5.78564">
        <ele>880.9</ele>
        <time>2017-12-15T18:46:49Z</time>
      </trkpt>
      <trkpt lat="44.90689" lon="5.78609">
        <ele>879.5</ele>
        <time>2017-12-15T18:46:56Z</time>
      </trkpt>
      <trkpt lat="44.90689" lon="5.78625">
        <ele>878.5</ele>
        <time>2017-12-15T18:47:16Z</time>
      </trkpt>
      <trkpt lat="44.90686" lon="5.78655">
        <ele>876.8</ele>
        <time>2017-12-15T18:47:26Z</time>
      </trkpt>
      <trkpt lat="44.90681" lon="5.7868">
        <ele>875.6</ele>
        <time>2017-12-15T18:47:37Z</time>
      </trkpt>
      <trkpt lat="44.90667" lon="5.78729">
        <ele>873</ele>
        <time>2017-12-15T18:47:48Z</time>
      </trkpt>
      <trkpt lat="44.90654" lon="5.78761">
        <ele>872.3</ele>
        <time>2017-12-15T18:48:02Z</time>
      </trkpt>
      <trkpt lat="44.90642" lon="5.78783">
        <ele>871.8</ele>
        <time>2017-12-15T18:48:05Z</time>
      </trkpt>
      <trkpt lat="44.90631" lon="5.78783">
        <ele>871.6</ele>
        <time>2017-12-15T18:48:21Z</time>
      </trkpt>
      <trkpt lat="44.90611" lon="5.78774">
        <ele>871</ele>
        <time>2017-12-15T18:48:32Z</time>
      </trkpt>
      <trkpt lat="44.90564" lon="5.78748">
        <ele>870.3</ele>
        <time>2017-12-15T18:48:41Z</time>
      </trkpt>
      <trkpt lat="44.90559" lon="5.78748">
        <ele>870.1</ele>
        <time>2017-12-15T18:49:00Z</time>
      </trkpt>
      <trkpt lat="44.90555" lon="5.7875">
        <ele>870</ele>
        <time>2017-12-15T18:49:14Z</time>
      </trkpt>
      <trkpt lat="44.90552" lon="5.78759">
        <ele>869.5</ele>
        <time>2017-12-15T18:49:31Z</time>
      </trkpt>
      <trkpt lat="44.9054" lon="5.79109">
        <ele>855.6</ele>
        <time>2017-12-15T18:49:33Z</time>
      </trkpt>
      <trkpt lat="44.90537" lon="5.79144">
        <ele>854</ele>
        <time>2017-12-15T18:49:51Z</time>
      </trkpt>
      <trkpt lat="44.90536" lon="5.79179">
        <ele>851.4</ele>
        <time>2017-12-15T18:50:08Z</time>
      </trkpt>
      <trkpt lat="44.90535" lon="5.79209">
        <ele>849.6</ele>
        <time>2017-12-15T18:50:19Z</time>
      </trkpt>
      <trkpt lat="44.90534" lon="5.79268">
        <ele>846.6</ele>
        <time>2017-12-15T18:50:21Z</time>
      </trkpt>
      <trkpt lat="44.90535" lon="5.79304">
        <ele>845.6</ele>
        <time>2017-12-15T18:50:31Z</time>
      </trkpt>
      <trkpt lat="44.90535" lon="5.7933">
        <ele>844.6</ele>
        <time>2017-12-15T18:50:40Z</time>
      </trkpt>
      <trkpt lat="44.90533" lon="5.79392">
        <ele>840.2</ele>
        <time>2017-12-15T18:50:54Z</time>
      </trkpt>
      <trkpt lat="44.90531" lon="5.79496">
        <ele>833.4</ele>
        <time>2017-12-15T18:51:14Z</time>
      </trkpt>
      <trkpt lat="44.90526" lon="5.79671">
        <ele>822.9</ele>
        <time>2017-12-15T18:51:19Z</time>
      </trkpt>
      <trkpt lat="44.90515" lon="5.7971">
        <ele>821.5</ele>
        <time>2017-12-15T18:51:24Z</time>
      </trkpt>
      <trkpt lat="44.90503" lon="5.79732">
        <ele>820.2</ele>
        <time>2017-12-15T18:51:36Z</time>
      </trkpt>
      <trkpt lat="44.90494" lon="5.79744">
        <ele>819.8</ele>
        <time>2017-12-15T18:51:41Z</time>
      </trkpt>
      <trkpt lat="44.90471" lon="5.79765">
        <ele>818.9</ele>
        <time>2017-12-15T18:51:49Z</time>
      </trkpt>
      <trkpt lat="44.90446" lon="5.79776">
        <ele>817.1</ele>
        <time>2017-12-15T18:52:00Z</time>
      </trkpt>
      <trkpt lat="44.90393" lon="5.79788">
        <ele>814.2</ele>
        <time>2017-12-15T18:52:17Z</time>
      </trkpt>
      <trkpt lat="44.90342" lon="5.79799">
        <ele>810.6</ele>
        <time>2017-12-15T18:52:26Z</time>
      </trkpt>
      <trkpt lat="44.90295" lon="5.79818">
        <ele>808.4</ele>
        <time>2017-12-15T18:52:40Z</time>
      </trkpt>
      <trkpt lat="44.90256" lon="5.79845">
        <ele>806.3</ele>
        <time>2017-12-15T18:52:51Z</time>
      </trkpt>
      <trkpt lat="44.9023" lon="5.79864">
        <ele>805.4</ele>
        <time>2017-12-15T18:52:53Z</time>
      </trkpt>
      <trkpt lat="44.90224" lon="5.79861">
        <ele>805.1</ele>
        <time>2017-12-15T18:52:58Z</time>
      </trkpt>
      <trkpt lat="44.90214" lon="5.79863">
        <ele>805</ele>
        <time>2017-12-15T18:53:17Z</time>
      </trkpt>
      <trkpt lat="44.90204" lon="5.79863">
        <ele>805</ele>
        <time>2017-12-15T18:53:21Z</time>
      </trkpt>
      <trkpt lat="44.90199" lon="5.79863">
        <ele>805</ele>
        <time>2017-12-15T18:53:39Z</time>
      </trkpt>
      <trkpt lat="44.90198" lon="5.79861">
        <ele>805</ele>
        <time>2017-12-15T18:53:49Z</time>
      </trkpt>
      <trkpt lat="44.90196" lon="5.79858">
        <ele>805</ele>
        <time>2017-12-15T18:53:59Z</time>
      </trkpt>
      <trkpt lat="44.90189" lon="5.79856">
        <ele>805.2</ele>
        <time>2017-12-15T18:54:05Z</time>
      </trkpt>
      <trkpt lat="44.90182" lon="5.79859">
        <ele>805.4</ele>
        <time>2017-12-15T18:54:12Z</time>
      </trkpt>
      <trkpt lat="44.90178" lon="5.79866">
        <ele>805.4</ele>
        <time>2017-12-15T18:54:17Z</time>
      </trkpt>
      <trkpt lat="44.90176" lon="5.79876">
        <ele>805</ele>
        <time>2017-12-15T18:54:22Z</time>
      </trkpt>
      <trkpt lat="44.90166" lon="5.79907">
        <ele>803.4</ele>
        <time>2017-12-15T18:54:24Z</time>
      </trkpt>
      <trkpt lat="44.90147" lon="5.79946">
        <ele>801.6</ele>
        <time>2017-12-15T18:54:33Z</time>
      </trkpt>
      <trkpt lat="44.90142" lon="5.79954">
        <ele>801.2</ele>
        <time>2017-12-15T18:54:51Z</time>
      </trkpt>
      <trkpt lat="44.90101" lon="5.8001">
        <ele>798.7</ele>
        <time>2017-12-15T18:55:10Z</time>
      </trkpt>
      <trkpt lat="44.90075" lon="5.80041">
        <ele>797.2</ele>
        <time>2017-12-15T18:55:22Z</time>
      </trkpt>
      <trkpt lat="44.90049" lon="5.80062">
        <ele>795.9</ele>
        <time>2017-12-15T18:55:32Z</time>
      </trkpt>
      <trkpt lat="44.89992" lon="5.80095">
        <ele>792.5</ele>
        <time>2017-12-15T18:55:45Z</time>
      </trkpt>
      <trkpt lat="44.89975" lon="5.80106">
        <ele>790.6</ele>
        <time>2017-12-15T18:55:52Z</time>
      </trkpt>
      <trkpt lat="44.89965" lon="5.8012">
        <ele>790.1</ele>
        <time>2017-12-15T18:56:04Z</time>
      </trkpt>
      <trkpt lat="44.89939" lon="5.80174">
        <ele>787.8</ele>
        <time>2017-12-15T18:56:19Z</time>
      </trkpt>
      <trkpt lat="44.89915" lon="5.80235">
        <ele>783.3</ele>
        <time>2017-12-15T18:56:32Z</time>
      </trkpt>
      <trkpt lat="44.89899" lon="5.80279">
        <ele>781.8</ele>
        <time>2017-12-15T18:56:36Z</time>
      </trkpt>
      <trkpt lat="44.89895" lon="5.80303">
        <ele>779.6</ele>
        <time>2017-12-15T18:56:51Z</time>
      </trkpt>
      <trkpt lat="44.89891" lon="5.80325">
        <ele>777.7</ele>
        <time>2017-12-15T18:56:59Z</time>
      </trkpt>
      <trkpt lat="44.8989" lon="5.80344">
        <ele>775.8</ele>
        <time>2017-12-15T18:57:06Z</time>
      </trkpt>
      <trkpt lat="44.8989" lon="5.80402">
        <ele>771</ele>
        <time>2017-12-15T18:57:16Z</time>
      </trkpt>
      <trkpt lat="44.89889" lon="5.80452">
        <ele>767.4</ele>
        <time>2017-12-15T18:57:24Z</time>
      </trkpt>
      <trkpt lat="44.89882" lon="5.80494">
        <ele>766.2</ele>
        <time>2017-12-15T18:57:36Z</time>
      </trkpt>
      <trkpt lat="44.89865" lon="5.80564">
        <ele>763.2</ele>
        <time>2017-12-15T18:57:52Z</time>
      </trkpt>
      <trkpt lat="44.89846" lon="5.80619">
        <ele>760.7</ele>
        <time>2017-12-15T18:58:11Z</time>
      </trkpt>
      <trkpt lat="44.89822" lon="5.80666">
        <ele>757.7</ele>
        <time>2017-12-15T18:58:17Z</time>
      </trkpt>
      <trkpt lat="44.89802" lon="5.80694">
        <ele>756.6</ele>
        <time>2017-12-15T18:58:27Z</time>
      </trkpt>
      <trkpt lat="44.89731" lon="5.80792">
        <ele>749.3</ele>
        <time>2017-12-15T18:58:34Z</time>
      </trkpt>
      <trkpt lat="44.8973" lon="5.80799">
        <ele>748.4</ele>
        <time>2017-12-15T18:58:43Z</time>
      </trkpt>
      <trkpt lat="44.89731" lon="5.80806">
        <ele>747.3</ele>
        <time>2017-12-15T18:59:03Z</time>
      </trkpt>
      <trkpt lat="44.89737" lon="5.80811">
        <ele>746.4</ele>
        <time>2017-12-15T18:59:21Z</time>
      </trkpt>
      <trkpt lat="44.89811" lon="5.80798">
        <ele>741</ele>
        <time>2017-12-15T18:59:30Z</time>
      </trkpt>
      <trkpt lat="44.89835" lon="5.80789">
        <ele>738.5</ele>
        <time>2017-12-15T18:59:44Z</time>
      </trkpt>
      <trkpt lat="44.8987" lon="5.80772">
        <ele>735.1</ele>
        <time>2017-12-15T18:59:55Z</time>
      </trkpt>
      <trkpt lat="44.89916" lon="5.80742">
        <ele>731.6</ele>
        <time>2017-12-15T19:00:07Z</time>
      </trkpt>
      <trkpt lat="44.89929" lon="5.8074">
        <ele>730.9</ele>
        <time>2017-12-15T19:00:22Z</time>
      </trkpt>
      <trkpt lat="44.89936" lon="5.80741">
        <ele>730.2</ele>
        <time>2017-12-15T19:00:28Z</time>
      </trkpt>
      <trkpt lat="44.89949" lon="5.80748">
        <ele>728.4</ele>
        <time>2017-12-15T19:00:38Z</time>
      </trkpt>
      <trkpt lat="44.90006" lon="5.80798">
        <ele>722.2</ele>
        <time>2017-12-15T19:00:46Z</time>
      </trkpt>
      <trkpt lat="44.90029" lon="5.80827">
        <ele>720.4</ele>
        <time>2017-12-15T19:01:06Z</time>
      </trkpt>
      <trkpt lat="44.9005" lon="5.80875">
        <ele>718.2</ele>
        <time>2017-12-15T19:01:17Z</time>
      </trkpt>
      <trkpt lat="44.90062" lon="5.80912">
        <ele>718.2</ele>
        <time>2017-12-15T19:01:34Z</time>
      </trkpt>
      <trkpt lat="44.90064" lon="5.80931">
        <ele>717.9</ele>
        <time>2017-12-15T19:01:47Z</time>
      </trkpt>
      <trkpt lat="44.90056" lon="5.80961">
        <ele>715.1</ele>
        <time>2017-12-15T19:02:01Z</time>
      </trkpt>
      <trkpt lat="44.90022" lon="5.81045">
        <ele>706</ele>
        <time>2017-12-15T19:02:08Z</time>
      </trkpt>
      <trkpt lat="44.90017" lon="5.81069">
        <ele>703.8</ele>
        <time>2017-12-15T19:02:15Z</time>
      </trkpt>
      <trkpt lat="44.90017" lon="5.81083">
        <ele>703.6</ele>
        <time>2017-12-15T19:02:27Z</time>
      </trkpt>
      <trkpt lat="44.90021" lon="5.81109">
        <ele>705.4</ele>
        <time>2017-12-15T19:02:41Z</time>
      </trkpt>
      <trkpt lat="44.90022" lon="5.81131">
        <ele>706.7</ele>
        <time>2017-12-15T19:02:46Z</time>
      </trkpt>
      <trkpt lat="44.90017" lon="5.81154">
        <ele>705.7</ele>
        <time>2017-12-15T19:03:06Z</time>
      </trkpt>
      <trkpt lat="44.90004" lon="5.81179">
        <ele>700.9</ele>
        <time>2017-12-15T19:03:12Z</time>
      </trkpt>
      <trkpt lat="44.89997" lon="5.812">
        <ele>698.5</ele>
        <time>2017-12-15T19:03:17Z</time>
      </trkpt>
      <trkpt lat="44.89994" lon="5.81233">
        <ele>696.5</ele>
        <time>2017-12-15T19:03:21Z</time>
      </trkpt>
      <trkpt lat="44.89995" lon="5.81243">
        <ele>696.1</ele>
        <time>2017-12-15T19:03:27Z</time>
      </trkpt>
      <trkpt lat="44.9" lon="5.81256">
        <ele>696.9</ele>
        <time>2017-12-15T19:03:42Z</time>
      </trkpt>
      <trkpt lat="44.90013" lon="5.81272">
        <ele>698.3</ele>
        <time>2017-12-15T19:03:57Z</time>
      </trkpt>
      <trkpt lat="44.90016" lon="5.81284">
        <ele>696.4</ele>
        <time>2017-12-15T19:04:07Z</time>
      </trkpt>
      <trkpt lat="44.90015" lon="5.81289">
        <ele>694.6</ele>
        <time>2017-12-15T19:04:19Z</time>
      </trkpt>
      <trkpt lat="44.9001" lon="5.81292">
        <ele>692.3</ele>
        <time>2017-12-15T19:04:22Z</time>
      </trkpt>
      <trkpt lat="44.90007" lon="5.81292">
        <ele>691.4</ele>
        <time>2017-12-15T19:04:39Z</time>
      </trkpt>
      <trkpt lat="44.89997" lon="5.81283">
        <ele>690.3</ele>
        <time>2017-12-15T19:04:54Z</time>
      </trkpt>
      <trkpt lat="44.89984" lon="5.81264">
        <ele>687.7</ele>
        <time>2017-12-15T19:04:58Z</time>
      </trkpt>
      <trkpt lat="44.89977" lon="5.81241">
        <ele>686.8</ele>
        <time>2017-12-15T19:05:06Z</time>
      </trkpt>
      <trkpt lat="44.89973" lon="5.81202">
        <ele>684.7</ele>
        <time>2017-12-15T19:05:20Z</time>
      </trkpt>
      <trkpt lat="44.89977" lon="5.81176">
        <ele>686</ele>
        <time>2017-12-15T19:05:39Z</time>
      </trkpt>
      <trkpt lat="44.89985" lon="5.81151">
        <ele>688.8</ele>
        <time>2017-12-15T19:05:48Z</time>
      </trkpt>
      <trkpt lat="44.89988" lon="5.81135">
        <ele>689.4</ele>
        <time>2017-12-15T19:06:00Z</time>
      </trkpt>
      <trkpt lat="44.89985" lon="5.81118">
        <ele>687.2</ele>
        <time>2017-12-15T19:06:05Z</time>
      </trkpt>
      <trkpt lat="44.89974" lon="5.81087">
        <ele>682.7</ele>
        <time>2017-12-15T19:06:13Z</time>
      </trkpt>
      <trkpt lat="44.89958" lon="5.81022">
        <ele>685.6</ele>
        <time>2017-12-15T19:06:18Z</time>
      </trkpt>
      <trkpt lat="44.89951" lon="5.81011">
        <ele>686.1</ele>
        <time>2017-12-15T19:06:26Z</time>
      </trkpt>
      <trkpt lat="44.89945" lon="5.81009">
        <ele>685.8</ele>
        <time>2017-12-15T19:06:38Z</time>
      </trkpt>
      <trkpt lat="44.8994" lon="5.81012">
        <ele>685.7</ele>
        <time>2017-12-15T19:06:58Z</time>
      </trkpt>
      <trkpt lat="44.89933" lon="5.81021">
        <ele>684.9</ele>
        <time>2017-12-15T19:07:08Z</time>
      </trkpt>
      <trkpt lat="44.89913" lon="5.81069">
        <ele>677</ele>
        <time>2017-12-15T19:07:14Z</time>
      </trkpt>
      <trkpt lat="44.89892" lon="5.81118">
        <ele>669.8</ele>
        <time>2017-12-15T19:07:18Z</time>
      </trkpt>
      <trkpt lat="44.8988" lon="5.81134">
        <ele>669.1</ele>
        <time>2017-12-15T19:07:23Z</time>
      </trkpt>
      <trkpt lat="44.89862" lon="5.81157">
        <ele>669.1</ele>
        <time>2017-12-15T19:07:25Z</time>
      </trkpt>
      <trkpt lat="44.89854" lon="5.81173">
        <ele>667.2</ele>
        <time>2017-12-15T19:07:35Z</time>
      </trkpt>
      <trkpt lat="44.89844" lon="5.81218">
        <ele>657.1</ele>
        <time>2017-12-15T19:07:52Z</time>
      </trkpt>
      <trkpt lat="44.89837" lon="5.81229">
        <ele>655.8</ele>
        <time>2017-12-15T19:08:00Z</time>
      </trkpt>
      <trkpt lat="44.89826" lon="5.81235">
        <ele>655</ele>
        <time>2017-12-15T19:08:18Z</time>
      </trkpt>
      <trkpt lat="44.89802" lon="5.81239">
        <ele>653.2</ele>
        <time>2017-12-15T19:08:34Z</time>
      </trkpt>
      <trkpt lat="44.89798" lon="5.81244">
        <ele>650.5</ele>
        <time>2017-12-15T19:08:36Z</time>
      </trkpt>
      <trkpt lat="44.89798" lon="5.81253">
        <ele>647.3</ele>
        <time>2017-12-15T19:08:56Z</time>
      </trkpt>
      <trkpt lat="44.898" lon="5.81255">
        <ele>647</ele>
        <time>2017-12-15T19:08:59Z</time>
      </trkpt>
      <trkpt lat="44.89804" lon="5.81257">
        <ele>647.1</ele>
        <time>2017-12-15T19:09:11Z</time>
      </trkpt>
      <trkpt lat="44.89833" lon="5.81251">
        <ele>649.7</ele>
        <time>2017-12-15T19:09:17Z</time>
      </trkpt>
      <trkpt lat="44.89846" lon="5.81244">
        <ele>649</ele>
        <time>2017-12-15T19:09:30Z</time>
      </trkpt>
      <trkpt lat="44.89863" lon="5.81227">
        <ele>649.5</ele>
        <time>2017-12-15T19:09:49Z</time>
      </trkpt>
      <trkpt lat="44.8988" lon="5.81216">
        <ele>648.9</ele>
        <time>2017-12-15T19:10:06Z</time>
      </trkpt>
      <trkpt lat="44.89886" lon="5.81214">
        <ele>648.1</ele>
        <time>2017-12-15T19:10:21Z</time>
      </trkpt>
      <trkpt lat="44.89897" lon="5.81217">
        <ele>648.3</ele>
        <time>2017-12-15T19:10:36Z</time>
      </trkpt>
      <trkpt lat="44.89907" lon="5.81228">
        <ele>649</ele>
        <time>2017-12-15T19:10:43Z</time>
      </trkpt>
      <trkpt lat="44.89913" lon="5.81243">
        <ele>649.9</ele>
        <time>2017-12-15T19:10:47Z</time>
      </trkpt>
      <trkpt lat="44.89916" lon="5.81274">
        <ele>649</ele>
        <time>2017-12-15T19:11:07Z</time>
      </trkpt>
      <trkpt lat="44.89919" lon="5.81336">
        <ele>643.5</ele>
        <time>2017-12-15T19:11:13Z</time>
      </trkpt>
      <trkpt lat="44.89924" lon="5.81354">
        <ele>642.8</ele>
        <time>2017-12-15T19:11:21Z</time>
      </trkpt>
      <trkpt lat="44.89934" lon="5.81376">
        <ele>640.6</ele>
        <time>2017-12-15T19:11:38Z</time>
      </trkpt>
      <trkpt lat="44.89967" lon="5.81418">
        <ele>632.5</ele>
        <time>2017-12-15T19:11:49Z</time>
      </trkpt>
      <trkpt lat="44.89983" lon="5.81431">
        <ele>624.9</ele>
        <time>2017-12-15T19:12:08Z</time>
      </trkpt>
      <trkpt lat="44.89994" lon="5.81435">
        <ele>622.7</ele>
        <time>2017-12-15T19:12:13Z</time>
      </trkpt>
      <trkpt lat="44.9001" lon="5.81434">
        <ele>624</ele>
        <time>2017-12-15T19:12:31Z</time>
      </trkpt>
      <trkpt lat="44.90039" lon="5.81431">
        <ele>628</ele>
        <time>2017-12-15T19:12:40Z</time>
      </trkpt>
      <trkpt lat="44.90052" lon="5.81438">
        <ele>626</ele>
        <time>2017-12-15T19:12:55Z</time>
      </trkpt>
      <trkpt lat="44.90078" lon="5.81468">
        <ele>619.3</ele>
        <time>2017-12-15T19:13:11Z</time>
      </trkpt>
      <trkpt lat="44.90099" lon="5.81502">
        <ele>615.7</ele>
        <time>2017-12-15T19:13:21Z</time>
      </trkpt>
      <trkpt lat="44.90122" lon="5.81534">
        <ele>615.7</ele>
        <time>2017-12-15T19:13:33Z</time>
      </trkpt>
      <trkpt lat="44.90209" lon="5.81625">
        <ele>608.9</ele>
        <time>2017-12-15T19:13:53Z</time>
      </trkpt>
      <trkpt lat="44.90217" lon="5.81643">
        <ele>606</ele>
        <time>2017-12-15T19:14:10Z</time>
      </trkpt>
      <trkpt lat="44.90218" lon="5.81657">
        <ele>601.1</ele>
        <time>2017-12-15T19:14:24Z</time>
      </trkpt>
      <trkpt lat="44.90215" lon="5.81668">
        <ele>595.9</ele>
        <time>2017-12-15T19:14:40Z</time>
      </trkpt>
      <trkpt lat="44.90209" lon="5.81681">
        <ele>588.8</ele>
        <time>2017-12-15T19:14:49Z</time>
      </trkpt>
      <trkpt lat="44.90176" lon="5.81725">
        <ele>591.3</ele>
        <time>2017-12-15T19:15:03Z</time>
      </trkpt>
      <trkpt lat="44.90135" lon="5.81779">
        <ele>606.1</ele>
        <time>2017-12-15T19:15:19Z</time>
      </trkpt>
      <trkpt lat="44.90132" lon="5.81783">
        <ele>606.8</ele>
        <time>2017-12-15T19:15:27Z</time>
      </trkpt>
      <trkpt lat="44.90127" lon="5.81783">
        <ele>608.4</ele>
        <time>2017-12-15T19:15:43Z</time>
      </trkpt>
      <trkpt lat="44.90114" lon="5.81786">
        <ele>612.6</ele>
        <time>2017-12-15T19:15:47Z</time>
      </trkpt>
      <trkpt lat="44.90106" lon="5.81782">
        <ele>615.2</ele>
        <time>2017-12-15T19:15:53Z</time>
      </trkpt>
      <trkpt lat="44.90098" lon="5.81769">
        <ele>616.3</ele>
        <time>2017-12-15T19:16:04Z</time>
      </trkpt>
      <trkpt lat="44.90076" lon="5.81724">
        <ele>620.4</ele>
        <time>2017-12-15T19:16:16Z</time>
      </trkpt>
      <trkpt lat="44.90053" lon="5.81671">
        <ele>617.5</ele>
        <time>2017-12-15T19:16:36Z</time>
      </trkpt>
      <trkpt lat="44.90045" lon="5.81659">
        <ele>614.9</ele>
        <time>2017-12-15T19:16:56Z</time>
      </trkpt>
      <trkpt lat="44.90034" lon="5.8165">
        <ele>613.6</ele>
        <time>2017-12-15T19:17:11Z</time>
      </trkpt>
      <trkpt lat="44.90019" lon="5.81646">
        <ele>614</ele>
        <time>2017-12-15T19:17:26Z</time>
      </trkpt>
      <trkpt lat="44.90002" lon="5.81647">
        <ele>616.5</ele>
        <time>2017-12-15T19:17:46Z</time>
      </trkpt>
      <trkpt lat="44.89983" lon="5.81651">
        <ele>620.2</ele>
        <time>2017-12-15T19:17:59Z</time>
      </trkpt>
      <trkpt lat="44.89959" lon="5.8165">
        <ele>622.3</ele>
        <time>2017-12-15T19:18:02Z</time>
      </trkpt>
      <trkpt lat="44.89914" lon="5.81641">
        <ele>625.6</ele>
        <time>2017-12-15T19:18:06Z</time>
      </trkpt>
      <trkpt lat="44.89866" lon="5.81634">
        <ele>628.8</ele>
        <time>2017-12-15T19:18:19Z</time>
      </trkpt>
      <trkpt lat="44.89845" lon="5.81634">
        <ele>628.6</ele>
        <time>2017-12-15T19:18:34Z</time>
      </trkpt>
      <trkpt lat="44.8982" lon="5.81643">
        <ele>628.9</ele>
        <time>2017-12-15T19:18:42Z</time>
      </trkpt>
      <trkpt lat="44.89803" lon="5.81654">
        <ele>629.9</ele>
        <time>2017-12-15T19:18:56Z</time>
      </trkpt>
      <trkpt lat="44.89783" lon="5.81675">
        <ele>632.6</ele>
        <time>2017-12-15T19:19:14Z</time>
      </trkpt>
      <trkpt lat="44.89762" lon="5.81697">
        <ele>637.4</ele>
        <time>2017-12-15T19:19:22Z</time>
      </trkpt>
      <trkpt lat="44.89751" lon="5.81701">
        <ele>637.7</ele>
        <time>2017-12-15T19:19:25Z</time>
      </trkpt>
      <trkpt lat="44.89738" lon="5.817">
        <ele>639.3</ele>
        <time>2017-12-15T19:19:31Z</time>
      </trkpt>
      <trkpt lat="44.89726" lon="5.81692">
        <ele>638.7</ele>
        <time>2017-12-15T19:19:48Z</time>
      </trkpt>
      <trkpt lat="44.89711" lon="5.81671">
        <ele>637.4</ele>
        <time>2017-12-15T19:19:55Z</time>
      </trkpt>
      <trkpt lat="44.89698" lon="5.81658">
        <ele>637.8</ele>
        <time>2017-12-15T19:20:00Z</time>
      </trkpt>
      <trkpt lat="44.89687" lon="5.81653">
        <ele>639.3</ele>
        <time>2017-12-15T19:20:04Z</time>
      </trkpt>
      <trkpt lat="44.89675" lon="5.81652">
        <ele>641.9</ele>
        <time>2017-12-15T19:20:07Z</time>
      </trkpt>
      <trkpt lat="44.89656" lon="5.81659">
        <ele>646.6</ele>
        <time>2017-12-15T19:20:15Z</time>
      </trkpt>
      <trkpt lat="44.8961" lon="5.81693">
        <ele>653.6</ele>
        <time>2017-12-15T19:20:17Z</time>
      </trkpt>
      <trkpt lat="44.89558" lon="5.81744">
        <ele>654.6</ele>
        <time>2017-12-15T19:20:27Z</time>
      </trkpt>
      <trkpt lat="44.89548" lon="5.81746">
        <ele>656</ele>
        <time>2017-12-15T19:20:40Z</time>
      </trkpt>
      <trkpt lat="44.89538" lon="5.81745">
        <ele>657.8</ele>
        <time>2017-12-15T19:20:44Z</time>
      </trkpt>
      <trkpt lat="44.89529" lon="5.8174">
        <ele>658.6</ele>
        <time>2017-12-15T19:21:00Z</time>
      </trkpt>
      <trkpt lat="44.89491" lon="5.81712">
        <ele>664</ele>
        <time>2017-12-15T19:21:10Z</time>
      </trkpt>
      <trkpt lat="44.89465" lon="5.81687">
        <ele>665</ele>
        <time>2017-12-15T19:21:16Z</time>
      </trkpt>
      <trkpt lat="44.89433" lon="5.81655">
        <ele>667.2</ele>
        <time>2017-12-15T19:21:26Z</time>
      </trkpt>
      <trkpt lat="44.89409" lon="5.81624">
        <ele>669.2</ele>
        <time>2017-12-15T19:21:34Z</time>
      </trkpt>
      <trkpt lat="44.89392" lon="5.81605">
        <ele>670.4</ele>
        <time>2017-12-15T19:21:48Z</time>
      </trkpt>
      <trkpt lat="44.89367" lon="5.8159">
        <ele>673.7</ele>
        <time>2017-12-15T19:21:57Z</time>
      </trkpt>
      <trkpt lat="44.89342" lon="5.81581">
        <ele>677.6</ele>
        <time>2017-12-15T19:22:04Z</time>
      </trkpt>
      <trkpt lat="44.8932" lon="5.81568">
        <ele>680.3</ele>
        <time>2017-12-15T19:22:08Z</time>
      </trkpt>
      <trkpt lat="44.89284" lon="5.81526">
        <ele>681.8</ele>
        <time>2017-12-15T19:22:15Z</time>
      </trkpt>
      <trkpt lat="44.89255" lon="5.81499">
        <ele>684.4</ele>
        <time>2017-12-15T19:22:21Z</time>
      </trkpt>
      <trkpt lat="44.8923" lon="5.81475">
        <ele>686.5</ele>
        <time>2017-12-15T19:22:38Z</time>
      </trkpt>
      <trkpt lat="44.89211" lon="5.81464">
        <ele>688.6</ele>
        <time>2017-12-15T19:22:52Z</time>
      </trkpt>
      <trkpt lat="44.8916" lon="5.81443">
        <ele>692.1</ele>
        <time>2017-12-15T19:22:57Z</time>
      </trkpt>
      <trkpt lat="44.89152" lon="5.81442">
        <ele>692.4</ele>
        <time>2017-12-15T19:23:01Z</time>
      </trkpt>
      <trkpt lat="44.89146" lon="5.81445">
        <ele>693.6</ele>
        <time>2017-12-15T19:23:11Z</time>
      </trkpt>
      <trkpt lat="44.89143" lon="5.81453">
        <ele>695.9</ele>
        <time>2017-12-15T19:23:25Z</time>
      </trkpt>
      <trkpt lat="44.89145" lon="5.8146">
        <ele>697.5</ele>
        <time>2017-12-15T19:23:33Z</time>
      </trkpt>
      <trkpt lat="44.89149" lon="5.81465">
        <ele>698.5</ele>
        <time>2017-12-15T19:23:48Z</time>
      </trkpt>
      <trkpt lat="44.89156" lon="5.81468">
        <ele>698.7</ele>
        <time>2017-12-15T19:24:02Z</time>
      </trkpt>
      <trkpt lat="44.89176" lon="5.81479">
        <ele>698.6</ele>
        <time>2017-12-15T19:24:19Z</time>
      </trkpt>
      <trkpt lat="44.89184" lon="5.81486">
        <ele>698.7</ele>
        <time>2017-12-15T19:24:30Z</time>
      </trkpt>
      <trkpt lat="44.89209" lon="5.81519">
        <ele>700.4</ele>
        <time>2017-12-15T19:24:32Z</time>
      </trkpt>
      <trkpt lat="44.8923" lon="5.81553">
        <ele>701.6</ele>
        <time>2017-12-15T19:24:42Z</time>
      </trkpt>
      <trkpt lat="44.89274" lon="5.81659">
        <ele>709.6</ele>
        <time>2017-12-15T19:24:52Z</time>
      </trkpt>
      <trkpt lat="44.8929" lon="5.81707">
        <ele>713</ele>
        <time>2017-12-15T19:24:59Z</time>
      </trkpt>
      <trkpt lat="44.89302" lon="5.81761">
        <ele>718.3</ele>
        <time>2017-12-15T19:25:12Z</time>
      </trkpt>
      <trkpt lat="44.89314" lon="5.81784">
        <ele>719.9</ele>
        <time>2017-12-15T19:25:20Z</time>
      </trkpt>
      <trkpt lat="44.89341" lon="5.81804">
        <ele>719.6</ele>
        <time>2017-12-15T19:25:29Z</time>
      </trkpt>
      <trkpt lat="44.89368" lon="5.8183">
        <ele>721.3</ele>
        <time>2017-12-15T19:25:48Z</time>
      </trkpt>
      <trkpt lat="44.89378" lon="5.81851">
        <ele>723.1</ele>
        <time>2017-12-15T19:26:08Z</time>
      </trkpt>
      <trkpt lat="44.8938" lon="5.81856">
        <ele>723.5</ele>
        <time>2017-12-15T19:26:11Z</time>
      </trkpt>
      <trkpt lat="44.89387" lon="5.81879">
        <ele>725.2</ele>
        <time>2017-12-15T19:26:20Z</time>
      </trkpt>
      <trkpt lat="44.89392" lon="5.81923">
        <ele>728.9</ele>
        <time>2017-12-15T19:26:32Z</time>
      </trkpt>
      <trkpt lat="44.89393" lon="5.8195">
        <ele>730.5</ele>
        <time>2017-12-15T19:26:42Z</time>
      </trkpt>
      <trkpt lat="44.89384" lon="5.81945">
        <ele>732.1</ele>
        <time>2017-12-15T19:26:55Z</time>
      </trkpt>
      <trkpt lat="44.89364" lon="5.81909">
        <ele>732.7</ele>
        <time>2017-12-15T19:27:12Z</time>
      </trkpt>
      <trkpt lat="44.89355" lon="5.819">
        <ele>732.9</ele>
        <time>2017-12-15T19:27:16Z</time>
      </trkpt>
      <trkpt lat="44.89342" lon="5.81894">
        <ele>733.7</ele>
        <time>2017-12-15T19:27:34Z</time>
      </trkpt>
      <trkpt lat="44.89241" lon="5.81872">
        <ele>741.9</ele>
        <time>2017-12-15T19:27:49Z</time>
      </trkpt>
      <trkpt lat="44.89223" lon="5.81862">
        <ele>743</ele>
        <time>2017-12-15T19:27:53Z</time>
      </trkpt>
      <trkpt lat="44.89195" lon="5.81828">
        <ele>743.5</ele>
        <time>2017-12-15T19:28:13Z</time>
      </trkpt>
      <trkpt lat="44.89178" lon="5.8181">
        <ele>745.3</ele>
        <time>2017-12-15T19:28:20Z</time>
      </trkpt>
      <trkpt lat="44.89169" lon="5.81803">
        <ele>746.2</ele>
        <time>2017-12-15T19:28:30Z</time>
      </trkpt>
      <trkpt lat="44.89147" lon="5.81792">
        <ele>747.2</ele>
        <time>2017-12-15T19:28:36Z</time>
      </trkpt>
      <trkpt lat="44.89085" lon="5.81778">
        <ele>750</ele>
        <time>2017-12-15T19:28:56Z</time>
      </trkpt>
      <trkpt lat="44.89039" lon="5.8177">
        <ele>752.3</ele>
        <time>2017-12-15T19:29:11Z</time>
      </trkpt>
      <trkpt lat="44.88996" lon="5.81772">
        <ele>756.7</ele>
        <time>2017-12-15T19:29:20Z</time>
      </trkpt>
      <trkpt lat="44.88982" lon="5.8177">
        <ele>757.9</ele>
        <time>2017-12-15T19:29:24Z</time>
      </trkpt>
      <trkpt lat="44.88967" lon="5.81766">
        <ele>758.5</ele>
        <time>2017-12-15T19:29:42Z</time>
      </trkpt>
      <trkpt lat="44.88911" lon="5.81735">
        <ele>756.5</ele>
        <time>2017-12-15T19:29:58Z</time>
      </trkpt>
      <trkpt lat="44.88889" lon="5.81725">
        <ele>756.8</ele>
        <time>2017-12-15T19:30:01Z</time>
      </trkpt>
      <trkpt lat="44.88872" lon="5.8172">
        <ele>756.8</ele>
        <time>2017-12-15T19:30:06Z</time>
      </trkpt>
      <trkpt lat="44.88854" lon="5.81718">
        <ele>757.7</ele>
        <time>2017-12-15T19:30:21Z</time>
      </trkpt>
      <trkpt lat="44.88798" lon="5.81715">
        <ele>762.1</ele>
        <time>2017-12-15T19:30:33Z</time>
      </trkpt>
      <trkpt lat="44.8874" lon="5.81704">
        <ele>764.9</ele>
        <time>2017-12-15T19:30:46Z</time>
      </trkpt>
      <trkpt lat="44.88711" lon="5.81696">
        <ele>764.8</ele>
        <time>2017-12-15T19:30:59Z</time>
      </trkpt>
      <trkpt lat="44.88645" lon="5.81674">
        <ele>766.5</ele>
        <time>2017-12-15T19:31:01Z</time>
      </trkpt>
      <trkpt lat="44.88539" lon="5.81629">
        <ele>772.8</ele>
        <time>2017-12-15T19:31:18Z</time>
      </trkpt>
      <trkpt lat="44.88506" lon="5.81613">
        <ele>773.6</ele>
        <time>2017-12-15T19:31:26Z</time>
      </trkpt>
      <trkpt lat="44.88492" lon="5.816">
        <ele>772.5</ele>
        <time>2017-12-15T19:31:31Z</time>
      </trkpt>
      <trkpt lat="44.8848" lon="5.81584">
        <ele>771</ele>
        <time>2017-12-15T19:31:35Z</time>
      </trkpt>
      <trkpt lat="44.88465" lon="5.81555">
        <ele>767.2</ele>
        <time>2017-12-15T19:31:37Z</time>
      </trkpt>
      <trkpt lat="44.88441" lon="5.81507">
        <ele>767.1</ele>
        <time>2017-12-15T19:31:39Z</time>
      </trkpt>
      <trkpt lat="44.88427" lon="5.81465">
        <ele>766.5</ele>
        <time>2017-12-15T19:31:51Z</time>
      </trkpt>
      <trkpt lat="44.88413" lon="5.81408">
        <ele>766.3</ele>
        <time>2017-12-15T19:32:11Z</time>
      </trkpt>
      <trkpt lat="44.88402" lon="5.81348">
        <ele>764.8</ele>
        <time>2017-12-15T19:32:17Z</time>
      </trkpt>
      <trkpt lat="44.88391" lon="5.81317">
        <ele>764.7</ele>
        <time>2017-12-15T19:32:23Z</time>
      </trkpt>
      <trkpt lat="44.88375" lon="5.81297">
        <ele>766.1</ele>
        <time>2017-12-15T19:32:38Z</time>
      </trkpt>
      <trkpt lat="44.88339" lon="5.81271">
        <ele>769.8</ele>
        <time>2017-12-15T19:32:46Z</time>
      </trkpt>
      <trkpt lat="44.8828" lon="5.81244">
        <ele>774.2</ele>
        <time>2017-12-15T19:32:55Z</time>
      </trkpt>
      <trkpt lat="44.88239" lon="5.81218">
        <ele>774.3</ele>
        <time>2017-12-15T19:32:58Z</time>
      </trkpt>
      <trkpt lat="44.88211" lon="5.81188">
        <ele>772</ele>
        <time>2017-12-15T19:33:13Z</time>
      </trkpt>
      <trkpt lat="44.88195" lon="5.81161">
        <ele>769.7</ele>
        <time>2017-12-15T19:33:32Z</time>
      </trkpt>
      <trkpt lat="44.88184" lon="5.81146">
        <ele>767.7</ele>
        <time>2017-12-15T19:33:37Z</time>
      </trkpt>
      <trkpt lat="44.88173" lon="5.81137">
        <ele>766.9</ele>
        <time>2017-12-15T19:33:53Z</time>
      </trkpt>
      <trkpt lat="44.88162" lon="5.8113">
        <ele>766.1</ele>
        <time>2017-12-15T19:34:03Z</time>
      </trkpt>
      <trkpt lat="44.88147" lon="5.81126">
        <ele>765.5</ele>
        <time>2017-12-15T19:34:07Z</time>
      </trkpt>
      <trkpt lat="44.88058" lon="5.81129">
        <ele>758.9</ele>
        <time>2017-12-15T19:34:17Z</time>
      </trkpt>
      <trkpt lat="44.88046" lon="5.8113">
        <ele>757.3</ele>
        <time>2017-12-15T19:34:24Z</time>
      </trkpt>
      <trkpt lat="44.88034" lon="5.81135">
        <ele>756.3</ele>
        <time>2017-12-15T19:34:37Z</time>
      </trkpt>
      <trkpt lat="44.88019" lon="5.81151">
        <ele>756.5</ele>
        <time>2017-12-15T19:34:39Z</time>
      </trkpt>
      <trkpt lat="44.88005" lon="5.81173">
        <ele>757.2</ele>
        <time>2017-12-15T19:34:42Z</time>
      </trkpt>
      <trkpt lat="44.87993" lon="5.81186">
        <ele>757</ele>
        <time>2017-12-15T19:35:02Z</time>
      </trkpt>
      <trkpt lat="44.87979" lon="5.81197">
        <ele>755.9</ele>
        <time>2017-12-15T19:35:08Z</time>
      </trkpt>
      <trkpt lat="44.87939" lon="5.81218">
        <ele>752.1</ele>
        <time>2017-12-15T19:35:17Z</time>
      </trkpt>
      <trkpt lat="44.87905" lon="5.8124">
        <ele>748.7</ele>
        <time>2017-12-15T19:35:25Z</time>
      </trkpt>
      <trkpt lat="44.87889" lon="5.81256">
        <ele>747.9</ele>
        <time>2017-12-15T19:35:44Z</time>
      </trkpt>
      <trkpt lat="44.8788" lon="5.8127">
        <ele>747.6</ele>
        <time>2017-12-15T19:36:04Z</time>
      </trkpt>
      <trkpt lat="44.87864" lon="5.81321">
        <ele>749.6</ele>
        <time>2017-12-15T19:36:09Z</time>
      </trkpt>
      <trkpt lat="44.87834" lon="5.81377">
        <ele>747.3</ele>
        <time>2017-12-15T19:36:22Z</time>
      </trkpt>
      <trkpt lat="44.87812" lon="5.81414">
        <ele>745.1</ele>
        <time>2017-12-15T19:36:26Z</time>
      </trkpt>
      <trkpt lat="44.87794" lon="5.81433">
        <ele>743.1</ele>
        <time>2017-12-15T19:36:34Z</time>
      </trkpt>
      <trkpt lat="44.87778" lon="5.81447">
        <ele>741.4</ele>
        <time>2017-12-15T19:36:41Z</time>
      </trkpt>
      <trkpt lat="44.87768" lon="5.81463">
        <ele>742</ele>
        <time>2017-12-15T19:36:46Z</time>
      </trkpt>
      <trkpt lat="44.87759" lon="5.81496">
        <ele>743.9</ele>
        <time>2017-12-15T19:36:52Z</time>
      </trkpt>
      <trkpt lat="44.8775" lon="5.8154">
        <ele>746.9</ele>
        <time>2017-12-15T19:36:55Z</time>
      </trkpt>
      <trkpt lat="44.87722" lon="5.81653">
        <ele>750.5</ele>
        <time>2017-12-15T19:37:04Z</time>
      </trkpt>
      <trkpt lat="44.87693" lon="5.81747">
        <ele>748.6</ele>
        <time>2017-12-15T19:37:06Z</time>
      </trkpt>
      <trkpt lat="44.87664" lon="5.8183">
        <ele>746.5</ele>
        <time>2017-12-15T19:37:08Z</time>
      </trkpt>
      <trkpt lat="44.87611" lon="5.81978">
        <ele>744.6</ele>
        <time>2017-12-15T19:37:25Z</time>
      </trkpt>
      <trkpt lat="44.87606" lon="5.81995">
        <ele>745.4</ele>
        <time>2017-12-15T19:37:28Z</time>
      </trkpt>
      <trkpt lat="44.8755" lon="5.82167">
        <ele>748</ele>
        <time>2017-12-15T19:37:38Z</time>
      </trkpt>
      <trkpt lat="44.87529" lon="5.82246">
        <ele>748</ele>
        <time>2017-12-15T19:37:40Z</time>
      </trkpt>
      <trkpt lat="44.87501" lon="5.82306">
        <ele>747.2</ele>
        <time>2017-12-15T19:37:57Z</time>
      </trkpt>
      <trkpt lat="44.87487" lon="5.82342">
        <ele>747.3</ele>
        <time>2017-12-15T19:38:04Z</time>
      </trkpt>
      <trkpt lat="44.87481" lon="5.82371">
        <ele>748</ele>
        <time>2017-12-15T19:38:15Z</time>
      </trkpt>
      <trkpt lat="44.87465" lon="5.82443">
        <ele>748.6</ele>
        <time>2017-12-15T19:38:22Z</time>
      </trkpt>
      <trkpt lat="44.87456" lon="5.82465">
        <ele>748.6</ele>
        <time>2017-12-15T19:38:40Z</time>
      </trkpt>
      <trkpt lat="44.87425" lon="5.82505">
        <ele>747.7</ele>
        <time>2017-12-15T19:38:46Z</time>
      </trkpt>
      <trkpt lat="44.87406" lon="5.82526">
        <ele>746.9</ele>
        <time>2017-12-15T19:38:55Z</time>
      </trkpt>
      <trkpt lat="44.8739" lon="5.82548">
        <ele>746.4</ele>
        <time>2017-12-15T19:39:02Z</time>
      </trkpt>
      <trkpt lat="44.87377" lon="5.8257">
        <ele>746.4</ele>
        <time>2017-12-15T19:39:10Z</time>
      </trkpt>
      <trkpt lat="44.87362" lon="5.82599">
        <ele>746.3</ele>
        <time>2017-12-15T19:39:14Z</time>
      </trkpt>
      <trkpt lat="44.87354" lon="5.82627">
        <ele>746.6</ele>
        <time>2017-12-15T19:39:22Z</time>
      </trkpt>
      <trkpt lat="44.87342" lon="5.82686">
        <ele>749</ele>
        <time>2017-12-15T19:39:38Z</time>
      </trkpt>
      <trkpt lat="44.87342" lon="5.82711">
        <ele>750.2</ele>
        <time>2017-12-15T19:39:58Z</time>
      </trkpt>
      <trkpt lat="44.87338" lon="5.82743">
        <ele>752</ele>
        <time>2017-12-15T19:40:02Z</time>
      </trkpt>
      <trkpt lat="44.87324" lon="5.82784">
        <ele>753.9</ele>
        <time>2017-12-15T19:40:10Z</time>
      </trkpt>
      <trkpt lat="44.87308" lon="5.82809">
        <ele>754.8</ele>
        <time>2017-12-15T19:40:17Z</time>
      </trkpt>
      <trkpt lat="44.87287" lon="5.82828">
        <ele>755.1</ele>
        <time>2017-12-15T19:40:19Z</time>
      </trkpt>
      <trkpt lat="44.87272" lon="5.82844">
        <ele>755.4</ele>
        <time>2017-12-15T19:40:35Z</time>
      </trkpt>
      <trkpt lat="44.87266" lon="5.82854">
        <ele>755.5</ele>
        <time>2017-12-15T19:40:53Z</time>
      </trkpt>
      <trkpt lat="44.87263" lon="5.82869">
        <ele>756.2</ele>
        <time>2017-12-15T19:41:13Z</time>
      </trkpt>
      <trkpt lat="44.87263" lon="5.82891">
        <ele>757.3</ele>
        <time>2017-12-15T19:41:16Z</time>
      </trkpt>
      <trkpt lat="44.87266" lon="5.82921">
        <ele>758.6</ele>
        <time>2017-12-15T19:41:19Z</time>
      </trkpt>
      <trkpt lat="44.87266" lon="5.8298">
        <ele>760.2</ele>
        <time>2017-12-15T19:41:39Z</time>
      </trkpt>
      <trkpt lat="44.87263" lon="5.83019">
        <ele>761.2</ele>
        <time>2017-12-15T19:41:47Z</time>
      </trkpt>
      <trkpt lat="44.87259" lon="5.83039">
        <ele>762.2</ele>
        <time>2017-12-15T19:42:01Z</time>
      </trkpt>
      <trkpt lat="44.87251" lon="5.83062">
        <ele>763.1</ele>
        <time>2017-12-15T19:42:20Z</time>
      </trkpt>
      <trkpt lat="44.87241" lon="5.83084">
        <ele>764.1</ele>
        <time>2017-12-15T19:42:33Z</time>
      </trkpt>
      <trkpt lat="44.87225" lon="5.83109">
        <ele>763.4</ele>
        <time>2017-12-15T19:42:47Z</time>
      </trkpt>
      <trkpt lat="44.87215" lon="5.83131">
        <ele>761.5</ele>
        <time>2017-12-15T19:43:07Z</time>
      </trkpt>
      <trkpt lat="44.87213" lon="5.8315">
        <ele>760.6</ele>
        <time>2017-12-15T19:43:27Z</time>
      </trkpt>
      <trkpt lat="44.87216" lon="5.83168">
        <ele>761.2</ele>
        <time>2017-12-15T19:43:33Z</time>
      </trkpt>
      <trkpt lat="44.87226" lon="5.83189">
        <ele>763.9</ele>
        <time>2017-12-15T19:43:52Z</time>
      </trkpt>
      <trkpt lat="44.87251" lon="5.83233">
        <ele>770.2</ele>
        <time>2017-12-15T19:44:09Z</time>
      </trkpt>
      <trkpt lat="44.87279" lon="5.83296">
        <ele>775.7</ele>
        <time>2017-12-15T19:44:16Z</time>
      </trkpt>
      <trkpt lat="44.87284" lon="5.83322">
        <ele>776</ele>
        <time>2017-12-15T19:44:36Z</time>
      </trkpt>
      <trkpt lat="44.87284" lon="5.83365">
        <ele>774.6</ele>
        <time>2017-12-15T19:44:44Z</time>
      </trkpt>
      <trkpt lat="44.87286" lon="5.834">
        <ele>778.7</ele>
        <time>2017-12-15T19:44:47Z</time>
      </trkpt>
      <trkpt lat="44.87284" lon="5.83411">
        <ele>781.3</ele>
        <time>2017-12-15T19:44:53Z</time>
      </trkpt>
      <trkpt lat="44.87279" lon="5.83418">
        <ele>783.4</ele>
        <time>2017-12-15T19:45:11Z</time>
      </trkpt>
      <trkpt lat="44.87272" lon="5.83422">
        <ele>786.8</ele>
        <time>2017-12-15T19:45:30Z</time>
      </trkpt>
      <trkpt lat="44.87264" lon="5.8342">
        <ele>788.6</ele>
        <time>2017-12-15T19:45:48Z</time>
      </trkpt>
      <trkpt lat="44.87249" lon="5.83404">
        <ele>787.7</ele>
        <time>2017-12-15T19:46:07Z</time>
      </trkpt>
      <trkpt lat="44.87232" lon="5.83375">
        <ele>781.5</ele>
        <time>2017-12-15T19:46:21Z</time>
      </trkpt>
      <trkpt lat="44.87215" lon="5.83361">
        <ele>779.3</ele>
        <time>2017-12-15T19:46:26Z</time>
      </trkpt>
      <trkpt lat="44.87201" lon="5.83349">
        <ele>776.3</ele>
        <time>2017-12-15T19:46:34Z</time>
      </trkpt>
      <trkpt lat="44.87191" lon="5.83342">
        <ele>774.5</ele>
        <time>2017-12-15T19:46:45Z</time>
      </trkpt>
      <trkpt lat="44.87186" lon="5.83342">
        <ele>775.2</ele>
        <time>2017-12-15T19:47:03Z</time>
      </trkpt>
      <trkpt lat="44.87164" lon="5.83346">
        <ele>779.5</ele>
        <time>2017-12-15T19:47:05Z</time>
      </trkpt>
      <trkpt lat="44.87124" lon="5.83352">
        <ele>781.1</ele>
        <time>2017-12-15T19:47:14Z</time>
      </trkpt>
      <trkpt lat="44.87113" lon="5.83358">
        <ele>782.2</ele>
        <time>2017-12-15T19:47:17Z</time>
      </trkpt>
      <trkpt lat="44.87101" lon="5.83371">
        <ele>783.7</ele>
        <time>2017-12-15T19:47:28Z</time>
      </trkpt>
      <trkpt lat="44.87086" lon="5.83394">
        <ele>786.6</ele>
        <time>2017-12-15T19:47:44Z</time>
      </trkpt>
      <trkpt lat="44.87076" lon="5.83403">
        <ele>786.9</ele>
        <time>2017-12-15T19:47:50Z</time>
      </trkpt>
      <trkpt lat="44.8705" lon="5.83424">
        <ele>788</ele>
        <time>2017-12-15T19:48:01Z</time>
      </trkpt>
      <trkpt lat="44.87013" lon="5.83468">
        <ele>789.5</ele>
        <time>2017-12-15T19:48:16Z</time>
      </trkpt>
      <trkpt lat="44.87005" lon="5.83482">
        <ele>789.4</ele>
        <time>2017-12-15T19:48:30Z</time>
      </trkpt>
      <trkpt lat="44.87003" lon="5.83499">
        <ele>789.8</ele>
        <time>2017-12-15T19:48:45Z</time>
      </trkpt>
      <trkpt lat="44.87003" lon="5.8351">
        <ele>789.9</ele>
        <time>2017-12-15T19:49:04Z</time>
      </trkpt>
      <trkpt lat="44.87006" lon="5.83535">
        <ele>791.6</ele>
        <time>2017-12-15T19:49:19Z</time>
      </trkpt>
      <trkpt lat="44.87002" lon="5.83572">
        <ele>792.8</ele>
        <time>2017-12-15T19:49:26Z</time>
      </trkpt>
      <trkpt lat="44.87001" lon="5.83589">
        <ele>793.3</ele>
        <time>2017-12-15T19:49:38Z</time>
      </trkpt>
      <trkpt lat="44.87004" lon="5.83603">
        <ele>794.3</ele>
        <time>2017-12-15T19:49:54Z</time>
      </trkpt>
      <trkpt lat="44.87014" lon="5.83652">
        <ele>796.8</ele>
        <time>2017-12-15T19:50:10Z</time>
      </trkpt>
      <trkpt lat="44.87015" lon="5.83673">
        <ele>796.9</ele>
        <time>2017-12-15T19:50:18Z</time>
      </trkpt>
      <trkpt lat="44.87013" lon="5.83701">
        <ele>796.7</ele>
        <time>2017-12-15T19:50:33Z</time>
      </trkpt>
      <trkpt lat="44.87007" lon="5.83733">
        <ele>796.9</ele>
        <time>2017-12-15T19:50:45Z</time>
      </trkpt>
      <trkpt lat="44.87003" lon="5.83765">
        <ele>797.9</ele>
        <time>2017-12-15T19:51:01Z</time>
      </trkpt>
      <trkpt lat="44.87002" lon="5.83804">
        <ele>801.3</ele>
        <time>2017-12-15T19:51:09Z</time>
      </trkpt>
      <trkpt lat="44.87003" lon="5.8383">
        <ele>804.4</ele>
        <time>2017-12-15T19:51:29Z</time>
      </trkpt>
      <trkpt lat="44.87" lon="5.83846">
        <ele>805.8</ele>
        <time>2017-12-15T19:51:42Z</time>
      </trkpt>
      <trkpt lat="44.86992" lon="5.83859">
        <ele>805.4</ele>
        <time>2017-12-15T19:51:50Z</time>
      </trkpt>
      <trkpt lat="44.86976" lon="5.83875">
        <ele>802.7</ele>
        <time>2017-12-15T19:52:04Z</time>
      </trkpt>
      <trkpt lat="44.8697" lon="5.83886">
        <ele>801.6</ele>
        <time>2017-12-15T19:52:07Z</time>
      </trkpt>
      <trkpt lat="44.86968" lon="5.839">
        <ele>802</ele>
        <time>2017-12-15T19:52:13Z</time>
      </trkpt>
      <trkpt lat="44.8697" lon="5.83936">
        <ele>806.8</ele>
        <time>2017-12-15T19:52:23Z</time>
      </trkpt>
      <trkpt lat="44.86965" lon="5.83994">
        <ele>808.4</ele>
        <time>2017-12-15T19:52:27Z</time>
      </trkpt>
      <trkpt lat="44.86961" lon="5.8404">
        <ele>809.8</ele>
        <time>2017-12-15T19:52:41Z</time>
      </trkpt>
      <trkpt lat="44.8696" lon="5.84083">
        <ele>811.8</ele>
        <time>2017-12-15T19:52:58Z</time>
      </trkpt>
      <trkpt lat="44.86958" lon="5.84114">
        <ele>814.8</ele>
        <time>2017-12-15T19:53:18Z</time>
      </trkpt>
      <trkpt lat="44.86948" lon="5.84144">
        <ele>815.6</ele>
        <time>2017-12-15T19:53:35Z</time>
      </trkpt>
      <trkpt lat="44.86926" lon="5.84182">
        <ele>817.1</ele>
        <time>2017-12-15T19:53:52Z</time>
      </trkpt>
      <trkpt lat="44.86907" lon="5.84204">
        <ele>816.8</ele>
        <time>2017-12-15T19:54:08Z</time>
      </trkpt>
      <trkpt lat="44.86877" lon="5.84234">
        <ele>816.5</ele>
        <time>2017-12-15T19:54:18Z</time>
      </trkpt>
      <trkpt lat="44.86861" lon="5.84255">
        <ele>816.9</ele>
        <time>2017-12-15T19:54:37Z</time>
      </trkpt>
      <trkpt lat="44.86856" lon="5.84268">
        <ele>818.1</ele>
        <time>2017-12-15T19:54:44Z</time>
      </trkpt>
      <trkpt lat="44.86857" lon="5.84281">
        <ele>820.1</ele>
        <time>2017-12-15T19:54:48Z</time>
      </trkpt>
      <trkpt lat="44.86874" lon="5.84322">
        <ele>823.9</ele>
        <time>2017-12-15T19:55:05Z</time>
      </trkpt>
      <trkpt lat="44.86878" lon="5.84345">
        <ele>824.3</ele>
        <time>2017-12-15T19:55:15Z</time>
      </trkpt>
      <trkpt lat="44.86879" lon="5.84375">
        <ele>824.1</ele>
        <time>2017-12-15T19:55:24Z</time>
      </trkpt>
      <trkpt lat="44.86878" lon="5.84395">
        <ele>824</ele>
        <time>2017-12-15T19:55:42Z</time>
      </trkpt>
      <trkpt lat="44.86883" lon="5.84408">
        <ele>825.1</ele>
        <time>2017-12-15T19:55:50Z</time>
      </trkpt>
      <trkpt lat="44.86878" lon="5.84426">
        <ele>824.9</ele>
        <time>2017-12-15T19:56:03Z</time>
      </trkpt>
      <trkpt lat="44.86876" lon="5.84431">
        <ele>824.6</ele>
        <time>2017-12-15T19:56:21Z</time>
      </trkpt>
      <trkpt lat="44.86878" lon="5.84432">
        <ele>824.9</ele>
        <time>2017-12-15T19:56:41Z</time>
      </trkpt>
      <trkpt lat="44.8688" lon="5.84434">
        <ele>825.3</ele>
        <time>2017-12-15T19:56:55Z</time>
      </trkpt>
      <trkpt lat="44.86881" lon="5.84437">
        <ele>825.5</ele>
        <time>2017-12-15T19:57:12Z</time>
      </trkpt>
      <trkpt lat="44.86881" lon="5.84442">
        <ele>825.5</ele>
        <time>2017-12-15T19:57:32Z</time>
      </trkpt>
      <trkpt lat="44.86876" lon="5.8446">
        <ele>825.5</ele>
        <time>2017-12-15T19:57:42Z</time>
      </trkpt>
      <trkpt lat="44.86868" lon="5.84485">
        <ele>824.9</ele>
        <time>2017-12-15T19:57:51Z</time>
      </trkpt>
      <trkpt lat="44.86862" lon="5.84512">
        <ele>824.6</ele>
        <time>2017-12-15T19:58:09Z</time>
      </trkpt>
      <trkpt lat="44.86857" lon="5.84549">
        <ele>824.9</ele>
        <time>2017-12-15T19:58:12Z</time>
      </trkpt>
      <trkpt lat="44.86859" lon="5.84582">
        <ele>825.5</ele>
        <time>2017-12-15T19:58:17Z</time>
      </trkpt>
      <trkpt lat="44.86866" lon="5.84618">
        <ele>827.2</ele>
        <time>2017-12-15T19:58:37Z</time>
      </trkpt>
      <trkpt lat="44.86871" lon="5.84663">
        <ele>829.4</ele>
        <time>2017-12-15T19:58:57Z</time>
      </trkpt>
      <trkpt lat="44.86872" lon="5.84709">
        <ele>832.2</ele>
        <time>2017-12-15T19:59:01Z</time>
      </trkpt>
      <trkpt lat="44.86868" lon="5.84743">
        <ele>832.5</ele>
        <time>2017-12-15T19:59:07Z</time>
      </trkpt>
      <trkpt lat="44.86847" lon="5.8485">
        <ele>838.9</ele>
        <time>2017-12-15T19:59:10Z</time>
      </trkpt>
      <trkpt lat="44.86838" lon="5.84872">
        <ele>839.4</ele>
        <time>2017-12-15T19:59:14Z</time>
      </trkpt>
      <trkpt lat="44.86825" lon="5.84898">
        <ele>839.3</ele>
        <time>2017-12-15T19:59:21Z</time>
      </trkpt>
      <trkpt lat="44.86815" lon="5.84921">
        <ele>839.2</ele>
        <time>2017-12-15T19:59:28Z</time>
      </trkpt>
      <trkpt lat="44.86796" lon="5.84999">
        <ele>842</ele>
        <time>2017-12-15T19:59:43Z</time>
      </trkpt>
      <trkpt lat="44.86796" lon="5.85">
        <ele>842.2</ele>
        <time>2017-12-15T20:00:02Z</time>
      </trkpt>
      <trkpt lat="44.86782" lon="5.85089">
        <ele>843.7</ele>
        <time>2017-12-15T20:00:11Z</time>
      </trkpt>
      <trkpt lat="44.86778" lon="5.85144">
        <ele>844.1</ele>
        <time>2017-12-15T20:00:22Z</time>
      </trkpt>
      <trkpt lat="44.86781" lon="5.85171">
        <ele>845.4</ele>
        <time>2017-12-15T20:00:29Z</time>
      </trkpt>
      <trkpt lat="44.86793" lon="5.85215">
        <ele>848.2</ele>
        <time>2017-12-15T20:00:36Z</time>
      </trkpt>
      <trkpt lat="44.86797" lon="5.85238">
        <ele>848.3</ele>
        <time>2017-12-15T20:00:45Z</time>
      </trkpt>
      <trkpt lat="44.86799" lon="5.85311">
        <ele>858.5</ele>
        <time>2017-12-15T20:01:03Z</time>
      </trkpt>
      <trkpt lat="44.86795" lon="5.85334">
        <ele>862.2</ele>
        <time>2017-12-15T20:01:07Z</time>
      </trkpt>
      <trkpt lat="44.86789" lon="5.85347">
        <ele>863</ele>
        <time>2017-12-15T20:01:21Z</time>
      </trkpt>
      <trkpt lat="44.86771" lon="5.85372">
        <ele>861.9</ele>
        <time>2017-12-15T20:01:41Z</time>
      </trkpt>
      <trkpt lat="44.86751" lon="5.85409">
        <ele>864.2</ele>
        <time>2017-12-15T20:02:01Z</time>
      </trkpt>
      <trkpt lat="44.86743" lon="5.85421">
        <ele>864.8</ele>
        <time>2017-12-15T20:02:05Z</time>
      </trkpt>
      <trkpt lat="44.86728" lon="5.85433">
        <ele>862.5</ele>
        <time>2017-12-15T20:02:14Z</time>
      </trkpt>
      <trkpt lat="44.86708" lon="5.85445">
        <ele>859.5</ele>
        <time>2017-12-15T20:02:28Z</time>
      </trkpt>
      <trkpt lat="44.867" lon="5.85454">
        <ele>859.5</ele>
        <time>2017-12-15T20:02:46Z</time>
      </trkpt>
      <trkpt lat="44.86695" lon="5.8547">
        <ele>861.7</ele>
        <time>2017-12-15T20:02:59Z</time>
      </trkpt>
      <trkpt lat="44.86692" lon="5.85502">
        <ele>866.7</ele>
        <time>2017-12-15T20:03:06Z</time>
      </trkpt>
      <trkpt lat="44.86686" lon="5.85536">
        <ele>871.3</ele>
        <time>2017-12-15T20:03:12Z</time>
      </trkpt>
      <trkpt lat="44.86676" lon="5.85557">
        <ele>872.3</ele>
        <time>2017-12-15T20:03:29Z</time>
      </trkpt>
      <trkpt lat="44.86637" lon="5.85607">
        <ele>869.6</ele>
        <time>2017-12-15T20:03:49Z</time>
      </trkpt>
      <trkpt lat="44.86628" lon="5.85627">
        <ele>869.4</ele>
        <time>2017-12-15T20:04:01Z</time>
      </trkpt>
      <trkpt lat="44.86623" lon="5.85655">
        <ele>871.3</ele>
        <time>2017-12-15T20:04:03Z</time>
      </trkpt>
      <trkpt lat="44.86621" lon="5.85729">
        <ele>876.4</ele>
        <time>2017-12-15T20:04:23Z</time>
      </trkpt>
      <trkpt lat="44.86622" lon="5.85761">
        <ele>877.4</ele>
        <time>2017-12-15T20:04:40Z</time>
      </trkpt>
      <trkpt lat="44.86627" lon="5.85779">
        <ele>879</ele>
        <time>2017-12-15T20:04:44Z</time>
      </trkpt>
      <trkpt lat="44.86636" lon="5.85796">
        <ele>880.1</ele>
        <time>2017-12-15T20:05:02Z</time>
      </trkpt>
      <trkpt lat="44.86649" lon="5.85807">
        <ele>880.9</ele>
        <time>2017-12-15T20:05:14Z</time>
      </trkpt>
      <trkpt lat="44.86668" lon="5.8581">
        <ele>882.2</ele>
        <time>2017-12-15T20:05:18Z</time>
      </trkpt>
      <trkpt lat="44.86728" lon="5.85802">
        <ele>886.9</ele>
        <time>2017-12-15T20:05:23Z</time>
      </trkpt>
      <trkpt lat="44.86749" lon="5.85803">
        <ele>887.6</ele>
        <time>2017-12-15T20:05:41Z</time>
      </trkpt>
      <trkpt lat="44.86908" lon="5.85834">
        <ele>901.4</ele>
        <time>2017-12-15T20:05:52Z</time>
      </trkpt>
      <trkpt lat="44.86929" lon="5.85839">
        <ele>905.1</ele>
        <time>2017-12-15T20:05:57Z</time>
      </trkpt>
      <trkpt lat="44.86942" lon="5.85849">
        <ele>907.3</ele>
        <time>2017-12-15T20:06:16Z</time>
      </trkpt>
      <trkpt lat="44.8695" lon="5.85866">
        <ele>908.1</ele>
        <time>2017-12-15T20:06:18Z</time>
      </trkpt>
      <trkpt lat="44.86952" lon="5.85888">
        <ele>907.5</ele>
        <time>2017-12-15T20:06:21Z</time>
      </trkpt>
      <trkpt lat="44.86942" lon="5.85985">
        <ele>907.9</ele>
        <time>2017-12-15T20:06:27Z</time>
      </trkpt>
      <trkpt lat="44.86934" lon="5.86033">
        <ele>906.5</ele>
        <time>2017-12-15T20:06:32Z</time>
      </trkpt>
      <trkpt lat="44.86934" lon="5.86065">
        <ele>905.5</ele>
        <time>2017-12-15T20:06:43Z</time>
      </trkpt>
      <trkpt lat="44.86938" lon="5.86084">
        <ele>905.1</ele>
        <time>2017-12-15T20:07:03Z</time>
      </trkpt>
      <trkpt lat="44.8695" lon="5.86105">
        <ele>905.3</ele>
        <time>2017-12-15T20:07:06Z</time>
      </trkpt>
      <trkpt lat="44.86968" lon="5.86122">
        <ele>907.3</ele>
        <time>2017-12-15T20:07:22Z</time>
      </trkpt>
      <trkpt lat="44.86985" lon="5.86134">
        <ele>908.2</ele>
        <time>2017-12-15T20:07:42Z</time>
      </trkpt>
      <trkpt lat="44.87" lon="5.86138">
        <ele>910.3</ele>
        <time>2017-12-15T20:07:50Z</time>
      </trkpt>
      <trkpt lat="44.87036" lon="5.86139">
        <ele>913.9</ele>
        <time>2017-12-15T20:07:53Z</time>
      </trkpt>
      <trkpt lat="44.87071" lon="5.86138">
        <ele>918</ele>
        <time>2017-12-15T20:08:11Z</time>
      </trkpt>
      <trkpt lat="44.8712" lon="5.86131">
        <ele>925.8</ele>
        <time>2017-12-15T20:08:19Z</time>
      </trkpt>
      <trkpt lat="44.87153" lon="5.8613">
        <ele>929.7</ele>
        <time>2017-12-15T20:08:29Z</time>
      </trkpt>
      <trkpt lat="44.87183" lon="5.86139">
        <ele>930.3</ele>
        <time>2017-12-15T20:08:40Z</time>
      </trkpt>
      <trkpt lat="44.87208" lon="5.86158">
        <ele>928.1</ele>
        <time>2017-12-15T20:08:42Z</time>
      </trkpt>
      <trkpt lat="44.8723" lon="5.86169">
        <ele>928.2</ele>
        <time>2017-12-15T20:08:48Z</time>
      </trkpt>
      <trkpt lat="44.87249" lon="5.86178">
        <ele>930</ele>
        <time>2017-12-15T20:09:06Z</time>
      </trkpt>
      <trkpt lat="44.87276" lon="5.862">
        <ele>932</ele>
        <time>2017-12-15T20:09:19Z</time>
      </trkpt>
      <trkpt lat="44.87294" lon="5.86209">
        <ele>935.2</ele>
        <time>2017-12-15T20:09:24Z</time>
      </trkpt>
      <trkpt lat="44.87315" lon="5.86214">
        <ele>939.4</ele>
        <time>2017-12-15T20:09:39Z</time>
      </trkpt>
      <trkpt lat="44.87324" lon="5.86223">
        <ele>940</ele>
        <time>2017-12-15T20:09:53Z</time>
      </trkpt>
      <trkpt lat="44.87326" lon="5.86235">
        <ele>940.9</ele>
        <time>2017-12-15T20:10:07Z</time>
      </trkpt>
      <trkpt lat="44.87323" lon="5.86246">
        <ele>941</ele>
        <time>2017-12-15T20:10:12Z</time>
      </trkpt>
      <trkpt lat="44.87316" lon="5.86254">
        <ele>941.9</ele>
        <time>2017-12-15T20:10:14Z</time>
      </trkpt>
      <trkpt lat="44.87305" lon="5.86259">
        <ele>942.5</ele>
        <time>2017-12-15T20:10:25Z</time>
      </trkpt>
      <trkpt lat="44.87236" lon="5.86286">
        <ele>947.4</ele>
        <time>2017-12-15T20:10:38Z</time>
      </trkpt>
      <trkpt lat="44.87211" lon="5.86302">
        <ele>949.3</ele>
        <time>2017-12-15T20:10:48Z</time>
      </trkpt>
      <trkpt lat="44.87182" lon="5.86331">
        <ele>951.7</ele>
        <time>2017-12-15T20:10:54Z</time>
      </trkpt>
      <trkpt lat="44.87158" lon="5.86359">
        <ele>952.9</ele>
        <time>2017-12-15T20:11:13Z</time>
      </trkpt>
      <trkpt lat="44.87132" lon="5.86399">
        <ele>956.4</ele>
        <time>2017-12-15T20:11:30Z</time>
      </trkpt>
      <trkpt lat="44.87104" lon="5.86448">
        <ele>960.1</ele>
        <time>2017-12-15T20:11:50Z</time>
      </trkpt>
      <trkpt lat="44.87084" lon="5.86488">
        <ele>961.7</ele>
        <time>2017-12-15T20:11:56Z</time>
      </trkpt>
      <trkpt lat="44.87061" lon="5.86597">
        <ele>973.5</ele>
        <time>2017-12-15T20:12:09Z</time>
      </trkpt>
      <trkpt lat="44.87049" lon="5.86632">
        <ele>976.7</ele>
        <time>2017-12-15T20:12:17Z</time>
      </trkpt>
      <trkpt lat="44.87039" lon="5.86654">
        <ele>978.6</ele>
        <time>2017-12-15T20:12:23Z</time>
      </trkpt>
      <trkpt lat="44.87026" lon="5.86677">
        <ele>980.6</ele>
        <time>2017-12-15T20:12:39Z</time>
      </trkpt>
      <trkpt lat="44.87017" lon="5.86689">
        <ele>982.4</ele>
        <time>2017-12-15T20:12:53Z</time>
      </trkpt>
      <trkpt lat="44.87006" lon="5.86697">
        <ele>983</ele>
        <time>2017-12-15T20:13:01Z</time>
      </trkpt>
      <trkpt lat="44.86996" lon="5.86699">
        <ele>982.2</ele>
        <time>2017-12-15T20:13:13Z</time>
      </trkpt>
      <trkpt lat="44.86971" lon="5.86699">
        <ele>979.5</ele>
        <time>2017-12-15T20:13:24Z</time>
      </trkpt>
      <trkpt lat="44.86957" lon="5.86705">
        <ele>979.4</ele>
        <time>2017-12-15T20:13:39Z</time>
      </trkpt>
      <trkpt lat="44.86939" lon="5.86721">
        <ele>981.2</ele>
        <time>2017-12-15T20:13:57Z</time>
      </trkpt>
      <trkpt lat="44.86923" lon="5.86744">
        <ele>985.4</ele>
        <time>2017-12-15T20:14:17Z</time>
      </trkpt>
      <trkpt lat="44.86913" lon="5.8676">
        <ele>988.8</ele>
        <time>2017-12-15T20:14:34Z</time>
      </trkpt>
      <trkpt lat="44.86855" lon="5.86819">
        <ele>991.5</ele>
        <time>2017-12-15T20:14:47Z</time>
      </trkpt>
      <trkpt lat="44.86796" lon="5.86896">
        <ele>999.1</ele>
        <time>2017-12-15T20:14:57Z</time>
      </trkpt>
      <trkpt lat="44.86775" lon="5.86931">
        <ele>1000.9</ele>
        <time>2017-12-15T20:15:14Z</time>
      </trkpt>
      <trkpt lat="44.86762" lon="5.86967">
        <ele>1002</ele>
        <time>2017-12-15T20:15:19Z</time>
      </trkpt>
      <trkpt lat="44.86759" lon="5.86997">
        <ele>1003.8</ele>
        <time>2017-12-15T20:15:33Z</time>
      </trkpt>
      <trkpt lat="44.86767" lon="5.87061">
        <ele>1006.5</ele>
        <time>2017-12-15T20:15:51Z</time>
      </trkpt>
      <trkpt lat="44.86774" lon="5.87077">
        <ele>1005.3</ele>
        <time>2017-12-15T20:16:07Z</time>
      </trkpt>
      <trkpt lat="44.8679" lon="5.87089">
        <ele>1007.3</ele>
        <time>2017-12-15T20:16:23Z</time>
      </trkpt>
      <trkpt lat="44.86823" lon="5.87108">
        <ele>1012.7</ele>
        <time>2017-12-15T20:16:42Z</time>
      </trkpt>
      <trkpt lat="44.86858" lon="5.87143">
        <ele>1015.8</ele>
        <time>2017-12-15T20:16:52Z</time>
      </trkpt>
      <trkpt lat="44.86887" lon="5.87189">
        <ele>1021.2</ele>
        <time>2017-12-15T20:17:06Z</time>
      </trkpt>
      <trkpt lat="44.869" lon="5.87216">
        <ele>1026.3</ele>
        <time>2017-12-15T20:17:21Z</time>
      </trkpt>
      <trkpt lat="44.86907" lon="5.87239">
        <ele>1027.7</ele>
        <time>2017-12-15T20:17:32Z</time>
      </trkpt>
      <trkpt lat="44.86914" lon="5.87278">
        <ele>1028.7</ele>
        <time>2017-12-15T20:17:37Z</time>
      </trkpt>
      <trkpt lat="44.86918" lon="5.87357">
        <ele>1033.1</ele>
        <time>2017-12-15T20:17:41Z</time>
      </trkpt>
      <trkpt lat="44.86918" lon="5.87375">
        <ele>1034.3</ele>
        <time>2017-12-15T20:17:45Z</time>
      </trkpt>
      <trkpt lat="44.86913" lon="5.87387">
        <ele>1032.5</ele>
        <time>2017-12-15T20:17:59Z</time>
      </trkpt>
      <trkpt lat="44.86906" lon="5.87395">
        <ele>1032.5</ele>
        <time>2017-12-15T20:18:14Z</time>
      </trkpt>
      <trkpt lat="44.86897" lon="5.87397">
        <ele>1030.8</ele>
        <time>2017-12-15T20:18:18Z</time>
      </trkpt>
      <trkpt lat="44.86883" lon="5.87394">
        <ele>1026.3</ele>
        <time>2017-12-15T20:18:31Z</time>
      </trkpt>
      <trkpt lat="44.86869" lon="5.87394">
        <ele>1024.9</ele>
        <time>2017-12-15T20:18:47Z</time>
      </trkpt>
      <trkpt lat="44.86859" lon="5.874">
        <ele>1027.2</ele>
        <time>2017-12-15T20:18:56Z</time>
      </trkpt>
      <trkpt lat="44.86852" lon="5.87409">
        <ele>1030.3</ele>
        <time>2017-12-15T20:19:09Z</time>
      </trkpt>
      <trkpt lat="44.86801" lon="5.87512">
        <ele>1046.7</ele>
        <time>2017-12-15T20:19:16Z</time>
      </trkpt>
      <trkpt lat="44.86797" lon="5.87533">
        <ele>1047.5</ele>
        <time>2017-12-15T20:19:27Z</time>
      </trkpt>
      <trkpt lat="44.86798" lon="5.87565">
        <ele>1050.9</ele>
        <time>2017-12-15T20:19:34Z</time>
      </trkpt>
      <trkpt lat="44.86798" lon="5.87581">
        <ele>1052.5</ele>
        <time>2017-12-15T20:19:52Z</time>
      </trkpt>
      <trkpt lat="44.8679" lon="5.87627">
        <ele>1055.1</ele>
        <time>2017-12-15T20:20:09Z</time>
      </trkpt>
      <trkpt lat="44.86772" lon="5.87696">
        <ele>1059</ele>
        <time>2017-12-15T20:20:25Z</time>
      </trkpt>
      <trkpt lat="44.86763" lon="5.87734">
        <ele>1060.2</ele>
        <time>2017-12-15T20:20:30Z</time>
      </trkpt>
      <trkpt lat="44.8676" lon="5.87763">
        <ele>1061.2</ele>
        <time>2017-12-15T20:20:39Z</time>
      </trkpt>
      <trkpt lat="44.8676" lon="5.87791">
        <ele>1061.1</ele>
        <time>2017-12-15T20:20:41Z</time>
      </trkpt>
      <trkpt lat="44.86763" lon="5.87802">
        <ele>1062.3</ele>
        <time>2017-12-15T20:20:47Z</time>
      </trkpt>
      <trkpt lat="44.86775" lon="5.87824">
        <ele>1065.5</ele>
        <time>2017-12-15T20:21:03Z</time>
      </trkpt>
      <trkpt lat="44.86786" lon="5.87849">
        <ele>1069</ele>
        <time>2017-12-15T20:21:18Z</time>
      </trkpt>
      <trkpt lat="44.86789" lon="5.87863">
        <ele>1069.4</ele>
        <time>2017-12-15T20:21:25Z</time>
      </trkpt>
      <trkpt lat="44.86792" lon="5.87894">
        <ele>1069</ele>
        <time>2017-12-15T20:21:44Z</time>
      </trkpt>
      <trkpt lat="44.86797" lon="5.87906">
        <ele>1069.7</ele>
        <time>2017-12-15T20:21:57Z</time>
      </trkpt>
      <trkpt lat="44.86805" lon="5.87921">
        <ele>1071.1</ele>
        <time>2017-12-15T20:22:04Z</time>
      </trkpt>
      <trkpt lat="44.86828" lon="5.87954">
        <ele>1077.7</ele>
        <time>2017-12-15T20:22:12Z</time>
      </trkpt>
      <trkpt lat="44.86838" lon="5.87971">
        <ele>1079.9</ele>
        <time>2017-12-15T20:22:16Z</time>
      </trkpt>
      <trkpt lat="44.86841" lon="5.8798">
        <ele>1082</ele>
        <time>2017-12-15T20:22:20Z</time>
      </trkpt>
      <trkpt lat="44.86842" lon="5.87996">
        <ele>1083.1</ele>
        <time>2017-12-15T20:22:31Z</time>
      </trkpt>
      <trkpt lat="44.86841" lon="5.88004">
        <ele>1083.2</ele>
        <time>2017-12-15T20:22:46Z</time>
      </trkpt>
      <trkpt lat="44.86826" lon="5.8804">
        <ele>1082.1</ele>
        <time>2017-12-15T20:22:53Z</time>
      </trkpt>
      <trkpt lat="44.86799" lon="5.881">
        <ele>1084.4</ele>
        <time>2017-12-15T20:23:06Z</time>
      </trkpt>
      <trkpt lat="44.8679" lon="5.88126">
        <ele>1086</ele>
        <time>2017-12-15T20:23:14Z</time>
      </trkpt>
      <trkpt lat="44.86782" lon="5.88158">
        <ele>1088.3</ele>
        <time>2017-12-15T20:23:33Z</time>
      </trkpt>
      <trkpt lat="44.86765" lon="5.88246">
        <ele>1094.2</ele>
        <time>2017-12-15T20:23:42Z</time>
      </trkpt>
      <trkpt lat="44.86758" lon="5.88317">
        <ele>1098.7</ele>
        <time>2017-12-15T20:23:53Z</time>
      </trkpt>
      <trkpt lat="44.86755" lon="5.8844">
        <ele>1102.3</ele>
        <time>2017-12-15T20:23:59Z</time>
      </trkpt>
      <trkpt lat="44.86758" lon="5.88456">
        <ele>1101.5</ele>
        <time>2017-12-15T20:24:18Z</time>
      </trkpt>
      <trkpt lat="44.86764" lon="5.88471">
        <ele>1101.9</ele>
        <time>2017-12-15T20:24:30Z</time>
      </trkpt>
      <trkpt lat="44.86785" lon="5.88496">
        <ele>1108.9</ele>
        <time>2017-12-15T20:24:48Z</time>
      </trkpt>
      <trkpt lat="44.86793" lon="5.88508">
        <ele>1112.9</ele>
        <time>2017-12-15T20:25:03Z</time>
      </trkpt>
      <trkpt lat="44.86795" lon="5.88524">
        <ele>1114.2</ele>
        <time>2017-12-15T20:25:13Z</time>
      </trkpt>
      <trkpt lat="44.86794" lon="5.88534">
        <ele>1115.4</ele>
        <time>2017-12-15T20:25:22Z</time>
      </trkpt>
      <trkpt lat="44.86771" lon="5.88592">
        <ele>1118.5</ele>
        <time>2017-12-15T20:25:38Z</time>
      </trkpt>
      <trkpt lat="44.86756" lon="5.88627">
        <ele>1120.7</ele>
        <time>2017-12-15T20:25:52Z</time>
      </trkpt>
      <trkpt lat="44.86733" lon="5.88684">
        <ele>1122.6</ele>
        <time>2017-12-15T20:26:06Z</time>
      </trkpt>
      <trkpt lat="44.86723" lon="5.88729">
        <ele>1128.7</ele>
        <time>2017-12-15T20:26:17Z</time>
      </trkpt>
      <trkpt lat="44.86718" lon="5.88747">
        <ele>1131.6</ele>
        <time>2017-12-15T20:26:19Z</time>
      </trkpt>
      <trkpt lat="44.86709" lon="5.88763">
        <ele>1132.3</ele>
        <time>2017-12-15T20:26:33Z</time>
      </trkpt>
      <trkpt lat="44.86688" lon="5.88782">
        <ele>1128.5</ele>
        <time>2017-12-15T20:26:38Z</time>
      </trkpt>
      <trkpt lat="44.86677" lon="5.88798">
        <ele>1129</ele>
        <time>2017-12-15T20:26:41Z</time>
      </trkpt>
      <trkpt lat="44.8666" lon="5.8884">
        <ele>1133.6</ele>
        <time>2017-12-15T20:26:47Z</time>
      </trkpt>
      <trkpt lat="44.8664" lon="5.88898">
        <ele>1141.2</ele>
        <time>2017-12-15T20:26:50Z</time>
      </trkpt>
      <trkpt lat="44.86624" lon="5.88949">
        <ele>1143</ele>
        <time>2017-12-15T20:27:05Z</time>
      </trkpt>
      <trkpt lat="44.86616" lon="5.88994">
        <ele>1143</ele>
        <time>2017-12-15T20:27:18Z</time>
      </trkpt>
      <trkpt lat="44.86615" lon="5.89013">
        <ele>1142.5</ele>
        <time>2017-12-15T20:27:28Z</time>
      </trkpt>
      <trkpt lat="44.86616" lon="5.8904">
        <ele>1141.3</ele>
        <time>2017-12-15T20:27:48Z</time>
      </trkpt>
      <trkpt lat="44.86622" lon="5.89076">
        <ele>1141.4</ele>
        <time>2017-12-15T20:27:56Z</time>
      </trkpt>
      <trkpt lat="44.86643" lon="5.89144">
        <ele>1146.2</ele>
        <time>2017-12-15T20:28:15Z</time>
      </trkpt>
      <trkpt lat="44.86657" lon="5.8918">
        <ele>1146.2</ele>
        <time>2017-12-15T20:28:32Z</time>
      </trkpt>
      <trkpt lat="44.86672" lon="5.89203">
        <ele>1147.6</ele>
        <time>2017-12-15T20:28:39Z</time>
      </trkpt>
      <trkpt lat="44.86687" lon="5.89213">
        <ele>1150.2</ele>
        <time>2017-12-15T20:28:59Z</time>
      </trkpt>
      <trkpt lat="44.86714" lon="5.89228">
        <ele>1155.4</ele>
        <time>2017-12-15T20:29:13Z</time>
      </trkpt>
      <trkpt lat="44.86722" lon="5.89236">
        <ele>1156</ele>
        <time>2017-12-15T20:29:32Z</time>
      </trkpt>
      <trkpt lat="44.86749" lon="5.89274">
        <ele>1156.5</ele>
        <time>2017-12-15T20:29:41Z</time>
      </trkpt>
      <trkpt lat="44.8678" lon="5.89316">
        <ele>1157.4</ele>
        <time>2017-12-15T20:29:57Z</time>
      </trkpt>
      <trkpt lat="44.86792" lon="5.89326">
        <ele>1158.1</ele>
        <time>2017-12-15T20:30:14Z</time>
      </trkpt>
      <trkpt lat="44.86807" lon="5.89334">
        <ele>1159.1</ele>
        <time>2017-12-15T20:30:31Z</time>
      </trkpt>
      <trkpt lat="44.8683" lon="5.89341">
        <ele>1162.1</ele>
        <time>2017-12-15T20:30:51Z</time>
      </trkpt>
      <trkpt lat="44.86873" lon="5.89354">
        <ele>1166.4</ele>
        <time>2017-12-15T20:30:55Z</time>
      </trkpt>
      <trkpt lat="44.86909" lon="5.89366">
        <ele>1171.5</ele>
        <time>2017-12-15T20:31:08Z</time>
      </trkpt>
      <trkpt lat="44.86918" lon="5.89375">
        <ele>1172.9</ele>
        <time>2017-12-15T20:31:11Z</time>
      </trkpt>
      <trkpt lat="44.86922" lon="5.89386">
        <ele>1172.9</ele>
        <time>2017-12-15T20:31:16Z</time>
      </trkpt>
      <trkpt lat="44.86922" lon="5.89396">
        <ele>1174.1</ele>
        <time>2017-12-15T20:31:18Z</time>
      </trkpt>
      <trkpt lat="44.86917" lon="5.89409">
        <ele>1175.4</ele>
        <time>2017-12-15T20:31:29Z</time>
      </trkpt>
      <trkpt lat="44.86906" lon="5.8942">
        <ele>1175.1</ele>
        <time>2017-12-15T20:31:46Z</time>
      </trkpt>
      <trkpt lat="44.86857" lon="5.89462">
        <ele>1176.1</ele>
        <time>2017-12-15T20:31:49Z</time>
      </trkpt>
      <trkpt lat="44.86834" lon="5.89492">
        <ele>1178.9</ele>
        <time>2017-12-15T20:32:09Z</time>
      </trkpt>
      <trkpt lat="44.86821" lon="5.89521">
        <ele>1181.2</ele>
        <time>2017-12-15T20:32:20Z</time>
      </trkpt>
      <trkpt lat="44.86807" lon="5.89575">
        <ele>1182.8</ele>
        <time>2017-12-15T20:32:36Z</time>
      </trkpt>
      <trkpt lat="44.86804" lon="5.89602">
        <ele>1183.2</ele>
        <time>2017-12-15T20:32:54Z</time>
      </trkpt>
      <trkpt lat="44.86805" lon="5.89662">
        <ele>1185.7</ele>
        <time>2017-12-15T20:33:10Z</time>
      </trkpt>
      <trkpt lat="44.86808" lon="5.89713">
        <ele>1189</ele>
        <time>2017-12-15T20:33:20Z</time>
      </trkpt>
      <trkpt lat="44.86813" lon="5.89748">
        <ele>1191.8</ele>
        <time>2017-12-15T20:33:34Z</time>
      </trkpt>
      <trkpt lat="44.86818" lon="5.898">
        <ele>1194</ele>
        <time>2017-12-15T20:33:42Z</time>
      </trkpt>
      <trkpt lat="44.86816" lon="5.89826">
        <ele>1194.8</ele>
        <time>2017-12-15T20:33:49Z</time>
      </trkpt>
      <trkpt lat="44.86807" lon="5.89882">
        <ele>1196.7</ele>
        <time>2017-12-15T20:34:01Z</time>
      </trkpt>
      <trkpt lat="44.86808" lon="5.89893">
        <ele>1197.5</ele>
        <time>2017-12-15T20:34:05Z</time>
      </trkpt>
      <trkpt lat="44.86814" lon="5.89907">
        <ele>1198.9</ele>
        <time>2017-12-15T20:34:18Z</time>
      </trkpt>
      <trkpt lat="44.86818" lon="5.89923">
        <ele>1199.9</ele>
        <time>2017-12-15T20:34:36Z</time>
      </trkpt>
      <trkpt lat="44.86813" lon="5.89952">
        <ele>1200.1</ele>
        <time>2017-12-15T20:34:47Z</time>
      </trkpt>
      <trkpt lat="44.86814" lon="5.89959">
        <ele>1200.4</ele>
        <time>2017-12-15T20:34:58Z</time>
      </trkpt>
      <trkpt lat="44.86818" lon="5.89971">
        <ele>1201.3</ele>
        <time>2017-12-15T20:35:14Z</time>
      </trkpt>
      <trkpt lat="44.86834" lon="5.89996">
        <ele>1202.2</ele>
        <time>2017-12-15T20:35:27Z</time>
      </trkpt>
      <trkpt lat="44.86861" lon="5.90062">
        <ele>1203.8</ele>
        <time>2017-12-15T20:35:42Z</time>
      </trkpt>
      <trkpt lat="44.86891" lon="5.90119">
        <ele>1204.6</ele>
        <time>2017-12-15T20:35:44Z</time>
      </trkpt>
      <trkpt lat="44.86924" lon="5.90173">
        <ele>1203.1</ele>
        <time>2017-12-15T20:35:58Z</time>
      </trkpt>
      <trkpt lat="44.86954" lon="5.9021">
        <ele>1203.1</ele>
        <time>2017-12-15T20:36:10Z</time>
      </trkpt>
      <trkpt lat="44.86961" lon="5.90223">
        <ele>1203.3</ele>
        <time>2017-12-15T20:36:20Z</time>
      </trkpt>
      <trkpt lat="44.86968" lon="5.90243">
        <ele>1202.9</ele>
        <time>2017-12-15T20:36:22Z</time>
      </trkpt>
      <trkpt lat="44.86994" lon="5.90374">
        <ele>1200.4</ele>
        <time>2017-12-15T20:36:29Z</time>
      </trkpt>
      <trkpt lat="44.87003" lon="5.90403">
        <ele>1200.5</ele>
        <time>2017-12-15T20:36:34Z</time>
      </trkpt>
      <trkpt lat="44.87016" lon="5.90433">
        <ele>1200.1</ele>
        <time>2017-12-15T20:36:42Z</time>
      </trkpt>
      <trkpt lat="44.87046" lon="5.90489">
        <ele>1200.3</ele>
        <time>2017-12-15T20:36:47Z</time>
      </trkpt>
      <trkpt lat="44.87053" lon="5.90506">
        <ele>1200.3</ele>
        <time>2017-12-15T20:36:54Z</time>
      </trkpt>
      <trkpt lat="44.87056" lon="5.90523">
        <ele>1200.3</ele>
        <time>2017-12-15T20:36:56Z</time>
      </trkpt>
      <trkpt lat="44.87055" lon="5.90531">
        <ele>1199.8</ele>
        <time>2017-12-15T20:37:01Z</time>
      </trkpt>
      <trkpt lat="44.87048" lon="5.90545">
        <ele>1199</ele>
        <time>2017-12-15T20:37:04Z</time>
      </trkpt>
      <trkpt lat="44.87037" lon="5.90557">
        <ele>1199.2</ele>
        <time>2017-12-15T20:37:17Z</time>
      </trkpt>
      <trkpt lat="44.87029" lon="5.9056">
        <ele>1199.8</ele>
        <time>2017-12-15T20:37:35Z</time>
      </trkpt>
      <trkpt lat="44.87019" lon="5.9056">
        <ele>1200.8</ele>
        <time>2017-12-15T20:37:42Z</time>
      </trkpt>
      <trkpt lat="44.86995" lon="5.90554">
        <ele>1201.9</ele>
        <time>2017-12-15T20:37:58Z</time>
      </trkpt>
      <trkpt lat="44.86982" lon="5.90555">
        <ele>1202.5</ele>
        <time>2017-12-15T20:38:00Z</time>
      </trkpt>
      <trkpt lat="44.86956" lon="5.90564">
        <ele>1204.6</ele>
        <time>2017-12-15T20:38:17Z</time>
      </trkpt>
      <trkpt lat="44.86938" lon="5.90577">
        <ele>1206.4</ele>
        <time>2017-12-15T20:38:31Z</time>
      </trkpt>
      <trkpt lat="44.86923" lon="5.90594">
        <ele>1207.6</ele>
        <time>2017-12-15T20:38:40Z</time>
      </trkpt>
      <trkpt lat="44.86879" lon="5.90661">
        <ele>1211.6</ele>
        <time>2017-12-15T20:38:45Z</time>
      </trkpt>
      <trkpt lat="44.86861" lon="5.90697">
        <ele>1213.3</ele>
        <time>2017-12-15T20:38:55Z</time>
      </trkpt>
      <trkpt lat="44.86839" lon="5.9075">
        <ele>1215.8</ele>
        <time>2017-12-15T20:39:03Z</time>
      </trkpt>
      <trkpt lat="44.86809" lon="5.90825">
        <ele>1216</ele>
        <time>2017-12-15T20:39:09Z</time>
      </trkpt>
      <trkpt lat="44.86802" lon="5.90835">
        <ele>1215.6</ele>
        <time>2017-12-15T20:39:24Z</time>
      </trkpt>
      <trkpt lat="44.86777" lon="5.90857">
        <ele>1215.4</ele>
        <time>2017-12-15T20:39:43Z</time>
      </trkpt>
      <trkpt lat="44.86763" lon="5.90866">
        <ele>1216.4</ele>
        <time>2017-12-15T20:39:53Z</time>
      </trkpt>
      <trkpt lat="44.86758" lon="5.90868">
        <ele>1216.6</ele>
        <time>2017-12-15T20:40:08Z</time>
      </trkpt>
      <trkpt lat="44.86745" lon="5.90865">
        <ele>1216</ele>
        <time>2017-12-15T20:40:17Z</time>
      </trkpt>
      <trkpt lat="44.86711" lon="5.90846">
        <ele>1214.1</ele>
        <time>2017-12-15T20:40:28Z</time>
      </trkpt>
      <trkpt lat="44.86689" lon="5.90836">
        <ele>1213.8</ele>
        <time>2017-12-15T20:40:39Z</time>
      </trkpt>
      <trkpt lat="44.86659" lon="5.90827">
        <ele>1213.4</ele>
        <time>2017-12-15T20:40:56Z</time>
      </trkpt>
      <trkpt lat="44.86649" lon="5.90828">
        <ele>1213</ele>
        <time>2017-12-15T20:41:06Z</time>
      </trkpt>
      <trkpt lat="44.8664" lon="5.90834">
        <ele>1213.2</ele>
        <time>2017-12-15T20:41:26Z</time>
      </trkpt>
      <trkpt lat="44.86633" lon="5.90844">
        <ele>1213.1</ele>
        <time>2017-12-15T20:41:43Z</time>
      </trkpt>
      <trkpt lat="44.86625" lon="5.90861">
        <ele>1213</ele>
        <time>2017-12-15T20:41:46Z</time>
      </trkpt>
      <trkpt lat="44.86618" lon="5.9089">
        <ele>1213.5</ele>
        <time>2017-12-15T20:42:01Z</time>
      </trkpt>
      <trkpt lat="44.86614" lon="5.90911">
        <ele>1213.6</ele>
        <time>2017-12-15T20:42:08Z</time>
      </trkpt>
      <trkpt lat="44.86612" lon="5.90941">
        <ele>1214.2</ele>
        <time>2017-12-15T20:42:15Z</time>
      </trkpt>
      <trkpt lat="44.86611" lon="5.90983">
        <ele>1214.6</ele>
        <time>2017-12-15T20:42:22Z</time>
      </trkpt>
      <trkpt lat="44.86612" lon="5.91018">
        <ele>1214.4</ele>
        <time>2017-12-15T20:42:28Z</time>
      </trkpt>
      <trkpt lat="44.86609" lon="5.91086">
        <ele>1213.9</ele>
        <time>2017-12-15T20:42:43Z</time>
      </trkpt>
      <trkpt lat="44.86604" lon="5.91162">
        <ele>1217.6</ele>
        <time>2017-12-15T20:42:52Z</time>
      </trkpt>
      <trkpt lat="44.86601" lon="5.91183">
        <ele>1217.6</ele>
        <time>2017-12-15T20:42:58Z</time>
      </trkpt>
      <trkpt lat="44.8659" lon="5.91224">
        <ele>1213.6</ele>
        <time>2017-12-15T20:43:13Z</time>
      </trkpt>
      <trkpt lat="44.86588" lon="5.91239">
        <ele>1212.6</ele>
        <time>2017-12-15T20:43:29Z</time>
      </trkpt>
      <trkpt lat="44.8659" lon="5.91258">
        <ele>1213</ele>
        <time>2017-12-15T20:43:37Z</time>
      </trkpt>
      <trkpt lat="44.86601" lon="5.91297">
        <ele>1214</ele>
        <time>2017-12-15T20:43:46Z</time>
      </trkpt>
      <trkpt lat="44.86615" lon="5.91334">
        <ele>1216</ele>
        <time>2017-12-15T20:43:56Z</time>
      </trkpt>
      <trkpt lat="44.8663" lon="5.91415">
        <ele>1212.7</ele>
        <time>2017-12-15T20:44:11Z</time>
      </trkpt>
      <trkpt lat="44.86635" lon="5.91431">
        <ele>1212.2</ele>
        <time>2017-12-15T20:44:27Z</time>
      </trkpt>
      <trkpt lat="44.86648" lon="5.91457">
        <ele>1212.3</ele>
        <time>2017-12-15T20:44:43Z</time>
      </trkpt>
      <trkpt lat="44.86689" lon="5.9152">
        <ele>1211.8</ele>
        <time>2017-12-15T20:44:56Z</time>
      </trkpt>
      <trkpt lat="44.8671" lon="5.91542">
        <ele>1213.2</ele>
        <time>2017-12-15T20:45:01Z</time>
      </trkpt>
      <trkpt lat="44.86736" lon="5.91564">
        <ele>1214.8</ele>
        <time>2017-12-15T20:45:04Z</time>
      </trkpt>
      <trkpt lat="44.86748" lon="5.91571">
        <ele>1216.2</ele>
        <time>2017-12-15T20:45:24Z</time>
      </trkpt>
      <trkpt lat="44.86768" lon="5.91583">
        <ele>1218.6</ele>
        <time>2017-12-15T20:45:41Z</time>
      </trkpt>
      <trkpt lat="44.86772" lon="5.91593">
        <ele>1218.6</ele>
        <time>2017-12-15T20:45:54Z</time>
      </trkpt>
      <trkpt lat="44.86772" lon="5.91604">
        <ele>1217.5</ele>
        <time>2017-12-15T20:46:01Z</time>
      </trkpt>
      <trkpt lat="44.86766" lon="5.91611">
        <ele>1215.5</ele>
        <time>2017-12-15T20:46:07Z</time>
      </trkpt>
      <trkpt lat="44.8675" lon="5.91616">
        <ele>1212.2</ele>
        <time>2017-12-15T20:46:13Z</time>
      </trkpt>
      <trkpt lat="44.86715" lon="5.91616">
        <ele>1210.4</ele>
        <time>2017-12-15T20:46:33Z</time>
      </trkpt>
      <trkpt lat="44.86673" lon="5.91611">
        <ele>1210.5</ele>
        <time>2017-12-15T20:46:38Z</time>
      </trkpt>
      <trkpt lat="44.86645" lon="5.91602">
        <ele>1210</ele>
        <time>2017-12-15T20:46:44Z</time>
      </trkpt>
      <trkpt lat="44.86631" lon="5.91595">
        <ele>1209.3</ele>
        <time>2017-12-15T20:46:56Z</time>
      </trkpt>
      <trkpt lat="44.86618" lon="5.91585">
        <ele>1207.8</ele>
        <time>2017-12-15T20:47:02Z</time>
      </trkpt>
      <trkpt lat="44.86559" lon="5.91523">
        <ele>1203.1</ele>
        <time>2017-12-15T20:47:06Z</time>
      </trkpt>
      <trkpt lat="44.86533" lon="5.9149">
        <ele>1202</ele>
        <time>2017-12-15T20:47:19Z</time>
      </trkpt>
      <trkpt lat="44.86515" lon="5.91464">
        <ele>1202</ele>
        <time>2017-12-15T20:47:21Z</time>
      </trkpt>
      <trkpt lat="44.86467" lon="5.91374">
        <ele>1201.5</ele>
        <time>2017-12-15T20:47:27Z</time>
      </trkpt>
      <trkpt lat="44.86448" lon="5.91336">
        <ele>1202.9</ele>
        <time>2017-12-15T20:47:39Z</time>
      </trkpt>
      <trkpt lat="44.86441" lon="5.91315">
        <ele>1201.9</ele>
        <time>2017-12-15T20:47:53Z</time>
      </trkpt>
      <trkpt lat="44.86424" lon="5.91253">
        <ele>1198.2</ele>
        <time>2017-12-15T20:47:57Z</time>
      </trkpt>
      <trkpt lat="44.86401" lon="5.91205">
        <ele>1201</ele>
        <time>2017-12-15T20:48:10Z</time>
      </trkpt>
      <trkpt lat="44.86383" lon="5.91151">
        <ele>1199.8</ele>
        <time>2017-12-15T20:48:21Z</time>
      </trkpt>
      <trkpt lat="44.86336" lon="5.91033">
        <ele>1199.8</ele>
        <time>2017-12-15T20:48:33Z</time>
      </trkpt>
      <trkpt lat="44.86317" lon="5.90992">
        <ele>1202.3</ele>
        <time>2017-12-15T20:48:42Z</time>
      </trkpt>
      <trkpt lat="44.86284" lon="5.90936">
        <ele>1209.6</ele>
        <time>2017-12-15T20:49:02Z</time>
      </trkpt>
      <trkpt lat="44.86268" lon="5.90894">
        <ele>1209.7</ele>
        <time>2017-12-15T20:49:12Z</time>
      </trkpt>
      <trkpt lat="44.86233" lon="5.90784">
        <ele>1205.8</ele>
        <time>2017-12-15T20:49:21Z</time>
      </trkpt>
      <trkpt lat="44.86216" lon="5.90738">
        <ele>1205</ele>
        <time>2017-12-15T20:49:38Z</time>
      </trkpt>
      <trkpt lat="44.86211" lon="5.90716">
        <ele>1203.3</ele>
        <time>2017-12-15T20:49:51Z</time>
      </trkpt>
      <trkpt lat="44.86203" lon="5.90652">
        <ele>1194.4</ele>
        <time>2017-12-15T20:49:54Z</time>
      </trkpt>
      <trkpt lat="44.86198" lon="5.90639">
        <ele>1194.2</ele>
        <time>2017-12-15T20:50:01Z</time>
      </trkpt>
      <trkpt lat="44.86179" lon="5.90619">
        <ele>1198.1</ele>
        <time>2017-12-15T20:50:20Z</time>
      </trkpt>
      <trkpt lat="44.8616" lon="5.90585">
        <ele>1198.3</ele>
        <time>2017-12-15T20:50:32Z</time>
      </trkpt>
      <trkpt lat="44.86121" lon="5.90534">
        <ele>1204.1</ele>
        <time>2017-12-15T20:50:43Z</time>
      </trkpt>
      <trkpt lat="44.86115" lon="5.90516">
        <ele>1204.2</ele>
        <time>2017-12-15T20:50:50Z</time>
      </trkpt>
      <trkpt lat="44.86112" lon="5.90497">
        <ele>1203.4</ele>
        <time>2017-12-15T20:51:04Z</time>
      </trkpt>
      <trkpt lat="44.86113" lon="5.90461">
        <ele>1200</ele>
        <time>2017-12-15T20:51:21Z</time>
      </trkpt>
      <trkpt lat="44.86109" lon="5.9041">
        <ele>1197.3</ele>
        <time>2017-12-15T20:51:27Z</time>
      </trkpt>
      <trkpt lat="44.86084" lon="5.90337">
        <ele>1193.9</ele>
        <time>2017-12-15T20:51:32Z</time>
      </trkpt>
      <trkpt lat="44.86076" lon="5.90323">
        <ele>1191.3</ele>
        <time>2017-12-15T20:51:37Z</time>
      </trkpt>
      <trkpt lat="44.86067" lon="5.90314">
        <ele>1189.7</ele>
        <time>2017-12-15T20:51:55Z</time>
      </trkpt>
      <trkpt lat="44.86053" lon="5.9031">
        <ele>1189.2</ele>
        <time>2017-12-15T20:52:00Z</time>
      </trkpt>
      <trkpt lat="44.86043" lon="5.90312">
        <ele>1188.9</ele>
        <time>2017-12-15T20:52:04Z</time>
      </trkpt>
      <trkpt lat="44.86025" lon="5.90325">
        <ele>1192.2</ele>
        <time>2017-12-15T20:52:21Z</time>
      </trkpt>
      <trkpt lat="44.85987" lon="5.90355">
        <ele>1197.8</ele>
        <time>2017-12-15T20:52:41Z</time>
      </trkpt>
      <trkpt lat="44.85951" lon="5.90369">
        <ele>1197.7</ele>
        <time>2017-12-15T20:52:58Z</time>
      </trkpt>
      <trkpt lat="44.85903" lon="5.90387">
        <ele>1198.9</ele>
        <time>2017-12-15T20:53:16Z</time>
      </trkpt>
      <trkpt lat="44.8582" lon="5.9042">
        <ele>1198.6</ele>
        <time>2017-12-15T20:53:26Z</time>
      </trkpt>
      <trkpt lat="44.8574" lon="5.90446">
        <ele>1200.2</ele>
        <time>2017-12-15T20:53:41Z</time>
      </trkpt>
      <trkpt lat="44.85713" lon="5.90451">
        <ele>1201</ele>
        <time>2017-12-15T20:53:52Z</time>
      </trkpt>
      <trkpt lat="44.85627" lon="5.90463">
        <ele>1206.2</ele>
        <time>2017-12-15T20:54:06Z</time>
      </trkpt>
      <trkpt lat="44.8559" lon="5.90471">
        <ele>1207.8</ele>
        <time>2017-12-15T20:54:23Z</time>
      </trkpt>
      <trkpt lat="44.85572" lon="5.90469">
        <ele>1208.4</ele>
        <time>2017-12-15T20:54:34Z</time>
      </trkpt>
      <trkpt lat="44.85544" lon="5.90462">
        <ele>1209.2</ele>
        <time>2017-12-15T20:54:39Z</time>
      </trkpt>
      <trkpt lat="44.85528" lon="5.90466">
        <ele>1209.2</ele>
        <time>2017-12-15T20:54:43Z</time>
      </trkpt>
      <trkpt lat="44.85513" lon="5.90477">
        <ele>1208.3</ele>
        <time>2017-12-15T20:54:48Z</time>
      </trkpt>
      <trkpt lat="44.85488" lon="5.90511">
        <ele>1206.4</ele>
        <time>2017-12-15T20:54:51Z</time>
      </trkpt>
      <trkpt lat="44.85437" lon="5.90608">
        <ele>1200.6</ele>
        <time>2017-12-15T20:54:57Z</time>
      </trkpt>
      <trkpt lat="44.85422" lon="5.90631">
        <ele>1198.7</ele>
        <time>2017-12-15T20:55:13Z</time>
      </trkpt>
      <trkpt lat="44.85405" lon="5.90646">
        <ele>1197.2</ele>
        <time>2017-12-15T20:55:19Z</time>
      </trkpt>
      <trkpt lat="44.85376" lon="5.90662">
        <ele>1195.1</ele>
        <time>2017-12-15T20:55:30Z</time>
      </trkpt>
      <trkpt lat="44.85322" lon="5.90688">
        <ele>1188.5</ele>
        <time>2017-12-15T20:55:38Z</time>
      </trkpt>
      <trkpt lat="44.85302" lon="5.907">
        <ele>1186.6</ele>
        <time>2017-12-15T20:55:56Z</time>
      </trkpt>
      <trkpt lat="44.85273" lon="5.90728">
        <ele>1183.3</ele>
        <time>2017-12-15T20:56:07Z</time>
      </trkpt>
      <trkpt lat="44.8526" lon="5.90742">
        <ele>1181.4</ele>
        <time>2017-12-15T20:56:24Z</time>
      </trkpt>
      <trkpt lat="44.85257" lon="5.9075">
        <ele>1180.3</ele>
        <time>2017-12-15T20:56:31Z</time>
      </trkpt>
      <trkpt lat="44.85255" lon="5.90776">
        <ele>1178.3</ele>
        <time>2017-12-15T20:56:38Z</time>
      </trkpt>
      <trkpt lat="44.85255" lon="5.90846">
        <ele>1175.6</ele>
        <time>2017-12-15T20:56:43Z</time>
      </trkpt>
      <trkpt lat="44.85246" lon="5.90871">
        <ele>1174.8</ele>
        <time>2017-12-15T20:56:53Z</time>
      </trkpt>
      <trkpt lat="44.85211" lon="5.90934">
        <ele>1168.9</ele>
        <time>2017-12-15T20:57:12Z</time>
      </trkpt>
      <trkpt lat="44.85174" lon="5.91026">
        <ele>1160.9</ele>
        <time>2017-12-15T20:57:18Z</time>
      </trkpt>
      <trkpt lat="44.85139" lon="5.91119">
        <ele>1154.9</ele>
        <time>2017-12-15T20:57:32Z</time>
      </trkpt>
      <trkpt lat="44.85132" lon="5.91131">
        <ele>1154.1</ele>
        <time>2017-12-15T20:57:52Z</time>
      </trkpt>
      <trkpt lat="44.85127" lon="5.91132">
        <ele>1152.6</ele>
        <time>2017-12-15T20:58:01Z</time>
      </trkpt>
      <trkpt lat="44.85123" lon="5.9113">
        <ele>1151.3</ele>
        <time>2017-12-15T20:58:04Z</time>
      </trkpt>
      <trkpt lat="44.85123" lon="5.91122">
        <ele>1150.7</ele>
        <time>2017-12-15T20:58:16Z</time>
      </trkpt>
      <trkpt lat="44.85125" lon="5.91096">
        <ele>1149.4</ele>
        <time>2017-12-15T20:58:32Z</time>
      </trkpt>
      <trkpt lat="44.85122" lon="5.91043">
        <ele>1147</ele>
        <time>2017-12-15T20:58:41Z</time>
      </trkpt>
      <trkpt lat="44.8512" lon="5.91029">
        <ele>1146.6</ele>
        <time>2017-12-15T20:58:46Z</time>
      </trkpt>
      <trkpt lat="44.85116" lon="5.91021">
        <ele>1146.5</ele>
        <time>2017-12-15T20:59:05Z</time>
      </trkpt>
      <trkpt lat="44.85109" lon="5.91017">
        <ele>1146.1</ele>
        <time>2017-12-15T20:59:16Z</time>
      </trkpt>
      <trkpt lat="44.851" lon="5.91016">
        <ele>1146</ele>
        <time>2017-12-15T20:59:18Z</time>
      </trkpt>
      <trkpt lat="44.85096" lon="5.91022">
        <ele>1145.2</ele>
        <time>2017-12-15T20:59:27Z</time>
      </trkpt>
      <trkpt lat="44.85082" lon="5.9104">
        <ele>1142.6</ele>
        <time>2017-12-15T20:59:38Z</time>
      </trkpt>
      <trkpt lat="44.85055" lon="5.91067">
        <ele>1138.2</ele>
        <time>2017-12-15T20:59:51Z</time>
      </trkpt>
      <trkpt lat="44.85009" lon="5.91112">
        <ele>1131.6</ele>
        <time>2017-12-15T21:00:10Z</time>
      </trkpt>
      <trkpt lat="44.8499" lon="5.91128">
        <ele>1129.5</ele>
        <time>2017-12-15T21:00:18Z</time>
      </trkpt>
      <trkpt lat="44.84975" lon="5.91151">
        <ele>1127.3</ele>
        <time>2017-12-15T21:00:33Z</time>
      </trkpt>
      <trkpt lat="44.8494" lon="5.91239">
        <ele>1124.9</ele>
        <time>2017-12-15T21:00:38Z</time>
      </trkpt>
      <trkpt lat="44.84929" lon="5.91279">
        <ele>1126.9</ele>
        <time>2017-12-15T21:00:42Z</time>
      </trkpt>
      <trkpt lat="44.84924" lon="5.91291">
        <ele>1127.8</ele>
        <time>2017-12-15T21:00:48Z</time>
      </trkpt>
      <trkpt lat="44.84918" lon="5.91299">
        <ele>1128.2</ele>
        <time>2017-12-15T21:00:51Z</time>
      </trkpt>
      <trkpt lat="44.84907" lon="5.91303">
        <ele>1129.2</ele>
        <time>2017-12-15T21:00:59Z</time>
      </trkpt>
      <trkpt lat="44.84895" lon="5.91297">
        <ele>1128.6</ele>
        <time>2017-12-15T21:01:15Z</time>
      </trkpt>
      <trkpt lat="44.84878" lon="5.91287">
        <ele>1126.7</ele>
        <time>2017-12-15T21:01:28Z</time>
      </trkpt>
      <trkpt lat="44.84864" lon="5.91281">
        <ele>1125.1</ele>
        <time>2017-12-15T21:01:32Z</time>
      </trkpt>
      <trkpt lat="44.84846" lon="5.91278">
        <ele>1123.5</ele>
        <time>2017-12-15T21:01:34Z</time>
      </trkpt>
      <trkpt lat="44.84804" lon="5.91278">
        <ele>1123</ele>
        <time>2017-12-15T21:01:49Z</time>
      </trkpt>
      <trkpt lat="44.84774" lon="5.91285">
        <ele>1123.9</ele>
        <time>2017-12-15T21:02:01Z</time>
      </trkpt>
      <trkpt lat="44.8475" lon="5.91296">
        <ele>1124.8</ele>
        <time>2017-12-15T21:02:05Z</time>
      </trkpt>
      <trkpt lat="44.84726" lon="5.91313">
        <ele>1125.9</ele>
        <time>2017-12-15T21:02:22Z</time>
      </trkpt>
      <trkpt lat="44.84687" lon="5.91346">
        <ele>1126.8</ele>
        <time>2017-12-15T21:02:40Z</time>
      </trkpt>
      <trkpt lat="44.84654" lon="5.91382">
        <ele>1126.9</ele>
        <time>2017-12-15T21:02:59Z</time>
      </trkpt>
      <trkpt lat="44.84624" lon="5.91424">
        <ele>1127.8</ele>
        <time>2017-12-15T21:03:08Z</time>
      </trkpt>
      <trkpt lat="44.84609" lon="5.91448">
        <ele>1128.2</ele>
        <time>2017-12-15T21:03:14Z</time>
      </trkpt>
      <trkpt lat="44.84591" lon="5.91488">
        <ele>1130.6</ele>
        <time>2017-12-15T21:03:27Z</time>
      </trkpt>
      <trkpt lat="44.84586" lon="5.91501">
        <ele>1131.8</ele>
        <time>2017-12-15T21:03:36Z</time>
      </trkpt>
      <trkpt lat="44.84577" lon="5.91513">
        <ele>1132.3</ele>
        <time>2017-12-15T21:03:54Z</time>
      </trkpt>
      <trkpt lat="44.84561" lon="5.91521">
        <ele>1129.7</ele>
        <time>2017-12-15T21:04:02Z</time>
      </trkpt>
      <trkpt lat="44.84537" lon="5.91531">
        <ele>1125.8</ele>
        <time>2017-12-15T21:04:17Z</time>
      </trkpt>
      <trkpt lat="44.8451" lon="5.9155">
        <ele>1124.2</ele>
        <time>2017-12-15T21:04:35Z</time>
      </trkpt>
      <trkpt lat="44.84469" lon="5.91585">
        <ele>1125.6</ele>
        <time>2017-12-15T21:04:38Z</time>
      </trkpt>
      <trkpt lat="44.84413" lon="5.91629">
        <ele>1129.5</ele>
        <time>2017-12-15T21:04:43Z</time>
      </trkpt>
      <trkpt lat="44.84393" lon="5.91642">
        <ele>1129.5</ele>
        <time>2017-12-15T21:04:57Z</time>
      </trkpt>
      <trkpt lat="44.84374" lon="5.91652">
        <ele>1129.5</ele>
        <time>2017-12-15T21:05:14Z</time>
      </trkpt>
      <trkpt lat="44.84341" lon="5.91663">
        <ele>1131.2</ele>
        <time>2017-12-15T21:05:27Z</time>
      </trkpt>
      <trkpt lat="44.84309" lon="5.91666">
        <ele>1134.3</ele>
        <time>2017-12-15T21:05:32Z</time>
      </trkpt>
      <trkpt lat="44.84279" lon="5.91659">
        <ele>1133.2</ele>
        <time>2017-12-15T21:05:38Z</time>
      </trkpt>
      <trkpt lat="44.84261" lon="5.91651">
        <ele>1131.2</ele>
        <time>2017-12-15T21:05:51Z</time>
      </trkpt>
      <trkpt lat="44.84233" lon="5.91636">
        <ele>1126.6</ele>
        <time>2017-12-15T21:06:07Z</time>
      </trkpt>
      <trkpt lat="44.84216" lon="5.91629">
        <ele>1122.3</ele>
        <time>2017-12-15T21:06:10Z</time>
      </trkpt>
      <trkpt lat="44.84205" lon="5.91632">
        <ele>1121.2</ele>
        <time>2017-12-15T21:06:29Z</time>
      </trkpt>
      <trkpt lat="44.84198" lon="5.91636">
        <ele>1121.5</ele>
        <time>2017-12-15T21:06:35Z</time>
      </trkpt>
      <trkpt lat="44.84193" lon="5.91641">
        <ele>1121.8</ele>
        <time>2017-12-15T21:06:50Z</time>
      </trkpt>
      <trkpt lat="44.84189" lon="5.91649">
        <ele>1121.6</ele>
        <time>2017-12-15T21:07:05Z</time>
      </trkpt>
      <trkpt lat="44.84185" lon="5.91663">
        <ele>1122.5</ele>
        <time>2017-12-15T21:07:24Z</time>
      </trkpt>
      <trkpt lat="44.84186" lon="5.9168">
        <ele>1123.6</ele>
        <time>2017-12-15T21:07:29Z</time>
      </trkpt>
      <trkpt lat="44.84197" lon="5.9172">
        <ele>1126.6</ele>
        <time>2017-12-15T21:07:38Z</time>
      </trkpt>
      <trkpt lat="44.842" lon="5.91738">
        <ele>1127</ele>
        <time>2017-12-15T21:07:47Z</time>
      </trkpt>
      <trkpt lat="44.84198" lon="5.91804">
        <ele>1122.1</ele>
        <time>2017-12-15T21:07:49Z</time>
      </trkpt>
      <trkpt lat="44.84191" lon="5.9186">
        <ele>1119</ele>
        <time>2017-12-15T21:07:55Z</time>
      </trkpt>
      <trkpt lat="44.84175" lon="5.91913">
        <ele>1115.1</ele>
        <time>2017-12-15T21:08:08Z</time>
      </trkpt>
      <trkpt lat="44.84164" lon="5.91948">
        <ele>1112.7</ele>
        <time>2017-12-15T21:08:28Z</time>
      </trkpt>
      <trkpt lat="44.84162" lon="5.91966">
        <ele>1112.3</ele>
        <time>2017-12-15T21:08:33Z</time>
      </trkpt>
      <trkpt lat="44.84164" lon="5.91983">
        <ele>1111.7</ele>
        <time>2017-12-15T21:08:50Z</time>
      </trkpt>
      <trkpt lat="44.84169" lon="5.92">
        <ele>1111.1</ele>
        <time>2017-12-15T21:09:08Z</time>
      </trkpt>
      <trkpt lat="44.84179" lon="5.92019">
        <ele>1110.4</ele>
        <time>2017-12-15T21:09:24Z</time>
      </trkpt>
      <trkpt lat="44.84202" lon="5.92044">
        <ele>1109</ele>
        <time>2017-12-15T21:09:44Z</time>
      </trkpt>
      <trkpt lat="44.84246" lon="5.9207">
        <ele>1107.3</ele>
        <time>2017-12-15T21:10:02Z</time>
      </trkpt>
      <trkpt lat="44.84271" lon="5.92087">
        <ele>1105.4</ele>
        <time>2017-12-15T21:10:17Z</time>
      </trkpt>
      <trkpt lat="44.8429" lon="5.92104">
        <ele>1104.1</ele>
        <time>2017-12-15T21:10:24Z</time>
      </trkpt>
      <trkpt lat="44.84303" lon="5.9212">
        <ele>1102.6</ele>
        <time>2017-12-15T21:10:41Z</time>
      </trkpt>
      <trkpt lat="44.84313" lon="5.92137">
        <ele>1102.9</ele>
        <time>2017-12-15T21:10:43Z</time>
      </trkpt>
      <trkpt lat="44.84334" lon="5.92188">
        <ele>1100</ele>
        <time>2017-12-15T21:10:55Z</time>
      </trkpt>
      <trkpt lat="44.84343" lon="5.92212">
        <ele>1099.1</ele>
        <time>2017-12-15T21:10:58Z</time>
      </trkpt>
      <trkpt lat="44.84346" lon="5.92225">
        <ele>1097.7</ele>
        <time>2017-12-15T21:11:18Z</time>
      </trkpt>
      <trkpt lat="44.84344" lon="5.92237">
        <ele>1095.9</ele>
        <time>2017-12-15T21:11:36Z</time>
      </trkpt>
      <trkpt lat="44.8434" lon="5.92244">
        <ele>1093.8</ele>
        <time>2017-12-15T21:11:47Z</time>
      </trkpt>
      <trkpt lat="44.84332" lon="5.92247">
        <ele>1091.2</ele>
        <time>2017-12-15T21:11:54Z</time>
      </trkpt>
      <trkpt lat="44.84326" lon="5.92245">
        <ele>1091.8</ele>
        <time>2017-12-15T21:12:11Z</time>
      </trkpt>
      <trkpt lat="44.84317" lon="5.92234">
        <ele>1091.3</ele>
        <time>2017-12-15T21:12:15Z</time>
      </trkpt>
      <trkpt lat="44.84302" lon="5.92217">
        <ele>1089.1</ele>
        <time>2017-12-15T21:12:21Z</time>
      </trkpt>
      <trkpt lat="44.84291" lon="5.92212">
        <ele>1088.9</ele>
        <time>2017-12-15T21:12:27Z</time>
      </trkpt>
      <trkpt lat="44.8428" lon="5.92212">
        <ele>1088.8</ele>
        <time>2017-12-15T21:12:38Z</time>
      </trkpt>
      <trkpt lat="44.8427" lon="5.92215">
        <ele>1088.5</ele>
        <time>2017-12-15T21:12:56Z</time>
      </trkpt>
      <trkpt lat="44.8424" lon="5.92234">
        <ele>1090.7</ele>
        <time>2017-12-15T21:13:01Z</time>
      </trkpt>
      <trkpt lat="44.84207" lon="5.92261">
        <ele>1092.1</ele>
        <time>2017-12-15T21:13:07Z</time>
      </trkpt>
      <trkpt lat="44.84171" lon="5.92292">
        <ele>1092.6</ele>
        <time>2017-12-15T21:13:12Z</time>
      </trkpt>
      <trkpt lat="44.84144" lon="5.9233">
        <ele>1094.4</ele>
        <time>2017-12-15T21:13:26Z</time>
      </trkpt>
      <trkpt lat="44.84127" lon="5.92344">
        <ele>1094.8</ele>
        <time>2017-12-15T21:13:41Z</time>
      </trkpt>
      <trkpt lat="44.84114" lon="5.92352">
        <ele>1095.3</ele>
        <time>2017-12-15T21:13:54Z</time>
      </trkpt>
      <trkpt lat="44.84091" lon="5.92366">
        <ele>1096.1</ele>
        <time>2017-12-15T21:14:13Z</time>
      </trkpt>
      <trkpt lat="44.84078" lon="5.92372">
        <ele>1096</ele>
        <time>2017-12-15T21:14:21Z</time>
      </trkpt>
      <trkpt lat="44.84047" lon="5.9238">
        <ele>1093.5</ele>
        <time>2017-12-15T21:14:30Z</time>
      </trkpt>
      <trkpt lat="44.84003" lon="5.92399">
        <ele>1090.7</ele>
        <time>2017-12-15T21:14:46Z</time>
      </trkpt>
      <trkpt lat="44.83958" lon="5.92411">
        <ele>1085.2</ele>
        <time>2017-12-15T21:14:50Z</time>
      </trkpt>
      <trkpt lat="44.83838" lon="5.9246">
        <ele>1078.1</ele>
        <time>2017-12-15T21:15:02Z</time>
      </trkpt>
      <trkpt lat="44.83805" lon="5.92466">
        <ele>1076.2</ele>
        <time>2017-12-15T21:15:13Z</time>
      </trkpt>
      <trkpt lat="44.83773" lon="5.92461">
        <ele>1072.4</ele>
        <time>2017-12-15T21:15:30Z</time>
      </trkpt>
      <trkpt lat="44.83756" lon="5.92458">
        <ele>1070.3</ele>
        <time>2017-12-15T21:15:44Z</time>
      </trkpt>
      <trkpt lat="44.83743" lon="5.92458">
        <ele>1069.4</ele>
        <time>2017-12-15T21:15:55Z</time>
      </trkpt>
      <trkpt lat="44.83723" lon="5.92461">
        <ele>1068.8</ele>
        <time>2017-12-15T21:16:14Z</time>
      </trkpt>
      <trkpt lat="44.8371" lon="5.92463">
        <ele>1067.7</ele>
        <time>2017-12-15T21:16:32Z</time>
      </trkpt>
      <trkpt lat="44.83661" lon="5.92475">
        <ele>1064.9</ele>
        <time>2017-12-15T21:16:40Z</time>
      </trkpt>
      <trkpt lat="44.83625" lon="5.92486">
        <ele>1061.7</ele>
        <time>2017-12-15T21:16:55Z</time>
      </trkpt>
      <trkpt lat="44.83594" lon="5.92502">
        <ele>1059.1</ele>
        <time>2017-12-15T21:17:12Z</time>
      </trkpt>
      <trkpt lat="44.83582" lon="5.92511">
        <ele>1058</ele>
        <time>2017-12-15T21:17:27Z</time>
      </trkpt>
      <trkpt lat="44.83573" lon="5.92522">
        <ele>1057.6</ele>
        <time>2017-12-15T21:17:43Z</time>
      </trkpt>
      <trkpt lat="44.83564" lon="5.92543">
        <ele>1058.3</ele>
        <time>2017-12-15T21:17:51Z</time>
      </trkpt>
      <trkpt lat="44.83552" lon="5.92577">
        <ele>1061.2</ele>
        <time>2017-12-15T21:17:58Z</time>
      </trkpt>
      <trkpt lat="44.83543" lon="5.92591">
        <ele>1061.7</ele>
        <time>2017-12-15T21:18:08Z</time>
      </trkpt>
      <trkpt lat="44.83536" lon="5.92597">
        <ele>1061</ele>
        <time>2017-12-15T21:18:20Z</time>
      </trkpt>
      <trkpt lat="44.8353" lon="5.92599">
        <ele>1059.6</ele>
        <time>2017-12-15T21:18:33Z</time>
      </trkpt>
      <trkpt lat="44.8352" lon="5.92599">
        <ele>1057.7</ele>
        <time>2017-12-15T21:18:48Z</time>
      </trkpt>
      <trkpt lat="44.83509" lon="5.92593">
        <ele>1054.3</ele>
        <time>2017-12-15T21:18:58Z</time>
      </trkpt>
      <trkpt lat="44.83493" lon="5.92579">
        <ele>1048.5</ele>
        <time>2017-12-15T21:19:09Z</time>
      </trkpt>
      <trkpt lat="44.83481" lon="5.92572">
        <ele>1046.3</ele>
        <time>2017-12-15T21:19:20Z</time>
      </trkpt>
      <trkpt lat="44.83468" lon="5.92569">
        <ele>1045.2</ele>
        <time>2017-12-15T21:19:30Z</time>
      </trkpt>
      <trkpt lat="44.83453" lon="5.9257">
        <ele>1044.9</ele>
        <time>2017-12-15T21:19:42Z</time>
      </trkpt>
      <trkpt lat="44.83439" lon="5.92575">
        <ele>1044.8</ele>
        <time>2017-12-15T21:20:01Z</time>
      </trkpt>
      <trkpt lat="44.8341" lon="5.92593">
        <ele>1042.1</ele>
        <time>2017-12-15T21:20:18Z</time>
      </trkpt>
      <trkpt lat="44.83389" lon="5.92616">
        <ele>1040.6</ele>
        <time>2017-12-15T21:20:33Z</time>
      </trkpt>
      <trkpt lat="44.83328" lon="5.92696">
        <ele>1034.7</ele>
        <time>2017-12-15T21:20:47Z</time>
      </trkpt>
      <trkpt lat="44.83277" lon="5.9278">
        <ele>1030</ele>
        <time>2017-12-15T21:21:00Z</time>
      </trkpt>
      <trkpt lat="44.83259" lon="5.92816">
        <ele>1027.8</ele>
        <time>2017-12-15T21:21:12Z</time>
      </trkpt>
      <trkpt lat="44.83241" lon="5.92864">
        <ele>1024.5</ele>
        <time>2017-12-15T21:21:30Z</time>
      </trkpt>
      <trkpt lat="44.83233" lon="5.92897">
        <ele>1022.3</ele>
        <time>2017-12-15T21:21:37Z</time>
      </trkpt>
      <trkpt lat="44.8323" lon="5.92941">
        <ele>1020.2</ele>
        <time>2017-12-15T21:21:46Z</time>
      </trkpt>
      <trkpt lat="44.83231" lon="5.92962">
        <ele>1019</ele>
        <time>2017-12-15T21:21:52Z</time>
      </trkpt>
      <trkpt lat="44.83234" lon="5.92984">
        <ele>1017.7</ele>
        <time>2017-12-15T21:22:04Z</time>
      </trkpt>
      <trkpt lat="44.83249" lon="5.9303">
        <ele>1017.1</ele>
        <time>2017-12-15T21:22:18Z</time>
      </trkpt>
      <trkpt lat="44.83265" lon="5.93071">
        <ele>1014.1</ele>
        <time>2017-12-15T21:22:30Z</time>
      </trkpt>
      <trkpt lat="44.83275" lon="5.9309">
        <ele>1013.3</ele>
        <time>2017-12-15T21:22:50Z</time>
      </trkpt>
      <trkpt lat="44.83291" lon="5.93113">
        <ele>1013.2</ele>
        <time>2017-12-15T21:23:00Z</time>
      </trkpt>
      <trkpt lat="44.83306" lon="5.93134">
        <ele>1013.4</ele>
        <time>2017-12-15T21:23:16Z</time>
      </trkpt>
      <trkpt lat="44.83314" lon="5.93148">
        <ele>1014</ele>
        <time>2017-12-15T21:23:32Z</time>
      </trkpt>
      <trkpt lat="44.83321" lon="5.93169">
        <ele>1012.9</ele>
        <time>2017-12-15T21:23:43Z</time>
      </trkpt>
      <trkpt lat="44.83328" lon="5.932">
        <ele>1012</ele>
        <time>2017-12-15T21:23:58Z</time>
      </trkpt>
      <trkpt lat="44.8333" lon="5.93243">
        <ele>1011.5</ele>
        <time>2017-12-15T21:24:12Z</time>
      </trkpt>
      <trkpt lat="44.83323" lon="5.93303">
        <ele>1010.5</ele>
        <time>2017-12-15T21:24:18Z</time>
      </trkpt>
      <trkpt lat="44.83323" lon="5.93328">
        <ele>1008.7</ele>
        <time>2017-12-15T21:24:38Z</time>
      </trkpt>
      <trkpt lat="44.83325" lon="5.93344">
        <ele>1008</ele>
        <time>2017-12-15T21:24:54Z</time>
      </trkpt>
      <trkpt lat="44.83335" lon="5.9338">
        <ele>1007.6</ele>
        <time>2017-12-15T21:25:03Z</time>
      </trkpt>
      <trkpt lat="44.83354" lon="5.93423">
        <ele>1010.2</ele>
        <time>2017-12-15T21:25:06Z</time>
      </trkpt>
      <trkpt lat="44.83361" lon="5.9344">
        <ele>1012.1</ele>
        <time>2017-12-15T21:25:18Z</time>
      </trkpt>
      <trkpt lat="44.83363" lon="5.93453">
        <ele>1012.4</ele>
        <time>2017-12-15T21:25:31Z</time>
      </trkpt>
      <trkpt lat="44.83362" lon="5.93478">
        <ele>1011.8</ele>
        <time>2017-12-15T21:25:42Z</time>
      </trkpt>
      <trkpt lat="44.83354" lon="5.935">
        <ele>1010.4</ele>
        <time>2017-12-15T21:26:00Z</time>
      </trkpt>
      <trkpt lat="44.8328" lon="5.93608">
        <ele>1006.1</ele>
        <time>2017-12-15T21:26:12Z</time>
      </trkpt>
      <trkpt lat="44.83251" lon="5.93666">
        <ele>1006.3</ele>
        <time>2017-12-15T21:26:31Z</time>
      </trkpt>
      <trkpt lat="44.83246" lon="5.9368">
        <ele>1006</ele>
        <time>2017-12-15T21:26:37Z</time>
      </trkpt>
      <trkpt lat="44.83242" lon="5.93698">
        <ele>1006.2</ele>
        <time>2017-12-15T21:26:47Z</time>
      </trkpt>
      <trkpt lat="44.83242" lon="5.93717">
        <ele>1006.9</ele>
        <time>2017-12-15T21:27:05Z</time>
      </trkpt>
      <trkpt lat="44.83249" lon="5.93755">
        <ele>1008.1</ele>
        <time>2017-12-15T21:27:19Z</time>
      </trkpt>
      <trkpt lat="44.83256" lon="5.93796">
        <ele>1005.8</ele>
        <time>2017-12-15T21:27:24Z</time>
      </trkpt>
      <trkpt lat="44.83262" lon="5.93814">
        <ele>1004.5</ele>
        <time>2017-12-15T21:27:40Z</time>
      </trkpt>
      <trkpt lat="44.83269" lon="5.93829">
        <ele>1002.8</ele>
        <time>2017-12-15T21:27:50Z</time>
      </trkpt>
      <trkpt lat="44.8328" lon="5.93839">
        <ele>1002.9</ele>
        <time>2017-12-15T21:28:01Z</time>
      </trkpt>
      <trkpt lat="44.83293" lon="5.93848">
        <ele>1003.3</ele>
        <time>2017-12-15T21:28:08Z</time>
      </trkpt>
      <trkpt lat="44.83318" lon="5.93862">
        <ele>1004</ele>
        <time>2017-12-15T21:28:14Z</time>
      </trkpt>
      <trkpt lat="44.83343" lon="5.9388">
        <ele>1003.4</ele>
        <time>2017-12-15T21:28:34Z</time>
      </trkpt>
      <trkpt lat="44.83401" lon="5.93926">
        <ele>1002.9</ele>
        <time>2017-12-15T21:28:46Z</time>
      </trkpt>
      <trkpt lat="44.83407" lon="5.93933">
        <ele>1002.7</ele>
        <time>2017-12-15T21:28:58Z</time>
      </trkpt>
      <trkpt lat="44.83411" lon="5.93944">
        <ele>1000.9</ele>
        <time>2017-12-15T21:29:08Z</time>
      </trkpt>
      <trkpt lat="44.8341" lon="5.93955">
        <ele>999.2</ele>
        <time>2017-12-15T21:29:18Z</time>
      </trkpt>
      <trkpt lat="44.83406" lon="5.93961">
        <ele>997.8</ele>
        <time>2017-12-15T21:29:26Z</time>
      </trkpt>
      <trkpt lat="44.83399" lon="5.93966">
        <ele>996.1</ele>
        <time>2017-12-15T21:29:46Z</time>
      </trkpt>
      <trkpt lat="44.83375" lon="5.93974">
        <ele>992.1</ele>
        <time>2017-12-15T21:30:01Z</time>
      </trkpt>
      <trkpt lat="44.83366" lon="5.93982">
        <ele>991.4</ele>
        <time>2017-12-15T21:30:20Z</time>
      </trkpt>
      <trkpt lat="44.83356" lon="5.94">
        <ele>991.8</ele>
        <time>2017-12-15T21:30:39Z</time>
      </trkpt>
      <trkpt lat="44.83336" lon="5.94024">
        <ele>992.9</ele>
        <time>2017-12-15T21:30:48Z</time>
      </trkpt>
      <trkpt lat="44.83327" lon="5.9403">
        <ele>993.4</ele>
        <time>2017-12-15T21:30:57Z</time>
      </trkpt>
      <trkpt lat="44.83293" lon="5.94038">
        <ele>995.2</ele>
        <time>2017-12-15T21:31:15Z</time>
      </trkpt>
      <trkpt lat="44.83258" lon="5.94045">
        <ele>995.7</ele>
        <time>2017-12-15T21:31:23Z</time>
      </trkpt>
      <trkpt lat="44.83225" lon="5.94055">
        <ele>996</ele>
        <time>2017-12-15T21:31:27Z</time>
      </trkpt>
      <trkpt lat="44.83188" lon="5.94069">
        <ele>995.4</ele>
        <time>2017-12-15T21:31:47Z</time>
      </trkpt>
      <trkpt lat="44.83175" lon="5.94072">
        <ele>996.1</ele>
        <time>2017-12-15T21:31:55Z</time>
      </trkpt>
      <trkpt lat="44.83163" lon="5.94072">
        <ele>996.9</ele>
        <time>2017-12-15T21:32:12Z</time>
      </trkpt>
      <trkpt lat="44.83151" lon="5.94065">
        <ele>997.8</ele>
        <time>2017-12-15T21:32:14Z</time>
      </trkpt>
      <trkpt lat="44.83141" lon="5.94054">
        <ele>997.1</ele>
        <time>2017-12-15T21:32:24Z</time>
      </trkpt>
      <trkpt lat="44.83118" lon="5.94027">
        <ele>995.7</ele>
        <time>2017-12-15T21:32:26Z</time>
      </trkpt>
      <trkpt lat="44.8308" lon="5.93986">
        <ele>992.3</ele>
        <time>2017-12-15T21:32:35Z</time>
      </trkpt>
      <trkpt lat="44.83027" lon="5.93932">
        <ele>992.8</ele>
        <time>2017-12-15T21:32:47Z</time>
      </trkpt>
      <trkpt lat="44.82999" lon="5.93889">
        <ele>988.4</ele>
        <time>2017-12-15T21:33:04Z</time>
      </trkpt>
      <trkpt lat="44.82984" lon="5.9386">
        <ele>985.5</ele>
        <time>2017-12-15T21:33:24Z</time>
      </trkpt>
      <trkpt lat="44.82964" lon="5.93807">
        <ele>982.3</ele>
        <time>2017-12-15T21:33:28Z</time>
      </trkpt>
      <trkpt lat="44.82938" lon="5.93731">
        <ele>975.4</ele>
        <time>2017-12-15T21:33:35Z</time>
      </trkpt>
      <trkpt lat="44.82929" lon="5.93671">
        <ele>973.3</ele>
        <time>2017-12-15T21:33:41Z</time>
      </trkpt>
      <trkpt lat="44.82926" lon="5.93622">
        <ele>972.9</ele>
        <time>2017-12-15T21:33:56Z</time>
      </trkpt>
      <trkpt lat="44.82932" lon="5.93566">
        <ele>969.3</ele>
        <time>2017-12-15T21:34:11Z</time>
      </trkpt>
      <trkpt lat="44.82934" lon="5.93548">
        <ele>967.3</ele>
        <time>2017-12-15T21:34:19Z</time>
      </trkpt>
      <trkpt lat="44.82934" lon="5.93532">
        <ele>965.5</ele>
        <time>2017-12-15T21:34:35Z</time>
      </trkpt>
      <trkpt lat="44.8293" lon="5.93517">
        <ele>964.2</ele>
        <time>2017-12-15T21:34:44Z</time>
      </trkpt>
      <trkpt lat="44.82923" lon="5.93506">
        <ele>963.8</ele>
        <time>2017-12-15T21:34:47Z</time>
      </trkpt>
      <trkpt lat="44.82913" lon="5.93497">
        <ele>963.6</ele>
        <time>2017-12-15T21:35:05Z</time>
      </trkpt>
      <trkpt lat="44.82901" lon="5.93491">
        <ele>963</ele>
        <time>2017-12-15T21:35:25Z</time>
      </trkpt>
      <trkpt lat="44.82883" lon="5.93487">
        <ele>962.6</ele>
        <time>2017-12-15T21:35:36Z</time>
      </trkpt>
      <trkpt lat="44.82847" lon="5.93488">
        <ele>960.5</ele>
        <time>2017-12-15T21:35:39Z</time>
      </trkpt>
      <trkpt lat="44.82806" lon="5.93499">
        <ele>954.8</ele>
        <time>2017-12-15T21:35:52Z</time>
      </trkpt>
      <trkpt lat="44.8279" lon="5.93509">
        <ele>952.8</ele>
        <time>2017-12-15T21:36:08Z</time>
      </trkpt>
      <trkpt lat="44.82782" lon="5.93522">
        <ele>953.1</ele>
        <time>2017-12-15T21:36:21Z</time>
      </trkpt>
      <trkpt lat="44.82777" lon="5.93536">
        <ele>953.6</ele>
        <time>2017-12-15T21:36:39Z</time>
      </trkpt>
      <trkpt lat="44.82774" lon="5.93616">
        <ele>954.3</ele>
        <time>2017-12-15T21:36:42Z</time>
      </trkpt>
      <trkpt lat="44.82773" lon="5.93657">
        <ele>951.8</ele>
        <time>2017-12-15T21:36:59Z</time>
      </trkpt>
      <trkpt lat="44.82777" lon="5.93712">
        <ele>948.8</ele>
        <time>2017-12-15T21:37:02Z</time>
      </trkpt>
      <trkpt lat="44.82778" lon="5.93787">
        <ele>942.1</ele>
        <time>2017-12-15T21:37:04Z</time>
      </trkpt>
      <trkpt lat="44.82773" lon="5.93911">
        <ele>934.1</ele>
        <time>2017-12-15T21:37:16Z</time>
      </trkpt>
      <trkpt lat="44.8277" lon="5.93934">
        <ele>933.7</ele>
        <time>2017-12-15T21:37:29Z</time>
      </trkpt>
      <trkpt lat="44.82763" lon="5.93957">
        <ele>932.6</ele>
        <time>2017-12-15T21:37:43Z</time>
      </trkpt>
      <trkpt lat="44.82713" lon="5.94078">
        <ele>927.8</ele>
        <time>2017-12-15T21:38:01Z</time>
      </trkpt>
      <trkpt lat="44.827" lon="5.94103">
        <ele>927.4</ele>
        <time>2017-12-15T21:38:05Z</time>
      </trkpt>
      <trkpt lat="44.82676" lon="5.94133">
        <ele>925.8</ele>
        <time>2017-12-15T21:38:09Z</time>
      </trkpt>
      <trkpt lat="44.82651" lon="5.94157">
        <ele>923.6</ele>
        <time>2017-12-15T21:38:23Z</time>
      </trkpt>
      <trkpt lat="44.82604" lon="5.94194">
        <ele>917.6</ele>
        <time>2017-12-15T21:38:32Z</time>
      </trkpt>
      <trkpt lat="44.8257" lon="5.94221">
        <ele>912.4</ele>
        <time>2017-12-15T21:38:50Z</time>
      </trkpt>
      <trkpt lat="44.82541" lon="5.94246">
        <ele>908.9</ele>
        <time>2017-12-15T21:38:57Z</time>
      </trkpt>
      <trkpt lat="44.82527" lon="5.94261">
        <ele>907.5</ele>
        <time>2017-12-15T21:39:07Z</time>
      </trkpt>
      <trkpt lat="44.82503" lon="5.943">
        <ele>906.3</ele>
        <time>2017-12-15T21:39:22Z</time>
      </trkpt>
      <trkpt lat="44.82492" lon="5.94337">
        <ele>905.4</ele>
        <time>2017-12-15T21:39:37Z</time>
      </trkpt>
      <trkpt lat="44.8249" lon="5.94351">
        <ele>905</ele>
        <time>2017-12-15T21:39:55Z</time>
      </trkpt>
      <trkpt lat="44.82493" lon="5.94378">
        <ele>906</ele>
        <time>2017-12-15T21:40:15Z</time>
      </trkpt>
      <trkpt lat="44.82495" lon="5.94404">
        <ele>905.4</ele>
        <time>2017-12-15T21:40:22Z</time>
      </trkpt>
      <trkpt lat="44.82492" lon="5.94438">
        <ele>904</ele>
        <time>2017-12-15T21:40:30Z</time>
      </trkpt>
      <trkpt lat="44.82486" lon="5.94464">
        <ele>903.2</ele>
        <time>2017-12-15T21:40:38Z</time>
      </trkpt>
      <trkpt lat="44.82481" lon="5.94477">
        <ele>902.8</ele>
        <time>2017-12-15T21:40:49Z</time>
      </trkpt>
      <trkpt lat="44.82469" lon="5.94495">
        <ele>901.2</ele>
        <time>2017-12-15T21:41:01Z</time>
      </trkpt>
      <trkpt lat="44.82452" lon="5.94512">
        <ele>898.8</ele>
        <time>2017-12-15T21:41:04Z</time>
      </trkpt>
      <trkpt lat="44.82431" lon="5.9455">
        <ele>896.8</ele>
        <time>2017-12-15T21:41:19Z</time>
      </trkpt>
      <trkpt lat="44.82404" lon="5.94603">
        <ele>894.8</ele>
        <time>2017-12-15T21:41:32Z</time>
      </trkpt>
      <trkpt lat="44.82349" lon="5.94719">
        <ele>890.2</ele>
        <time>2017-12-15T21:41:46Z</time>
      </trkpt>
      <trkpt lat="44.82326" lon="5.94773">
        <ele>885.5</ele>
        <time>2017-12-15T21:41:55Z</time>
      </trkpt>
      <trkpt lat="44.82317" lon="5.94808">
        <ele>883.7</ele>
        <time>2017-12-15T21:42:13Z</time>
      </trkpt>
      <trkpt lat="44.82314" lon="5.94835">
        <ele>882.8</ele>
        <time>2017-12-15T21:42:25Z</time>
      </trkpt>
      <trkpt lat="44.82307" lon="5.94856">
        <ele>881.3</ele>
        <time>2017-12-15T21:42:27Z</time>
      </trkpt>
      <trkpt lat="44.82297" lon="5.9487">
        <ele>878.2</ele>
        <time>2017-12-15T21:42:37Z</time>
      </trkpt>
      <trkpt lat="44.82295" lon="5.94987">
        <ele>881.1</ele>
        <time>2017-12-15T21:42:50Z</time>
      </trkpt>
      <trkpt lat="44.82299" lon="5.95104">
        <ele>883.3</ele>
        <time>2017-12-15T21:43:08Z</time>
      </trkpt>
      <trkpt lat="44.82305" lon="5.95161">
        <ele>884.9</ele>
        <time>2017-12-15T21:43:22Z</time>
      </trkpt>
      <trkpt lat="44.82313" lon="5.95205">
        <ele>887</ele>
        <time>2017-12-15T21:43:26Z</time>
      </trkpt>
      <trkpt lat="44.82315" lon="5.95224">
        <ele>887.3</ele>
        <time>2017-12-15T21:43:31Z</time>
      </trkpt>
      <trkpt lat="44.82313" lon="5.95236">
        <ele>886.2</ele>
        <time>2017-12-15T21:43:40Z</time>
      </trkpt>
      <trkpt lat="44.8231" lon="5.95245">
        <ele>885.2</ele>
        <time>2017-12-15T21:44:00Z</time>
      </trkpt>
      <trkpt lat="44.82304" lon="5.95254">
        <ele>884</ele>
        <time>2017-12-15T21:44:07Z</time>
      </trkpt>
      <trkpt lat="44.82298" lon="5.95261">
        <ele>884.1</ele>
        <time>2017-12-15T21:44:12Z</time>
      </trkpt>
      <trkpt lat="44.82292" lon="5.95263">
        <ele>884.2</ele>
        <time>2017-12-15T21:44:20Z</time>
      </trkpt>
      <trkpt lat="44.82281" lon="5.95264">
        <ele>884.5</ele>
        <time>2017-12-15T21:44:31Z</time>
      </trkpt>
      <trkpt lat="44.82273" lon="5.9526">
        <ele>886.1</ele>
        <time>2017-12-15T21:44:38Z</time>
      </trkpt>
      <trkpt lat="44.82265" lon="5.9525">
        <ele>888.1</ele>
        <time>2017-12-15T21:44:46Z</time>
      </trkpt>
      <trkpt lat="44.82255" lon="5.95229">
        <ele>889.3</ele>
        <time>2017-12-15T21:44:50Z</time>
      </trkpt>
      <trkpt lat="44.82229" lon="5.95131">
        <ele>892.8</ele>
        <time>2017-12-15T21:45:04Z</time>
      </trkpt>
      <trkpt lat="44.82217" lon="5.95096">
        <ele>892.7</ele>
        <time>2017-12-15T21:45:17Z</time>
      </trkpt>
      <trkpt lat="44.82179" lon="5.95015">
        <ele>901.5</ele>
        <time>2017-12-15T21:45:37Z</time>
      </trkpt>
      <trkpt lat="44.82159" lon="5.94983">
        <ele>906.3</ele>
        <time>2017-12-15T21:45:39Z</time>
      </trkpt>
      <trkpt lat="44.82127" lon="5.94937">
        <ele>911.6</ele>
        <time>2017-12-15T21:45:56Z</time>
      </trkpt>
      <trkpt lat="44.82102" lon="5.94894">
        <ele>912.3</ele>
        <time>2017-12-15T21:46:11Z</time>
      </trkpt>
      <trkpt lat="44.82085" lon="5.94847">
        <ele>910.9</ele>
        <time>2017-12-15T21:46:26Z</time>
      </trkpt>
      <trkpt lat="44.82071" lon="5.94796">
        <ele>912.4</ele>
        <time>2017-12-15T21:46:41Z</time>
      </trkpt>
      <trkpt lat="44.82047" lon="5.94724">
        <ele>916.9</ele>
        <time>2017-12-15T21:46:53Z</time>
      </trkpt>
      <trkpt lat="44.82017" lon="5.94635">
        <ele>920</ele>
        <time>2017-12-15T21:47:01Z</time>
      </trkpt>
      <trkpt lat="44.82012" lon="5.94626">
        <ele>920.5</ele>
        <time>2017-12-15T21:47:20Z</time>
      </trkpt>
      <trkpt lat="44.82009" lon="5.94623">
        <ele>920.9</ele>
        <time>2017-12-15T21:47:40Z</time>
      </trkpt>
      <trkpt lat="44.81982" lon="5.94625">
        <ele>925.9</ele>
        <time>2017-12-15T21:47:57Z</time>
      </trkpt>
      <trkpt lat="44.81981" lon="5.94625">
        <ele>926.1</ele>
        <time>2017-12-15T21:48:07Z</time>
      </trkpt>
      <trkpt lat="44.8198" lon="5.94624">
        <ele>926.2</ele>
        <time>2017-12-15T21:48:10Z</time>
      </trkpt>
      <trkpt lat="44.81977" lon="5.94624">
        <ele>926.7</ele>
        <time>2017-12-15T21:48:13Z</time>
      </trkpt>
      <trkpt lat="44.81974" lon="5.94628">
        <ele>927.3</ele>
        <time>2017-12-15T21:48:17Z</time>
      </trkpt>
      <trkpt lat="44.81973" lon="5.94635">
        <ele>927.7</ele>
        <time>2017-12-15T21:48:21Z</time>
      </trkpt>
      <trkpt lat="44.81971" lon="5.94692">
        <ele>930</ele>
        <time>2017-12-15T21:48:32Z</time>
      </trkpt>
      <trkpt lat="44.81969" lon="5.9471">
        <ele>930.4</ele>
        <time>2017-12-15T21:48:47Z</time>
      </trkpt>
      <trkpt lat="44.81965" lon="5.94722">
        <ele>931</ele>
        <time>2017-12-15T21:48:49Z</time>
      </trkpt>
      <trkpt lat="44.8195" lon="5.94747">
        <ele>933.2</ele>
        <time>2017-12-15T21:49:02Z</time>
      </trkpt>
      <trkpt lat="44.81935" lon="5.94768">
        <ele>936.1</ele>
        <time>2017-12-15T21:49:16Z</time>
      </trkpt>
      <trkpt lat="44.81927" lon="5.94773">
        <ele>937.4</ele>
        <time>2017-12-15T21:49:18Z</time>
      </trkpt>
      <trkpt lat="44.81917" lon="5.94775">
        <ele>939</ele>
        <time>2017-12-15T21:49:33Z</time>
      </trkpt>
      <trkpt lat="44.81906" lon="5.94773">
        <ele>940.5</ele>
        <time>2017-12-15T21:49:43Z</time>
      </trkpt>
      <trkpt lat="44.81875" lon="5.94757">
        <ele>942.8</ele>
        <time>2017-12-15T21:49:45Z</time>
      </trkpt>
      <trkpt lat="44.8181" lon="5.94736">
        <ele>941.2</ele>
        <time>2017-12-15T21:49:49Z</time>
      </trkpt>
      <trkpt lat="44.81802" lon="5.94737">
        <ele>940.6</ele>
        <time>2017-12-15T21:49:51Z</time>
      </trkpt>
      <trkpt lat="44.81797" lon="5.9474">
        <ele>940.2</ele>
        <time>2017-12-15T21:49:55Z</time>
      </trkpt>
      <trkpt lat="44.8179" lon="5.94751">
        <ele>939.8</ele>
        <time>2017-12-15T21:50:08Z</time>
      </trkpt>
      <trkpt lat="44.81776" lon="5.9479">
        <ele>939.6</ele>
        <time>2017-12-15T21:50:12Z</time>
      </trkpt>
      <trkpt lat="44.81767" lon="5.94823">
        <ele>940.3</ele>
        <time>2017-12-15T21:50:15Z</time>
      </trkpt>
      <trkpt lat="44.81764" lon="5.94849">
        <ele>941.6</ele>
        <time>2017-12-15T21:50:30Z</time>
      </trkpt>
      <trkpt lat="44.81761" lon="5.94856">
        <ele>941.6</ele>
        <time>2017-12-15T21:50:45Z</time>
      </trkpt>
      <trkpt lat="44.81756" lon="5.94862">
        <ele>941.1</ele>
        <time>2017-12-15T21:50:57Z</time>
      </trkpt>
      <trkpt lat="44.81748" lon="5.94866">
        <ele>940.5</ele>
        <time>2017-12-15T21:51:13Z</time>
      </trkpt>
      <trkpt lat="44.81743" lon="5.94864">
        <ele>940.8</ele>
        <time>2017-12-15T21:51:16Z</time>
      </trkpt>
      <trkpt lat="44.81735" lon="5.94857">
        <ele>940.8</ele>
        <time>2017-12-15T21:51:29Z</time>
      </trkpt>
      <trkpt lat="44.81729" lon="5.94845">
        <ele>940.4</ele>
        <time>2017-12-15T21:51:44Z</time>
      </trkpt>
      <trkpt lat="44.81723" lon="5.94815">
        <ele>938.6</ele>
        <time>2017-12-15T21:51:51Z</time>
      </trkpt>
      <trkpt lat="44.81712" lon="5.94776">
        <ele>938.1</ele>
        <time>2017-12-15T21:52:06Z</time>
      </trkpt>
      <trkpt lat="44.81703" lon="5.94763">
        <ele>938.9</ele>
        <time>2017-12-15T21:52:11Z</time>
      </trkpt>
      <trkpt lat="44.81688" lon="5.94749">
        <ele>939.2</ele>
        <time>2017-12-15T21:52:28Z</time>
      </trkpt>
      <trkpt lat="44.81675" lon="5.94742">
        <ele>938.9</ele>
        <time>2017-12-15T21:52:45Z</time>
      </trkpt>
      <trkpt lat="44.81648" lon="5.94737">
        <ele>938.2</ele>
        <time>2017-12-15T21:53:05Z</time>
      </trkpt>
      <trkpt lat="44.81519" lon="5.94721">
        <ele>936.3</ele>
        <time>2017-12-15T21:53:23Z</time>
      </trkpt>
      <trkpt lat="44.81482" lon="5.9472">
        <ele>936</ele>
        <time>2017-12-15T21:53:29Z</time>
      </trkpt>
      <trkpt lat="44.81469" lon="5.94721">
        <ele>935.1</ele>
        <time>2017-12-15T21:53:48Z</time>
      </trkpt>
      <trkpt lat="44.81459" lon="5.94725">
        <ele>933.5</ele>
        <time>2017-12-15T21:54:06Z</time>
      </trkpt>
      <trkpt lat="44.81446" lon="5.94733">
        <ele>932.6</ele>
        <time>2017-12-15T21:54:23Z</time>
      </trkpt>
      <trkpt lat="44.8141" lon="5.9477">
        <ele>934.2</ele>
        <time>2017-12-15T21:54:29Z</time>
      </trkpt>
      <trkpt lat="44.81382" lon="5.94789">
        <ele>933.9</ele>
        <time>2017-12-15T21:54:47Z</time>
      </trkpt>
      <trkpt lat="44.81351" lon="5.94799">
        <ele>929.4</ele>
        <time>2017-12-15T21:55:05Z</time>
      </trkpt>
      <trkpt lat="44.81321" lon="5.94818">
        <ele>926.8</ele>
        <time>2017-12-15T21:55:18Z</time>
      </trkpt>
      <trkpt lat="44.81307" lon="5.94831">
        <ele>926.6</ele>
        <time>2017-12-15T21:55:23Z</time>
      </trkpt>
      <trkpt lat="44.81293" lon="5.9485">
        <ele>927</ele>
        <time>2017-12-15T21:55:39Z</time>
      </trkpt>
      <trkpt lat="44.81256" lon="5.94902">
        <ele>926.6</ele>
        <time>2017-12-15T21:55:47Z</time>
      </trkpt>
      <trkpt lat="44.81224" lon="5.94947">
        <ele>926.3</ele>
        <time>2017-12-15T21:55:59Z</time>
      </trkpt>
      <trkpt lat="44.81215" lon="5.94954">
        <ele>928.1</ele>
        <time>2017-12-15T21:56:19Z</time>
      </trkpt>
      <trkpt lat="44.81205" lon="5.94957">
        <ele>929.3</ele>
        <time>2017-12-15T21:56:39Z</time>
      </trkpt>
      <trkpt lat="44.81187" lon="5.94956">
        <ele>929.3</ele>
        <time>2017-12-15T21:56:57Z</time>
      </trkpt>
      <trkpt lat="44.81146" lon="5.94944">
        <ele>924.1</ele>
        <time>2017-12-15T21:57:03Z</time>
      </trkpt>
      <trkpt lat="44.81113" lon="5.94939">
        <ele>919.2</ele>
        <time>2017-12-15T21:57:10Z</time>
      </trkpt>
      <trkpt lat="44.81104" lon="5.94941">
        <ele>918.3</ele>
        <time>2017-12-15T21:57:18Z</time>
      </trkpt>
      <trkpt lat="44.81082" lon="5.9496">
        <ele>919.6</ele>
        <time>2017-12-15T21:57:37Z</time>
      </trkpt>
      <trkpt lat="44.81023" lon="5.95058">
        <ele>932.1</ele>
        <time>2017-12-15T21:57:45Z</time>
      </trkpt>
      <trkpt lat="44.81008" lon="5.9507">
        <ele>935.2</ele>
        <time>2017-12-15T21:58:03Z</time>
      </trkpt>
      <trkpt lat="44.80987" lon="5.9507">
        <ele>934.5</ele>
        <time>2017-12-15T21:58:05Z</time>
      </trkpt>
      <trkpt lat="44.80924" lon="5.95053">
        <ele>926.3</ele>
        <time>2017-12-15T21:58:20Z</time>
      </trkpt>
      <trkpt lat="44.80903" lon="5.95049">
        <ele>922.5</ele>
        <time>2017-12-15T21:58:34Z</time>
      </trkpt>
      <trkpt lat="44.8089" lon="5.9505">
        <ele>921.9</ele>
        <time>2017-12-15T21:58:53Z</time>
      </trkpt>
      <trkpt lat="44.80876" lon="5.95053">
        <ele>920.4</ele>
        <time>2017-12-15T21:58:55Z</time>
      </trkpt>
      <trkpt lat="44.80861" lon="5.95061">
        <ele>920.3</ele>
        <time>2017-12-15T21:59:10Z</time>
      </trkpt>
      <trkpt lat="44.80847" lon="5.95075">
        <ele>920.5</ele>
        <time>2017-12-15T21:59:12Z</time>
      </trkpt>
      <trkpt lat="44.80838" lon="5.9509">
        <ele>922.7</ele>
        <time>2017-12-15T21:59:32Z</time>
      </trkpt>
      <trkpt lat="44.8081" lon="5.95134">
        <ele>925.3</ele>
        <time>2017-12-15T21:59:36Z</time>
      </trkpt>
      <trkpt lat="44.80767" lon="5.95185">
        <ele>922.6</ele>
        <time>2017-12-15T21:59:49Z</time>
      </trkpt>
      <trkpt lat="44.80722" lon="5.95235">
        <ele>915.1</ele>
        <time>2017-12-15T21:59:58Z</time>
      </trkpt>
      <trkpt lat="44.80706" lon="5.9526">
        <ele>911</ele>
        <time>2017-12-15T22:00:14Z</time>
      </trkpt>
      <trkpt lat="44.80693" lon="5.95314">
        <ele>912</ele>
        <time>2017-12-15T22:00:22Z</time>
      </trkpt>
      <trkpt lat="44.80678" lon="5.9539">
        <ele>912.9</ele>
        <time>2017-12-15T22:00:30Z</time>
      </trkpt>
      <trkpt lat="44.80673" lon="5.95408">
        <ele>914.4</ele>
        <time>2017-12-15T22:00:47Z</time>
      </trkpt>
      <trkpt lat="44.80665" lon="5.95427">
        <ele>917.9</ele>
        <time>2017-12-15T22:01:05Z</time>
      </trkpt>
      <trkpt lat="44.80661" lon="5.95432">
        <ele>919.7</ele>
        <time>2017-12-15T22:01:07Z</time>
      </trkpt>
      <trkpt lat="44.80654" lon="5.95435">
        <ele>920.6</ele>
        <time>2017-12-15T22:01:20Z</time>
      </trkpt>
      <trkpt lat="44.80609" lon="5.95436">
        <ele>918.2</ele>
        <time>2017-12-15T22:01:26Z</time>
      </trkpt>
      <trkpt lat="44.80594" lon="5.95438">
        <ele>917.3</ele>
        <time>2017-12-15T22:01:28Z</time>
      </trkpt>
      <trkpt lat="44.80582" lon="5.95444">
        <ele>918.5</ele>
        <time>2017-12-15T22:01:38Z</time>
      </trkpt>
      <trkpt lat="44.80561" lon="5.95459">
        <ele>919</ele>
        <time>2017-12-15T22:01:50Z</time>
      </trkpt>
      <trkpt lat="44.80545" lon="5.95479">
        <ele>919.4</ele>
        <time>2017-12-15T22:01:58Z</time>
      </trkpt>
      <trkpt lat="44.80538" lon="5.95502">
        <ele>921.7</ele>
        <time>2017-12-15T22:02:09Z</time>
      </trkpt>
      <trkpt lat="44.80539" lon="5.9552">
        <ele>924.1</ele>
        <time>2017-12-15T22:02:23Z</time>
      </trkpt>
      <trkpt lat="44.80542" lon="5.95538">
        <ele>927.1</ele>
        <time>2017-12-15T22:02:27Z</time>
      </trkpt>
      <trkpt lat="44.8055" lon="5.95562">
        <ele>932</ele>
        <time>2017-12-15T22:02:30Z</time>
      </trkpt>
      <trkpt lat="44.80556" lon="5.95596">
        <ele>934.7</ele>
        <time>2017-12-15T22:02:35Z</time>
      </trkpt>
      <trkpt lat="44.80551" lon="5.9562">
        <ele>935.1</ele>
        <time>2017-12-15T22:02:46Z</time>
      </trkpt>
      <trkpt lat="44.80538" lon="5.95636">
        <ele>935</ele>
        <time>2017-12-15T22:03:04Z</time>
      </trkpt>
      <trkpt lat="44.80517" lon="5.95648">
        <ele>936.6</ele>
        <time>2017-12-15T22:03:13Z</time>
      </trkpt>
      <trkpt lat="44.80434" lon="5.95667">
        <ele>941.3</ele>
        <time>2017-12-15T22:03:30Z</time>
      </trkpt>
      <trkpt lat="44.80416" lon="5.95675">
        <ele>941.4</ele>
        <time>2017-12-15T22:03:49Z</time>
      </trkpt>
      <trkpt lat="44.80399" lon="5.95689">
        <ele>942</ele>
        <time>2017-12-15T22:04:08Z</time>
      </trkpt>
      <trkpt lat="44.80377" lon="5.95719">
        <ele>942.9</ele>
        <time>2017-12-15T22:04:14Z</time>
      </trkpt>
      <trkpt lat="44.80354" lon="5.95778">
        <ele>945.5</ele>
        <time>2017-12-15T22:04:24Z</time>
      </trkpt>
      <trkpt lat="44.8033" lon="5.95856">
        <ele>950.2</ele>
        <time>2017-12-15T22:04:30Z</time>
      </trkpt>
      <trkpt lat="44.80322" lon="5.95897">
        <ele>952</ele>
        <time>2017-12-15T22:04:33Z</time>
      </trkpt>
      <trkpt lat="44.80319" lon="5.95931">
        <ele>953.1</ele>
        <time>2017-12-15T22:04:35Z</time>
      </trkpt>
      <trkpt lat="44.80318" lon="5.95963">
        <ele>954.3</ele>
        <time>2017-12-15T22:04:49Z</time>
      </trkpt>
      <trkpt lat="44.80321" lon="5.95996">
        <ele>957.1</ele>
        <time>2017-12-15T22:04:55Z</time>
      </trkpt>
      <trkpt lat="44.80319" lon="5.96024">
        <ele>957.2</ele>
        <time>2017-12-15T22:05:15Z</time>
      </trkpt>
      <trkpt lat="44.80305" lon="5.96123">
        <ele>957</ele>
        <time>2017-12-15T22:05:24Z</time>
      </trkpt>
      <trkpt lat="44.80298" lon="5.96151">
        <ele>956.6</ele>
        <time>2017-12-15T22:05:29Z</time>
      </trkpt>
      <trkpt lat="44.80289" lon="5.96175">
        <ele>955.8</ele>
        <time>2017-12-15T22:05:49Z</time>
      </trkpt>
      <trkpt lat="44.80245" lon="5.96252">
        <ele>950.5</ele>
        <time>2017-12-15T22:06:08Z</time>
      </trkpt>
      <trkpt lat="44.80241" lon="5.96258">
        <ele>950.4</ele>
        <time>2017-12-15T22:06:12Z</time>
      </trkpt>
      <trkpt lat="44.80231" lon="5.96272">
        <ele>949.5</ele>
        <time>2017-12-15T22:06:29Z</time>
      </trkpt>
      <trkpt lat="44.80214" lon="5.96291">
        <ele>947.3</ele>
        <time>2017-12-15T22:06:33Z</time>
      </trkpt>
      <trkpt lat="44.80194" lon="5.96317">
        <ele>945.5</ele>
        <time>2017-12-15T22:06:45Z</time>
      </trkpt>
      <trkpt lat="44.80182" lon="5.96342">
        <ele>944.7</ele>
        <time>2017-12-15T22:07:03Z</time>
      </trkpt>
      <trkpt lat="44.8017" lon="5.96385">
        <ele>939.9</ele>
        <time>2017-12-15T22:07:07Z</time>
      </trkpt>
      <trkpt lat="44.80165" lon="5.96411">
        <ele>936.3</ele>
        <time>2017-12-15T22:07:22Z</time>
      </trkpt>
      <trkpt lat="44.80165" lon="5.96442">
        <ele>933.7</ele>
        <time>2017-12-15T22:07:40Z</time>
      </trkpt>
      <trkpt lat="44.80169" lon="5.96494">
        <ele>930</ele>
        <time>2017-12-15T22:07:57Z</time>
      </trkpt>
      <trkpt lat="44.80168" lon="5.96513">
        <ele>928.9</ele>
        <time>2017-12-15T22:08:15Z</time>
      </trkpt>
      <trkpt lat="44.80155" lon="5.9656">
        <ele>925.5</ele>
        <time>2017-12-15T22:08:26Z</time>
      </trkpt>
      <trkpt lat="44.80099" lon="5.96733">
        <ele>911.3</ele>
        <time>2017-12-15T22:08:30Z</time>
      </trkpt>
      <trkpt lat="44.80081" lon="5.96786">
        <ele>909.9</ele>
        <time>2017-12-15T22:08:43Z</time>
      </trkpt>
      <trkpt lat="44.80069" lon="5.96811">
        <ele>909.6</ele>
        <time>2017-12-15T22:08:54Z</time>
      </trkpt>
      <trkpt lat="44.80056" lon="5.9683">
        <ele>909</ele>
        <time>2017-12-15T22:09:03Z</time>
      </trkpt>
      <trkpt lat="44.80038" lon="5.96868">
        <ele>909.5</ele>
        <time>2017-12-15T22:09:14Z</time>
      </trkpt>
      <trkpt lat="44.80023" lon="5.96893">
        <ele>908.8</ele>
        <time>2017-12-15T22:09:18Z</time>
      </trkpt>
      <trkpt lat="44.79972" lon="5.96959">
        <ele>907.6</ele>
        <time>2017-12-15T22:09:21Z</time>
      </trkpt>
      <trkpt lat="44.79949" lon="5.9699">
        <ele>907.8</ele>
        <time>2017-12-15T22:09:41Z</time>
      </trkpt>
      <trkpt lat="44.79935" lon="5.97016">
        <ele>906.9</ele>
        <time>2017-12-15T22:09:50Z</time>
      </trkpt>
      <trkpt lat="44.79925" lon="5.97049">
        <ele>907</ele>
        <time>2017-12-15T22:10:08Z</time>
      </trkpt>
      <trkpt lat="44.7992" lon="5.97079">
        <ele>906.6</ele>
        <time>2017-12-15T22:10:19Z</time>
      </trkpt>
      <trkpt lat="44.79921" lon="5.97116">
        <ele>905.6</ele>
        <time>2017-12-15T22:10:29Z</time>
      </trkpt>
      <trkpt lat="44.79923" lon="5.97136">
        <ele>905.2</ele>
        <time>2017-12-15T22:10:44Z</time>
      </trkpt>
      <trkpt lat="44.79977" lon="5.97266">
        <ele>904.8</ele>
        <time>2017-12-15T22:10:54Z</time>
      </trkpt>
      <trkpt lat="44.79986" lon="5.97295">
        <ele>903.8</ele>
        <time>2017-12-15T22:11:10Z</time>
      </trkpt>
      <trkpt lat="44.79988" lon="5.97312">
        <ele>902.4</ele>
        <time>2017-12-15T22:11:12Z</time>
      </trkpt>
      <trkpt lat="44.79991" lon="5.9734">
        <ele>901.4</ele>
        <time>2017-12-15T22:11:22Z</time>
      </trkpt>
      <trkpt lat="44.79991" lon="5.97372">
        <ele>899.8</ele>
        <time>2017-12-15T22:11:42Z</time>
      </trkpt>
      <trkpt lat="44.79989" lon="5.97403">
        <ele>898.3</ele>
        <time>2017-12-15T22:11:59Z</time>
      </trkpt>
      <trkpt lat="44.79982" lon="5.97427">
        <ele>896.7</ele>
        <time>2017-12-15T22:12:15Z</time>
      </trkpt>
      <trkpt lat="44.79956" lon="5.97468">
        <ele>891.4</ele>
        <time>2017-12-15T22:12:19Z</time>
      </trkpt>
      <trkpt lat="44.79938" lon="5.97482">
        <ele>889.1</ele>
        <time>2017-12-15T22:12:29Z</time>
      </trkpt>
      <trkpt lat="44.79919" lon="5.97488">
        <ele>887.9</ele>
        <time>2017-12-15T22:12:48Z</time>
      </trkpt>
      <trkpt lat="44.79894" lon="5.97489">
        <ele>886.2</ele>
        <time>2017-12-15T22:13:05Z</time>
      </trkpt>
      <trkpt lat="44.79879" lon="5.97482">
        <ele>884.7</ele>
        <time>2017-12-15T22:13:12Z</time>
      </trkpt>
      <trkpt lat="44.79853" lon="5.97462">
        <ele>882</ele>
        <time>2017-12-15T22:13:26Z</time>
      </trkpt>
      <trkpt lat="44.79836" lon="5.97452">
        <ele>880.6</ele>
        <time>2017-12-15T22:13:44Z</time>
      </trkpt>
      <trkpt lat="44.7982" lon="5.97452">
        <ele>879</ele>
        <time>2017-12-15T22:13:55Z</time>
      </trkpt>
      <trkpt lat="44.7981" lon="5.97457">
        <ele>878</ele>
        <time>2017-12-15T22:14:05Z</time>
      </trkpt>
      <trkpt lat="44.79802" lon="5.97469">
        <ele>877</ele>
        <time>2017-12-15T22:14:10Z</time>
      </trkpt>
      <trkpt lat="44.79797" lon="5.97492">
        <ele>876.1</ele>
        <time>2017-12-15T22:14:27Z</time>
      </trkpt>
      <trkpt lat="44.79801" lon="5.97547">
        <ele>873.2</ele>
        <time>2017-12-15T22:14:46Z</time>
      </trkpt>
      <trkpt lat="44.79807" lon="5.97595">
        <ele>870.5</ele>
        <time>2017-12-15T22:14:49Z</time>
      </trkpt>
      <trkpt lat="44.79812" lon="5.97644">
        <ele>868.5</ele>
        <time>2017-12-15T22:15:02Z</time>
      </trkpt>
      <trkpt lat="44.79806" lon="5.97673">
        <ele>865.9</ele>
        <time>2017-12-15T22:15:22Z</time>
      </trkpt>
      <trkpt lat="44.79788" lon="5.97714">
        <ele>864.4</ele>
        <time>2017-12-15T22:15:40Z</time>
      </trkpt>
      <trkpt lat="44.79771" lon="5.97736">
        <ele>860</ele>
        <time>2017-12-15T22:15:51Z</time>
      </trkpt>
      <trkpt lat="44.7975" lon="5.97756">
        <ele>855.1</ele>
        <time>2017-12-15T22:15:58Z</time>
      </trkpt>
      <trkpt lat="44.79709" lon="5.97787">
        <ele>852.6</ele>
        <time>2017-12-15T22:16:13Z</time>
      </trkpt>
      <trkpt lat="44.79693" lon="5.97796">
        <ele>852.7</ele>
        <time>2017-12-15T22:16:30Z</time>
      </trkpt>
      <trkpt lat="44.79678" lon="5.97801">
        <ele>852.1</ele>
        <time>2017-12-15T22:16:45Z</time>
      </trkpt>
      <trkpt lat="44.79661" lon="5.978">
        <ele>849.8</ele>
        <time>2017-12-15T22:16:51Z</time>
      </trkpt>
      <trkpt lat="44.79649" lon="5.97795">
        <ele>847.6</ele>
        <time>2017-12-15T22:16:57Z</time>
      </trkpt>
      <trkpt lat="44.79632" lon="5.97781">
        <ele>842.7</ele>
        <time>2017-12-15T22:17:05Z</time>
      </trkpt>
      <trkpt lat="44.79611" lon="5.97761">
        <ele>837</ele>
        <time>2017-12-15T22:17:19Z</time>
      </trkpt>
      <trkpt lat="44.79592" lon="5.97753">
        <ele>834.2</ele>
        <time>2017-12-15T22:17:39Z</time>
      </trkpt>
      <trkpt lat="44.79534" lon="5.9775">
        <ele>832.2</ele>
        <time>2017-12-15T22:17:50Z</time>
      </trkpt>
      <trkpt lat="44.79515" lon="5.97748">
        <ele>831.9</ele>
        <time>2017-12-15T22:18:04Z</time>
      </trkpt>
      <trkpt lat="44.79498" lon="5.97739">
        <ele>829.9</ele>
        <time>2017-12-15T22:18:12Z</time>
      </trkpt>
      <trkpt lat="44.79474" lon="5.97715">
        <ele>824.3</ele>
        <time>2017-12-15T22:18:27Z</time>
      </trkpt>
      <trkpt lat="44.79463" lon="5.97707">
        <ele>821.6</ele>
        <time>2017-12-15T22:18:30Z</time>
      </trkpt>
      <trkpt lat="44.79444" lon="5.97701">
        <ele>818</ele>
        <time>2017-12-15T22:18:36Z</time>
      </trkpt>
      <trkpt lat="44.79427" lon="5.97705">
        <ele>813.2</ele>
        <time>2017-12-15T22:18:43Z</time>
      </trkpt>
      <trkpt lat="44.79411" lon="5.97716">
        <ele>809.8</ele>
        <time>2017-12-15T22:18:47Z</time>
      </trkpt>
      <trkpt lat="44.79399" lon="5.97729">
        <ele>807.9</ele>
        <time>2017-12-15T22:19:07Z</time>
      </trkpt>
      <trkpt lat="44.7939" lon="5.97747">
        <ele>807.9</ele>
        <time>2017-12-15T22:19:18Z</time>
      </trkpt>
      <trkpt lat="44.79379" lon="5.97778">
        <ele>808.8</ele>
        <time>2017-12-15T22:19:20Z</time>
      </trkpt>
      <trkpt lat="44.79366" lon="5.97803">
        <ele>808.7</ele>
        <time>2017-12-15T22:19:39Z</time>
      </trkpt>
      <trkpt lat="44.79348" lon="5.97827">
        <ele>806.1</ele>
        <time>2017-12-15T22:19:58Z</time>
      </trkpt>
      <trkpt lat="44.79326" lon="5.97851">
        <ele>802.6</ele>
        <time>2017-12-15T22:20:04Z</time>
      </trkpt>
      <trkpt lat="44.79297" lon="5.97887">
        <ele>797.6</ele>
        <time>2017-12-15T22:20:24Z</time>
      </trkpt>
      <trkpt lat="44.79263" lon="5.97936">
        <ele>791.3</ele>
        <time>2017-12-15T22:20:43Z</time>
      </trkpt>
      <trkpt lat="44.79245" lon="5.97954">
        <ele>785.6</ele>
        <time>2017-12-15T22:20:54Z</time>
      </trkpt>
      <trkpt lat="44.79243" lon="5.97939">
        <ele>784.6</ele>
        <time>2017-12-15T22:21:00Z</time>
      </trkpt>
      <trkpt lat="44.79245" lon="5.97923">
        <ele>784.2</ele>
        <time>2017-12-15T22:21:11Z</time>
      </trkpt>
      <trkpt lat="44.79257" lon="5.97886">
        <ele>784.7</ele>
        <time>2017-12-15T22:21:17Z</time>
      </trkpt>
      <trkpt lat="44.79289" lon="5.97814">
        <ele>784.2</ele>
        <time>2017-12-15T22:21:30Z</time>
      </trkpt>
      <trkpt lat="44.79322" lon="5.97762">
        <ele>785.5</ele>
        <time>2017-12-15T22:21:48Z</time>
      </trkpt>
      <trkpt lat="44.79338" lon="5.97723">
        <ele>784.8</ele>
        <time>2017-12-15T22:22:07Z</time>
      </trkpt>
      <trkpt lat="44.79354" lon="5.9769">
        <ele>785.3</ele>
        <time>2017-12-15T22:22:11Z</time>
      </trkpt>
      <trkpt lat="44.79373" lon="5.97663">
        <ele>788</ele>
        <time>2017-12-15T22:22:16Z</time>
      </trkpt>
      <trkpt lat="44.79388" lon="5.97646">
        <ele>789.8</ele>
        <time>2017-12-15T22:22:19Z</time>
      </trkpt>
      <trkpt lat="44.79421" lon="5.97619">
        <ele>794.8</ele>
        <time>2017-12-15T22:22:27Z</time>
      </trkpt>
      <trkpt lat="44.7943" lon="5.97602">
        <ele>794.3</ele>
        <time>2017-12-15T22:22:35Z</time>
      </trkpt>
      <trkpt lat="44.7944" lon="5.97596">
        <ele>795.3</ele>
        <time>2017-12-15T22:22:49Z</time>
      </trkpt>
      <trkpt lat="44.7947" lon="5.97565">
        <ele>798.9</ele>
        <time>2017-12-15T22:23:02Z</time>
      </trkpt>
      <trkpt lat="44.79482" lon="5.97544">
        <ele>800.3</ele>
        <time>2017-12-15T22:23:08Z</time>
      </trkpt>
      <trkpt lat="44.79495" lon="5.97498">
        <ele>801.8</ele>
        <time>2017-12-15T22:23:19Z</time>
      </trkpt>
      <trkpt lat="44.79519" lon="5.97389">
        <ele>802.7</ele>
        <time>2017-12-15T22:23:36Z</time>
      </trkpt>
      <trkpt lat="44.79524" lon="5.97348">
        <ele>802.1</ele>
        <time>2017-12-15T22:23:42Z</time>
      </trkpt>
      <trkpt lat="44.79526" lon="5.97318">
        <ele>801.8</ele>
        <time>2017-12-15T22:23:56Z</time>
      </trkpt>
      <trkpt lat="44.79522" lon="5.97283">
        <ele>801.4</ele>
        <time>2017-12-15T22:24:07Z</time>
      </trkpt>
      <trkpt lat="44.79515" lon="5.97258">
        <ele>801.3</ele>
        <time>2017-12-15T22:24:18Z</time>
      </trkpt>
      <trkpt lat="44.79496" lon="5.97218">
        <ele>802</ele>
        <time>2017-12-15T22:24:35Z</time>
      </trkpt>
      <trkpt lat="44.79468" lon="5.97188">
        <ele>802.6</ele>
        <time>2017-12-15T22:24:37Z</time>
      </trkpt>
      <trkpt lat="44.79434" lon="5.97174">
        <ele>800.9</ele>
        <time>2017-12-15T22:24:46Z</time>
      </trkpt>
      <trkpt lat="44.79409" lon="5.97149">
        <ele>793.1</ele>
        <time>2017-12-15T22:24:52Z</time>
      </trkpt>
      <trkpt lat="44.79405" lon="5.97129">
        <ele>787.7</ele>
        <time>2017-12-15T22:24:57Z</time>
      </trkpt>
      <trkpt lat="44.79406" lon="5.97111">
        <ele>785.1</ele>
        <time>2017-12-15T22:24:59Z</time>
      </trkpt>
      <trkpt lat="44.79413" lon="5.9709">
        <ele>784.1</ele>
        <time>2017-12-15T22:25:17Z</time>
      </trkpt>
      <trkpt lat="44.79425" lon="5.97073">
        <ele>785.3</ele>
        <time>2017-12-15T22:25:34Z</time>
      </trkpt>
      <trkpt lat="44.79458" lon="5.97059">
        <ele>797.7</ele>
        <time>2017-12-15T22:25:41Z</time>
      </trkpt>
      <trkpt lat="44.79471" lon="5.97046">
        <ele>798.3</ele>
        <time>2017-12-15T22:25:50Z</time>
      </trkpt>
      <trkpt lat="44.79482" lon="5.97027">
        <ele>795.6</ele>
        <time>2017-12-15T22:26:02Z</time>
      </trkpt>
      <trkpt lat="44.79489" lon="5.97002">
        <ele>790</ele>
        <time>2017-12-15T22:26:12Z</time>
      </trkpt>
      <trkpt lat="44.79498" lon="5.96957">
        <ele>780.9</ele>
        <time>2017-12-15T22:26:23Z</time>
      </trkpt>
      <trkpt lat="44.79504" lon="5.9693">
        <ele>775.6</ele>
        <time>2017-12-15T22:26:41Z</time>
      </trkpt>
      <trkpt lat="44.79516" lon="5.96919">
        <ele>777.6</ele>
        <time>2017-12-15T22:26:48Z</time>
      </trkpt>
      <trkpt lat="44.79533" lon="5.96916">
        <ele>783</ele>
        <time>2017-12-15T22:26:58Z</time>
      </trkpt>
      <trkpt lat="44.79547" lon="5.96923">
        <ele>787.8</ele>
        <time>2017-12-15T22:27:05Z</time>
      </trkpt>
      <trkpt lat="44.79567" lon="5.9692">
        <ele>790.3</ele>
        <time>2017-12-15T22:27:07Z</time>
      </trkpt>
      <trkpt lat="44.79571" lon="5.9691">
        <ele>790.2</ele>
        <time>2017-12-15T22:27:23Z</time>
      </trkpt>
      <trkpt lat="44.79572" lon="5.969">
        <ele>790.3</ele>
        <time>2017-12-15T22:27:31Z</time>
      </trkpt>
      <trkpt lat="44.79562" lon="5.96881">
        <ele>787.6</ele>
        <time>2017-12-15T22:27:49Z</time>
      </trkpt>
      <trkpt lat="44.7953" lon="5.96835">
        <ele>777</ele>
        <time>2017-12-15T22:28:00Z</time>
      </trkpt>
      <trkpt lat="44.79521" lon="5.96828">
        <ele>772.7</ele>
        <time>2017-12-15T22:28:09Z</time>
      </trkpt>
      <trkpt lat="44.79507" lon="5.96829">
        <ele>766.7</ele>
        <time>2017-12-15T22:28:21Z</time>
      </trkpt>
      <trkpt lat="44.79488" lon="5.96836">
        <ele>759.6</ele>
        <time>2017-12-15T22:28:34Z</time>
      </trkpt>
      <trkpt lat="44.79476" lon="5.96837">
        <ele>755.3</ele>
        <time>2017-12-15T22:28:53Z</time>
      </trkpt>
      <trkpt lat="44.79467" lon="5.96836">
        <ele>757.7</ele>
        <time>2017-12-15T22:29:06Z</time>
      </trkpt>
      <trkpt lat="44.7945" lon="5.96829">
        <ele>768.7</ele>
        <time>2017-12-15T22:29:15Z</time>
      </trkpt>
      <trkpt lat="44.79436" lon="5.96817">
        <ele>777.9</ele>
        <time>2017-12-15T22:29:17Z</time>
      </trkpt>
      <trkpt lat="44.79427" lon="5.96809">
        <ele>784.1</ele>
        <time>2017-12-15T22:29:19Z</time>
      </trkpt>
      <trkpt lat="44.79423" lon="5.96795">
        <ele>785.7</ele>
        <time>2017-12-15T22:29:23Z</time>
      </trkpt>
      <trkpt lat="44.7943" lon="5.96755">
        <ele>776.4</ele>
        <time>2017-12-15T22:29:33Z</time>
      </trkpt>
      <trkpt lat="44.79426" lon="5.96712">
        <ele>777.8</ele>
        <time>2017-12-15T22:29:36Z</time>
      </trkpt>
      <trkpt lat="44.79433" lon="5.96678">
        <ele>772.8</ele>
        <time>2017-12-15T22:29:55Z</time>
      </trkpt>
      <trkpt lat="44.79432" lon="5.96659">
        <ele>775.5</ele>
        <time>2017-12-15T22:30:05Z</time>
      </trkpt>
      <trkpt lat="44.79425" lon="5.96642">
        <ele>782.5</ele>
        <time>2017-12-15T22:30:13Z</time>
      </trkpt>
      <trkpt lat="44.79422" lon="5.96637">
        <ele>785.2</ele>
        <time>2017-12-15T22:30:30Z</time>
      </trkpt>
      <trkpt lat="44.79422" lon="5.9663">
        <ele>786</ele>
        <time>2017-12-15T22:30:45Z</time>
      </trkpt>
      <trkpt lat="44.79429" lon="5.96617">
        <ele>783.4</ele>
        <time>2017-12-15T22:30:48Z</time>
      </trkpt>
      <trkpt lat="44.79437" lon="5.96595">
        <ele>783.3</ele>
        <time>2017-12-15T22:30:50Z</time>
      </trkpt>
      <trkpt lat="44.79456" lon="5.96529">
        <ele>786.3</ele>
        <time>2017-12-15T22:30:53Z</time>
      </trkpt>
      <trkpt lat="44.79473" lon="5.96423">
        <ele>786.3</ele>
        <time>2017-12-15T22:31:13Z</time>
      </trkpt>
      <trkpt lat="44.79479" lon="5.96373">
        <ele>786.6</ele>
        <time>2017-12-15T22:31:30Z</time>
      </trkpt>
      <trkpt lat="44.79478" lon="5.96258">
        <ele>790.2</ele>
        <time>2017-12-15T22:31:46Z</time>
      </trkpt>
      <trkpt lat="44.7948" lon="5.96195">
        <ele>790</ele>
        <time>2017-12-15T22:31:57Z</time>
      </trkpt>
      <trkpt lat="44.79487" lon="5.96148">
        <ele>789.7</ele>
        <time>2017-12-15T22:32:05Z</time>
      </trkpt>
      <trkpt lat="44.79498" lon="5.96076">
        <ele>789.1</ele>
        <time>2017-12-15T22:32:21Z</time>
      </trkpt>
      <trkpt lat="44.79496" lon="5.96058">
        <ele>789.3</ele>
        <time>2017-12-15T22:32:37Z</time>
      </trkpt>
      <trkpt lat="44.79484" lon="5.96039">
        <ele>790.2</ele>
        <time>2017-12-15T22:32:50Z</time>
      </trkpt>
      <trkpt lat="44.7947" lon="5.96007">
        <ele>794.6</ele>
        <time>2017-12-15T22:33:09Z</time>
      </trkpt>
      <trkpt lat="44.79471" lon="5.95992">
        <ele>797.4</ele>
        <time>2017-12-15T22:33:13Z</time>
      </trkpt>
      <trkpt lat="44.79476" lon="5.95979">
        <ele>799.4</ele>
        <time>2017-12-15T22:33:17Z</time>
      </trkpt>
      <trkpt lat="44.79486" lon="5.95962">
        <ele>800.9</ele>
        <time>2017-12-15T22:33:21Z</time>
      </trkpt>
      <trkpt lat="44.79504" lon="5.95952">
        <ele>798.2</ele>
        <time>2017-12-15T22:33:32Z</time>
      </trkpt>
      <trkpt lat="44.79521" lon="5.95944">
        <ele>795</ele>
        <time>2017-12-15T22:33:45Z</time>
      </trkpt>
      <trkpt lat="44.79532" lon="5.95932">
        <ele>793.9</ele>
        <time>2017-12-15T22:33:52Z</time>
      </trkpt>
      <trkpt lat="44.79541" lon="5.95895">
        <ele>799.7</ele>
        <time>2017-12-15T22:34:00Z</time>
      </trkpt>
      <trkpt lat="44.79549" lon="5.95874">
        <ele>803.7</ele>
        <time>2017-12-15T22:34:03Z</time>
      </trkpt>
      <trkpt lat="44.79559" lon="5.95861">
        <ele>805.3</ele>
        <time>2017-12-15T22:34:10Z</time>
      </trkpt>
      <trkpt lat="44.79584" lon="5.95839">
        <ele>809.5</ele>
        <time>2017-12-15T22:34:21Z</time>
      </trkpt>
      <trkpt lat="44.79604" lon="5.95828">
        <ele>812.1</ele>
        <time>2017-12-15T22:34:27Z</time>
      </trkpt>
      <trkpt lat="44.7963" lon="5.95822">
        <ele>812.1</ele>
        <time>2017-12-15T22:34:32Z</time>
      </trkpt>
      <trkpt lat="44.79661" lon="5.95822">
        <ele>809.7</ele>
        <time>2017-12-15T22:34:36Z</time>
      </trkpt>
      <trkpt lat="44.7972" lon="5.9583">
        <ele>810.2</ele>
        <time>2017-12-15T22:34:47Z</time>
      </trkpt>
      <trkpt lat="44.79733" lon="5.95839">
        <ele>808.3</ele>
        <time>2017-12-15T22:35:04Z</time>
      </trkpt>
      <trkpt lat="44.7975" lon="5.95862">
        <ele>800.6</ele>
        <time>2017-12-15T22:35:18Z</time>
      </trkpt>
      <trkpt lat="44.7976" lon="5.95869">
        <ele>799.1</ele>
        <time>2017-12-15T22:35:27Z</time>
      </trkpt>
      <trkpt lat="44.79768" lon="5.9587">
        <ele>800.1</ele>
        <time>2017-12-15T22:35:40Z</time>
      </trkpt>
      <trkpt lat="44.79775" lon="5.9587">
        <ele>801.3</ele>
        <time>2017-12-15T22:35:54Z</time>
      </trkpt>
      <trkpt lat="44.79784" lon="5.95864">
        <ele>804.6</ele>
        <time>2017-12-15T22:36:06Z</time>
      </trkpt>
      <trkpt lat="44.79793" lon="5.95854">
        <ele>808.1</ele>
        <time>2017-12-15T22:36:24Z</time>
      </trkpt>
      <trkpt lat="44.79804" lon="5.95816">
        <ele>815.8</ele>
        <time>2017-12-15T22:36:38Z</time>
      </trkpt>
      <trkpt lat="44.79818" lon="5.9576">
        <ele>813.4</ele>
        <time>2017-12-15T22:36:44Z</time>
      </trkpt>
      <trkpt lat="44.79821" lon="5.95745">
        <ele>812.1</ele>
        <time>2017-12-15T22:36:55Z</time>
      </trkpt>
      <trkpt lat="44.7982" lon="5.95726">
        <ele>812.3</ele>
        <time>2017-12-15T22:37:03Z</time>
      </trkpt>
      <trkpt lat="44.7981" lon="5.95666">
        <ele>812.5</ele>
        <time>2017-12-15T22:37:11Z</time>
      </trkpt>
      <trkpt lat="44.79807" lon="5.95644">
        <ele>810.7</ele>
        <time>2017-12-15T22:37:16Z</time>
      </trkpt>
      <trkpt lat="44.79801" lon="5.95625">
        <ele>812.2</ele>
        <time>2017-12-15T22:37:25Z</time>
      </trkpt>
      <trkpt lat="44.79794" lon="5.95609">
        <ele>815.7</ele>
        <time>2017-12-15T22:37:41Z</time>
      </trkpt>
      <trkpt lat="44.79792" lon="5.95592">
        <ele>815.6</ele>
        <time>2017-12-15T22:37:43Z</time>
      </trkpt>
      <trkpt lat="44.79788" lon="5.95561">
        <ele>815.7</ele>
        <time>2017-12-15T22:37:47Z</time>
      </trkpt>
      <trkpt lat="44.79782" lon="5.95535">
        <ele>819.2</ele>
        <time>2017-12-15T22:37:52Z</time>
      </trkpt>
      <trkpt lat="44.79776" lon="5.95507">
        <ele>821.8</ele>
        <time>2017-12-15T22:38:10Z</time>
      </trkpt>
      <trkpt lat="44.79776" lon="5.95488">
        <ele>819.6</ele>
        <time>2017-12-15T22:38:18Z</time>
      </trkpt>
      <trkpt lat="44.79771" lon="5.95432">
        <ele>820.1</ele>
        <time>2017-12-15T22:38:36Z</time>
      </trkpt>
      <trkpt lat="44.79764" lon="5.95398">
        <ele>824.2</ele>
        <time>2017-12-15T22:38:52Z</time>
      </trkpt>
      <trkpt lat="44.79749" lon="5.95373">
        <ele>834.5</ele>
        <time>2017-12-15T22:39:12Z</time>
      </trkpt>
      <trkpt lat="44.79742" lon="5.95339">
        <ele>837.3</ele>
        <time>2017-12-15T22:39:21Z</time>
      </trkpt>
      <trkpt lat="44.79751" lon="5.95306">
        <ele>832.2</ele>
        <time>2017-12-15T22:39:37Z</time>
      </trkpt>
      <trkpt lat="44.79758" lon="5.95287">
        <ele>829.9</ele>
        <time>2017-12-15T22:39:45Z</time>
      </trkpt>
      <trkpt lat="44.79765" lon="5.95242">
        <ele>832.1</ele>
        <time>2017-12-15T22:39:52Z</time>
      </trkpt>
      <trkpt lat="44.79778" lon="5.95165">
        <ele>836.4</ele>
        <time>2017-12-15T22:40:04Z</time>
      </trkpt>
      <trkpt lat="44.79781" lon="5.95142">
        <ele>841.6</ele>
        <time>2017-12-15T22:40:07Z</time>
      </trkpt>
      <trkpt lat="44.79789" lon="5.95123">
        <ele>841.4</ele>
        <time>2017-12-15T22:40:12Z</time>
      </trkpt>
      <trkpt lat="44.79798" lon="5.95104">
        <ele>840.3</ele>
        <time>2017-12-15T22:40:15Z</time>
      </trkpt>
      <trkpt lat="44.79806" lon="5.95076">
        <ele>843.1</ele>
        <time>2017-12-15T22:40:34Z</time>
      </trkpt>
      <trkpt lat="44.79822" lon="5.95035">
        <ele>844.4</ele>
        <time>2017-12-15T22:40:44Z</time>
      </trkpt>
      <trkpt lat="44.79842" lon="5.94987">
        <ele>845</ele>
        <time>2017-12-15T22:40:56Z</time>
      </trkpt>
      <trkpt lat="44.79856" lon="5.94935">
        <ele>851.3</ele>
        <time>2017-12-15T22:41:11Z</time>
      </trkpt>
      <trkpt lat="44.79867" lon="5.94912">
        <ele>851</ele>
        <time>2017-12-15T22:41:22Z</time>
      </trkpt>
      <trkpt lat="44.79876" lon="5.94898">
        <ele>850.2</ele>
        <time>2017-12-15T22:41:28Z</time>
      </trkpt>
      <trkpt lat="44.79901" lon="5.94841">
        <ele>856.5</ele>
        <time>2017-12-15T22:41:38Z</time>
      </trkpt>
      <trkpt lat="44.79925" lon="5.94791">
        <ele>858.1</ele>
        <time>2017-12-15T22:41:48Z</time>
      </trkpt>
      <trkpt lat="44.79946" lon="5.94753">
        <ele>852.2</ele>
        <time>2017-12-15T22:42:03Z</time>
      </trkpt>
      <trkpt lat="44.79945" lon="5.94738">
        <ele>853.2</ele>
        <time>2017-12-15T22:42:13Z</time>
      </trkpt>
      <trkpt lat="44.79937" lon="5.94722">
        <ele>858</ele>
        <time>2017-12-15T22:42:24Z</time>
      </trkpt>
      <trkpt lat="44.79926" lon="5.94707">
        <ele>860.3</ele>
        <time>2017-12-15T22:42:29Z</time>
      </trkpt>
      <trkpt lat="44.79908" lon="5.94688">
        <ele>863.5</ele>
        <time>2017-12-15T22:42:46Z</time>
      </trkpt>
      <trkpt lat="44.79856" lon="5.94643">
        <ele>871.6</ele>
        <time>2017-12-15T22:42:52Z</time>
      </trkpt>
      <trkpt lat="44.79816" lon="5.94603">
        <ele>879.3</ele>
        <time>2017-12-15T22:43:04Z</time>
      </trkpt>
      <trkpt lat="44.79805" lon="5.94593">
        <ele>882.4</ele>
        <time>2017-12-15T22:43:14Z</time>
      </trkpt>
      <trkpt lat="44.79801" lon="5.94582">
        <ele>881.2</ele>
        <time>2017-12-15T22:43:17Z</time>
      </trkpt>
      <trkpt lat="44.79801" lon="5.94561">
        <ele>879.3</ele>
        <time>2017-12-15T22:43:22Z</time>
      </trkpt>
      <trkpt lat="44.79802" lon="5.94553">
        <ele>878.9</ele>
        <time>2017-12-15T22:43:39Z</time>
      </trkpt>
      <trkpt lat="44.79807" lon="5.94544">
        <ele>879</ele>
        <time>2017-12-15T22:43:55Z</time>
      </trkpt>
      <trkpt lat="44.79828" lon="5.94532">
        <ele>874.6</ele>
        <time>2017-12-15T22:44:15Z</time>
      </trkpt>
      <trkpt lat="44.79837" lon="5.94522">
        <ele>875.6</ele>
        <time>2017-12-15T22:44:20Z</time>
      </trkpt>
      <trkpt lat="44.7985" lon="5.945">
        <ele>882.2</ele>
        <time>2017-12-15T22:44:31Z</time>
      </trkpt>
      <trkpt lat="44.79862" lon="5.94491">
        <ele>884.3</ele>
        <time>2017-12-15T22:44:46Z</time>
      </trkpt>
      <trkpt lat="44.79874" lon="5.94486">
        <ele>885.2</ele>
        <time>2017-12-15T22:45:05Z</time>
      </trkpt>
      <trkpt lat="44.79912" lon="5.94481">
        <ele>880.9</ele>
        <time>2017-12-15T22:45:10Z</time>
      </trkpt>
      <trkpt lat="44.79934" lon="5.94468">
        <ele>885.8</ele>
        <time>2017-12-15T22:45:21Z</time>
      </trkpt>
      <trkpt lat="44.79978" lon="5.94463">
        <ele>887.9</ele>
        <time>2017-12-15T22:45:38Z</time>
      </trkpt>
      <trkpt lat="44.79991" lon="5.94463">
        <ele>889.3</ele>
        <time>2017-12-15T22:45:58Z</time>
      </trkpt>
      <trkpt lat="44.8003" lon="5.9447">
        <ele>891.6</ele>
        <time>2017-12-15T22:46:17Z</time>
      </trkpt>
      <trkpt lat="44.80076" lon="5.94474">
        <ele>897</ele>
        <time>2017-12-15T22:46:23Z</time>
      </trkpt>
      <trkpt lat="44.80094" lon="5.94481">
        <ele>894.8</ele>
        <time>2017-12-15T22:46:41Z</time>
      </trkpt>
      <trkpt lat="44.80111" lon="5.94483">
        <ele>894.6</ele>
        <time>2017-12-15T22:46:46Z</time>
      </trkpt>
      <trkpt lat="44.80128" lon="5.94482">
        <ele>895.7</ele>
        <time>2017-12-15T22:46:58Z</time>
      </trkpt>
      <trkpt lat="44.80141" lon="5.94478">
        <ele>898</ele>
        <time>2017-12-15T22:47:13Z</time>
      </trkpt>
      <trkpt lat="44.80181" lon="5.94471">
        <ele>899</ele>
        <time>2017-12-15T22:47:17Z</time>
      </trkpt>
      <trkpt lat="44.80202" lon="5.94467">
        <ele>897.9</ele>
        <time>2017-12-15T22:47:31Z</time>
      </trkpt>
      <trkpt lat="44.80216" lon="5.9446">
        <ele>898.4</ele>
        <time>2017-12-15T22:47:45Z</time>
      </trkpt>
      <trkpt lat="44.8023" lon="5.94445">
        <ele>900.3</ele>
        <time>2017-12-15T22:47:48Z</time>
      </trkpt>
      <trkpt lat="44.80238" lon="5.9443">
        <ele>901.2</ele>
        <time>2017-12-15T22:47:53Z</time>
      </trkpt>
      <trkpt lat="44.8025" lon="5.94405">
        <ele>902.1</ele>
        <time>2017-12-15T22:48:08Z</time>
      </trkpt>
      <trkpt lat="44.8026" lon="5.94359">
        <ele>906.7</ele>
        <time>2017-12-15T22:48:20Z</time>
      </trkpt>
      <trkpt lat="44.80263" lon="5.94336">
        <ele>909</ele>
        <time>2017-12-15T22:48:26Z</time>
      </trkpt>
      <trkpt lat="44.80253" lon="5.94213">
        <ele>920.1</ele>
        <time>2017-12-15T22:48:33Z</time>
      </trkpt>
      <trkpt lat="44.80248" lon="5.94169">
        <ele>922.4</ele>
        <time>2017-12-15T22:48:53Z</time>
      </trkpt>
      <trkpt lat="44.80252" lon="5.9414">
        <ele>922.3</ele>
        <time>2017-12-15T22:48:59Z</time>
      </trkpt>
      <trkpt lat="44.80263" lon="5.94105">
        <ele>921.4</ele>
        <time>2017-12-15T22:49:05Z</time>
      </trkpt>
      <trkpt lat="44.8026" lon="5.94085">
        <ele>922.5</ele>
        <time>2017-12-15T22:49:16Z</time>
      </trkpt>
      <trkpt lat="44.80257" lon="5.94075">
        <ele>922.8</ele>
        <time>2017-12-15T22:49:26Z</time>
      </trkpt>
      <trkpt lat="44.80226" lon="5.93973">
        <ele>922.5</ele>
        <time>2017-12-15T22:49:46Z</time>
      </trkpt>
      <trkpt lat="44.80226" lon="5.93947">
        <ele>921.3</ele>
        <time>2017-12-15T22:50:03Z</time>
      </trkpt>
      <trkpt lat="44.80235" lon="5.93876">
        <ele>921.8</ele>
        <time>2017-12-15T22:50:11Z</time>
      </trkpt>
      <trkpt lat="44.80254" lon="5.93808">
        <ele>921.4</ele>
        <time>2017-12-15T22:50:15Z</time>
      </trkpt>
      <trkpt lat="44.80349" lon="5.93486">
        <ele>920.4</ele>
        <time>2017-12-15T22:50:28Z</time>
      </trkpt>
      <trkpt lat="44.80354" lon="5.93474">
        <ele>920.3</ele>
        <time>2017-12-15T22:50:45Z</time>
      </trkpt>
      <trkpt lat="44.80366" lon="5.93467">
        <ele>919.8</ele>
        <time>2017-12-15T22:50:53Z</time>
      </trkpt>
      <trkpt lat="44.80382" lon="5.93458">
        <ele>918.9</ele>
        <time>2017-12-15T22:51:01Z</time>
      </trkpt>
      <trkpt lat="44.8039" lon="5.93449">
        <ele>918.1</ele>
        <time>2017-12-15T22:51:11Z</time>
      </trkpt>
      <trkpt lat="44.804" lon="5.93428">
        <ele>917.7</ele>
        <time>2017-12-15T22:51:21Z</time>
      </trkpt>
      <trkpt lat="44.80432" lon="5.93359">
        <ele>913.8</ele>
        <time>2017-12-15T22:51:28Z</time>
      </trkpt>
      <trkpt lat="44.80448" lon="5.933">
        <ele>913</ele>
        <time>2017-12-15T22:51:37Z</time>
      </trkpt>
      <trkpt lat="44.80469" lon="5.93253">
        <ele>908.7</ele>
        <time>2017-12-15T22:51:44Z</time>
      </trkpt>
      <trkpt lat="44.80503" lon="5.93166">
        <ele>904.9</ele>
        <time>2017-12-15T22:52:01Z</time>
      </trkpt>
      <trkpt lat="44.80519" lon="5.93129">
        <ele>904.2</ele>
        <time>2017-12-15T22:52:15Z</time>
      </trkpt>
      <trkpt lat="44.80537" lon="5.93097">
        <ele>901.7</ele>
        <time>2017-12-15T22:52:32Z</time>
      </trkpt>
      <trkpt lat="44.80546" lon="5.93078">
        <ele>900.7</ele>
        <time>2017-12-15T22:52:49Z</time>
      </trkpt>
      <trkpt lat="44.80548" lon="5.93066">
        <ele>900.9</ele>
        <time>2017-12-15T22:53:08Z</time>
      </trkpt>
      <trkpt lat="44.80542" lon="5.93032">
        <ele>901.6</ele>
        <time>2017-12-15T22:53:26Z</time>
      </trkpt>
      <trkpt lat="44.80537" lon="5.93025">
        <ele>901.1</ele>
        <time>2017-12-15T22:53:30Z</time>
      </trkpt>
      <trkpt lat="44.80531" lon="5.93023">
        <ele>900.7</ele>
        <time>2017-12-15T22:53:44Z</time>
      </trkpt>
      <trkpt lat="44.80508" lon="5.93019">
        <ele>902</ele>
        <time>2017-12-15T22:53:50Z</time>
      </trkpt>
      <trkpt lat="44.805" lon="5.93015">
        <ele>902.2</ele>
        <time>2017-12-15T22:53:58Z</time>
      </trkpt>
      <trkpt lat="44.80494" lon="5.93004">
        <ele>902</ele>
        <time>2017-12-15T22:54:14Z</time>
      </trkpt>
      <trkpt lat="44.80486" lon="5.9297">
        <ele>901.4</ele>
        <time>2017-12-15T22:54:23Z</time>
      </trkpt>
      <trkpt lat="44.80477" lon="5.92915">
        <ele>898</ele>
        <time>2017-12-15T22:54:26Z</time>
      </trkpt>
      <trkpt lat="44.8047" lon="5.92897">
        <ele>894.9</ele>
        <time>2017-12-15T22:54:45Z</time>
      </trkpt>
      <trkpt lat="44.80451" lon="5.92888">
        <ele>897</ele>
        <time>2017-12-15T22:54:54Z</time>
      </trkpt>
      <trkpt lat="44.80436" lon="5.92885">
        <ele>898.8</ele>
        <time>2017-12-15T22:55:07Z</time>
      </trkpt>
      <trkpt lat="44.80396" lon="5.92886">
        <ele>902</ele>
        <time>2017-12-15T22:55:17Z</time>
      </trkpt>
      <trkpt lat="44.8038" lon="5.9289">
        <ele>901.4</ele>
        <time>2017-12-15T22:55:29Z</time>
      </trkpt>
      <trkpt lat="44.80373" lon="5.92894">
        <ele>900.9</ele>
        <time>2017-12-15T22:55:31Z</time>
      </trkpt>
      <trkpt lat="44.80362" lon="5.92907">
        <ele>901.8</ele>
        <time>2017-12-15T22:55:37Z</time>
      </trkpt>
      <trkpt lat="44.80353" lon="5.92929">
        <ele>903.6</ele>
        <time>2017-12-15T22:55:44Z</time>
      </trkpt>
      <trkpt lat="44.80341" lon="5.92978">
        <ele>907.3</ele>
        <time>2017-12-15T22:55:58Z</time>
      </trkpt>
      <trkpt lat="44.80328" lon="5.9301">
        <ele>906.3</ele>
        <time>2017-12-15T22:56:01Z</time>
      </trkpt>
      <trkpt lat="44.80304" lon="5.93047">
        <ele>905.9</ele>
        <time>2017-12-15T22:56:09Z</time>
      </trkpt>
      <trkpt lat="44.80295" lon="5.93059">
        <ele>907.4</ele>
        <time>2017-12-15T22:56:27Z</time>
      </trkpt>
      <trkpt lat="44.80285" lon="5.93068">
        <ele>908.3</ele>
        <time>2017-12-15T22:56:39Z</time>
      </trkpt>
      <trkpt lat="44.80268" lon="5.9308">
        <ele>909.1</ele>
        <time>2017-12-15T22:56:45Z</time>
      </trkpt>
      <trkpt lat="44.80251" lon="5.93088">
        <ele>909.6</ele>
        <time>2017-12-15T22:56:54Z</time>
      </trkpt>
      <trkpt lat="44.80232" lon="5.93093">
        <ele>909.6</ele>
        <time>2017-12-15T22:57:14Z</time>
      </trkpt>
      <trkpt lat="44.80204" lon="5.93096">
        <ele>909.9</ele>
        <time>2017-12-15T22:57:24Z</time>
      </trkpt>
      <trkpt lat="44.80166" lon="5.93098">
        <ele>911.8</ele>
        <time>2017-12-15T22:57:35Z</time>
      </trkpt>
      <trkpt lat="44.80155" lon="5.93096">
        <ele>912.1</ele>
        <time>2017-12-15T22:57:55Z</time>
      </trkpt>
      <trkpt lat="44.8013" lon="5.93083">
        <ele>910.5</ele>
        <time>2017-12-15T22:57:58Z</time>
      </trkpt>
      <trkpt lat="44.80079" lon="5.93064">
        <ele>913.4</ele>
        <time>2017-12-15T22:58:17Z</time>
      </trkpt>
      <trkpt lat="44.80047" lon="5.93054">
        <ele>914.6</ele>
        <time>2017-12-15T22:58:24Z</time>
      </trkpt>
      <trkpt lat="44.80014" lon="5.9304">
        <ele>914.4</ele>
        <time>2017-12-15T22:58:28Z</time>
      </trkpt>
      <trkpt lat="44.79951" lon="5.93013">
        <ele>914.1</ele>
        <time>2017-12-15T22:58:38Z</time>
      </trkpt>
      <trkpt lat="44.79901" lon="5.9299">
        <ele>915.2</ele>
        <time>2017-12-15T22:58:47Z</time>
      </trkpt>
      <trkpt lat="44.79836" lon="5.92967">
        <ele>918.1</ele>
        <time>2017-12-15T22:59:07Z</time>
      </trkpt>
      <trkpt lat="44.79801" lon="5.92957">
        <ele>919.1</ele>
        <time>2017-12-15T22:59:18Z</time>
      </trkpt>
      <trkpt lat="44.79758" lon="5.92936">
        <ele>918</ele>
        <time>2017-12-15T22:59:37Z</time>
      </trkpt>
      <trkpt lat="44.79718" lon="5.92915">
        <ele>917.5</ele>
        <time>2017-12-15T22:59:51Z</time>
      </trkpt>
      <trkpt lat="44.79668" lon="5.92865">
        <ele>914.7</ele>
        <time>2017-12-15T23:00:01Z</time>
      </trkpt>
      <trkpt lat="44.79642" lon="5.92842">
        <ele>913.7</ele>
        <time>2017-12-15T23:00:17Z</time>
      </trkpt>
      <trkpt lat="44.79606" lon="5.92816">
        <ele>912.8</ele>
        <time>2017-12-15T23:00:35Z</time>
      </trkpt>
      <trkpt lat="44.79549" lon="5.9278">
        <ele>910.3</ele>
        <time>2017-12-15T23:00:45Z</time>
      </trkpt>
      <trkpt lat="44.79515" lon="5.92767">
        <ele>911.4</ele>
        <time>2017-12-15T23:01:04Z</time>
      </trkpt>
      <trkpt lat="44.79489" lon="5.92766">
        <ele>915.3</ele>
        <time>2017-12-15T23:01:16Z</time>
      </trkpt>
      <trkpt lat="44.79451" lon="5.92771">
        <ele>921</ele>
        <time>2017-12-15T23:01:19Z</time>
      </trkpt>
      <trkpt lat="44.79431" lon="5.92772">
        <ele>922</ele>
        <time>2017-12-15T23:01:23Z</time>
      </trkpt>
      <trkpt lat="44.79403" lon="5.9278">
        <ele>924.8</ele>
        <time>2017-12-15T23:01:43Z</time>
      </trkpt>
      <trkpt lat="44.79353" lon="5.92781">
        <ele>924.3</ele>
        <time>2017-12-15T23:01:45Z</time>
      </trkpt>
      <trkpt lat="44.79323" lon="5.92782">
        <ele>924.7</ele>
        <time>2017-12-15T23:02:00Z</time>
      </trkpt>
      <trkpt lat="44.79298" lon="5.9279">
        <ele>929</ele>
        <time>2017-12-15T23:02:14Z</time>
      </trkpt>
      <trkpt lat="44.79288" lon="5.9279">
        <ele>929.9</ele>
        <time>2017-12-15T23:02:24Z</time>
      </trkpt>
      <trkpt lat="44.79279" lon="5.92785">
        <ele>928.7</ele>
        <time>2017-12-15T23:02:32Z</time>
      </trkpt>
      <trkpt lat="44.79254" lon="5.92769">
        <ele>927.1</ele>
        <time>2017-12-15T23:02:38Z</time>
      </trkpt>
      <trkpt lat="44.79234" lon="5.92761">
        <ele>927.5</ele>
        <time>2017-12-15T23:02:45Z</time>
      </trkpt>
      <trkpt lat="44.79211" lon="5.92747">
        <ele>925.9</ele>
        <time>2017-12-15T23:03:03Z</time>
      </trkpt>
      <trkpt lat="44.79188" lon="5.92736">
        <ele>925.2</ele>
        <time>2017-12-15T23:03:08Z</time>
      </trkpt>
      <trkpt lat="44.79165" lon="5.92733">
        <ele>926.4</ele>
        <time>2017-12-15T23:03:27Z</time>
      </trkpt>
      <trkpt lat="44.79095" lon="5.92726">
        <ele>929.8</ele>
        <time>2017-12-15T23:03:34Z</time>
      </trkpt>
      <trkpt lat="44.79037" lon="5.92718">
        <ele>928.2</ele>
        <time>2017-12-15T23:03:50Z</time>
      </trkpt>
      <trkpt lat="44.79011" lon="5.92717">
        <ele>927.9</ele>
        <time>2017-12-15T23:04:00Z</time>
      </trkpt>
      <trkpt lat="44.78998" lon="5.92721">
        <ele>929.5</ele>
        <time>2017-12-15T23:04:03Z</time>
      </trkpt>
      <trkpt lat="44.78987" lon="5.9272">
        <ele>929.1</ele>
        <time>2017-12-15T23:04:20Z</time>
      </trkpt>
      <trkpt lat="44.78975" lon="5.92714">
        <ele>926.7</ele>
        <time>2017-12-15T23:04:25Z</time>
      </trkpt>
      <trkpt lat="44.78961" lon="5.92713">
        <ele>926.1</ele>
        <time>2017-12-15T23:04:35Z</time>
      </trkpt>
      <trkpt lat="44.78939" lon="5.92721">
        <ele>928</ele>
        <time>2017-12-15T23:04:39Z</time>
      </trkpt>
      <trkpt lat="44.78926" lon="5.92728">
        <ele>928.9</ele>
        <time>2017-12-15T23:04:57Z</time>
      </trkpt>
      <trkpt lat="44.78904" lon="5.92734">
        <ele>927.1</ele>
        <time>2017-12-15T23:05:15Z</time>
      </trkpt>
      <trkpt lat="44.78892" lon="5.92743">
        <ele>927.4</ele>
        <time>2017-12-15T23:05:24Z</time>
      </trkpt>
      <trkpt lat="44.78876" lon="5.9277">
        <ele>932</ele>
        <time>2017-12-15T23:05:27Z</time>
      </trkpt>
      <trkpt lat="44.78866" lon="5.9278">
        <ele>933.2</ele>
        <time>2017-12-15T23:05:45Z</time>
      </trkpt>
      <trkpt lat="44.78848" lon="5.9279">
        <ele>933</ele>
        <time>2017-12-15T23:05:54Z</time>
      </trkpt>
      <trkpt lat="44.78824" lon="5.9281">
        <ele>936.8</ele>
        <time>2017-12-15T23:06:03Z</time>
      </trkpt>
      <trkpt lat="44.78814" lon="5.92819">
        <ele>939.3</ele>
        <time>2017-12-15T23:06:05Z</time>
      </trkpt>
      <trkpt lat="44.78804" lon="5.92822">
        <ele>939.3</ele>
        <time>2017-12-15T23:06:14Z</time>
      </trkpt>
      <trkpt lat="44.78787" lon="5.92821">
        <ele>941.3</ele>
        <time>2017-12-15T23:06:20Z</time>
      </trkpt>
      <trkpt lat="44.78775" lon="5.92816">
        <ele>942.2</ele>
        <time>2017-12-15T23:06:34Z</time>
      </trkpt>
      <trkpt lat="44.7877" lon="5.9281">
        <ele>942.9</ele>
        <time>2017-12-15T23:06:47Z</time>
      </trkpt>
      <trkpt lat="44.78765" lon="5.928">
        <ele>943.2</ele>
        <time>2017-12-15T23:06:59Z</time>
      </trkpt>
      <trkpt lat="44.7876" lon="5.92752">
        <ele>938.4</ele>
        <time>2017-12-15T23:07:15Z</time>
      </trkpt>
      <trkpt lat="44.78759" lon="5.92698">
        <ele>931.4</ele>
        <time>2017-12-15T23:07:28Z</time>
      </trkpt>
      <trkpt lat="44.78749" lon="5.92636">
        <ele>928</ele>
        <time>2017-12-15T23:07:46Z</time>
      </trkpt>
      <trkpt lat="44.78731" lon="5.92595">
        <ele>929</ele>
        <time>2017-12-15T23:07:51Z</time>
      </trkpt>
      <trkpt lat="44.7871" lon="5.9257">
        <ele>930.6</ele>
        <time>2017-12-15T23:07:59Z</time>
      </trkpt>
      <trkpt lat="44.78687" lon="5.9255">
        <ele>930.8</ele>
        <time>2017-12-15T23:08:16Z</time>
      </trkpt>
      <trkpt lat="44.78626" lon="5.92518">
        <ele>927.7</ele>
        <time>2017-12-15T23:08:18Z</time>
      </trkpt>
      <trkpt lat="44.78573" lon="5.92504">
        <ele>924.2</ele>
        <time>2017-12-15T23:08:36Z</time>
      </trkpt>
      <trkpt lat="44.78503" lon="5.92494">
        <ele>921.2</ele>
        <time>2017-12-15T23:08:41Z</time>
      </trkpt>
      <trkpt lat="44.78446" lon="5.92489">
        <ele>917.9</ele>
        <time>2017-12-15T23:08:43Z</time>
      </trkpt>
      <trkpt lat="44.78382" lon="5.925">
        <ele>918</ele>
        <time>2017-12-15T23:09:02Z</time>
      </trkpt>
      <trkpt lat="44.78357" lon="5.9251">
        <ele>918.5</ele>
        <time>2017-12-15T23:09:15Z</time>
      </trkpt>
      <trkpt lat="44.7834" lon="5.9252">
        <ele>918.7</ele>
        <time>2017-12-15T23:09:19Z</time>
      </trkpt>
      <trkpt lat="44.78318" lon="5.92532">
        <ele>916.8</ele>
        <time>2017-12-15T23:09:21Z</time>
      </trkpt>
      <trkpt lat="44.78302" lon="5.92544">
        <ele>914.7</ele>
        <time>2017-12-15T23:09:25Z</time>
      </trkpt>
      <trkpt lat="44.78293" lon="5.92558">
        <ele>914.5</ele>
        <time>2017-12-15T23:09:36Z</time>
      </trkpt>
      <trkpt lat="44.78282" lon="5.9259">
        <ele>915.2</ele>
        <time>2017-12-15T23:09:49Z</time>
      </trkpt>
      <trkpt lat="44.78258" lon="5.92671">
        <ele>912.4</ele>
        <time>2017-12-15T23:09:59Z</time>
      </trkpt>
      <trkpt lat="44.78246" lon="5.92747">
        <ele>910.2</ele>
        <time>2017-12-15T23:10:08Z</time>
      </trkpt>
      <trkpt lat="44.78232" lon="5.92814">
        <ele>911.1</ele>
        <time>2017-12-15T23:10:19Z</time>
      </trkpt>
      <trkpt lat="44.7822" lon="5.92855">
        <ele>911.3</ele>
        <time>2017-12-15T23:10:35Z</time>
      </trkpt>
      <trkpt lat="44.78218" lon="5.92858">
        <ele>911.9</ele>
        <time>2017-12-15T23:10:52Z</time>
      </trkpt>
      <trkpt lat="44.78208" lon="5.92859">
        <ele>912.8</ele>
        <time>2017-12-15T23:10:54Z</time>
      </trkpt>
      <trkpt lat="44.78201" lon="5.92858">
        <ele>913.3</ele>
        <time>2017-12-15T23:11:13Z</time>
      </trkpt>
      <trkpt lat="44.78186" lon="5.92831">
        <ele>917.3</ele>
        <time>2017-12-15T23:11:25Z</time>
      </trkpt>
      <trkpt lat="44.78175" lon="5.92809">
        <ele>919.1</ele>
        <time>2017-12-15T23:11:40Z</time>
      </trkpt>
      <trkpt lat="44.78147" lon="5.92771">
        <ele>921.3</ele>
        <time>2017-12-15T23:11:49Z</time>
      </trkpt>
      <trkpt lat="44.78112" lon="5.92726">
        <ele>915.2</ele>
        <time>2017-12-15T23:11:57Z</time>
      </trkpt>
      <trkpt lat="44.78106" lon="5.92724">
        <ele>914.5</ele>
        <time>2017-12-15T23:12:06Z</time>
      </trkpt>
      <trkpt lat="44.781" lon="5.92727">
        <ele>915.5</ele>
        <time>2017-12-15T23:12:16Z</time>
      </trkpt>
      <trkpt lat="44.78083" lon="5.92747">
        <ele>922.7</ele>
        <time>2017-12-15T23:12:28Z</time>
      </trkpt>
      <trkpt lat="44.78063" lon="5.9277">
        <ele>927.2</ele>
        <time>2017-12-15T23:12:40Z</time>
      </trkpt>
      <trkpt lat="44.78035" lon="5.92796">
        <ele>928.1</ele>
        <time>2017-12-15T23:12:56Z</time>
      </trkpt>
      <trkpt lat="44.78021" lon="5.92812">
        <ele>930.7</ele>
        <time>2017-12-15T23:12:58Z</time>
      </trkpt>
      <trkpt lat="44.78009" lon="5.92822">
        <ele>931.6</ele>
        <time>2017-12-15T23:13:00Z</time>
      </trkpt>
      <trkpt lat="44.77982" lon="5.9284">
        <ele>931.5</ele>
        <time>2017-12-15T23:13:15Z</time>
      </trkpt>
      <trkpt lat="44.7797" lon="5.92853">
        <ele>934.8</ele>
        <time>2017-12-15T23:13:34Z</time>
      </trkpt>
      <trkpt lat="44.77959" lon="5.92863">
        <ele>937.2</ele>
        <time>2017-12-15T23:13:54Z</time>
      </trkpt>
      <trkpt lat="44.77945" lon="5.92868">
        <ele>936.1</ele>
        <time>2017-12-15T23:14:09Z</time>
      </trkpt>
      <trkpt lat="44.77915" lon="5.92871">
        <ele>933.7</ele>
        <time>2017-12-15T23:14:17Z</time>
      </trkpt>
      <trkpt lat="44.77902" lon="5.92874">
        <ele>935.4</ele>
        <time>2017-12-15T23:14:31Z</time>
      </trkpt>
      <trkpt lat="44.77887" lon="5.92882">
        <ele>938.3</ele>
        <time>2017-12-15T23:14:35Z</time>
      </trkpt>
      <trkpt lat="44.77878" lon="5.92882">
        <ele>939.8</ele>
        <time>2017-12-15T23:14:37Z</time>
      </trkpt>
      <trkpt lat="44.77875" lon="5.9288">
        <ele>939.9</ele>
        <time>2017-12-15T23:14:44Z</time>
      </trkpt>
      <trkpt lat="44.77871" lon="5.92876">
        <ele>940</ele>
        <time>2017-12-15T23:14:59Z</time>
      </trkpt>
      <trkpt lat="44.77865" lon="5.92862">
        <ele>939.8</ele>
        <time>2017-12-15T23:15:02Z</time>
      </trkpt>
      <trkpt lat="44.7786" lon="5.92835">
        <ele>940.5</ele>
        <time>2017-12-15T23:15:20Z</time>
      </trkpt>
      <trkpt lat="44.77864" lon="5.92805">
        <ele>939.8</ele>
        <time>2017-12-15T23:15:40Z</time>
      </trkpt>
      <trkpt lat="44.77867" lon="5.92761">
        <ele>941.6</ele>
        <time>2017-12-15T23:15:46Z</time>
      </trkpt>
      <trkpt lat="44.77867" lon="5.92724">
        <ele>945.1</ele>
        <time>2017-12-15T23:16:02Z</time>
      </trkpt>
      <trkpt lat="44.77871" lon="5.92692">
        <ele>945.2</ele>
        <time>2017-12-15T23:16:08Z</time>
      </trkpt>
      <trkpt lat="44.77873" lon="5.92648">
        <ele>946.1</ele>
        <time>2017-12-15T23:16:24Z</time>
      </trkpt>
      <trkpt lat="44.7787" lon="5.92615">
        <ele>945</ele>
        <time>2017-12-15T23:16:41Z</time>
      </trkpt>
      <trkpt lat="44.77868" lon="5.92608">
        <ele>944.4</ele>
        <time>2017-12-15T23:17:01Z</time>
      </trkpt>
      <trkpt lat="44.77861" lon="5.92601">
        <ele>943.8</ele>
        <time>2017-12-15T23:17:04Z</time>
      </trkpt>
      <trkpt lat="44.77841" lon="5.92602">
        <ele>943.3</ele>
        <time>2017-12-15T23:17:12Z</time>
      </trkpt>
      <trkpt lat="44.77812" lon="5.92627">
        <ele>947.7</ele>
        <time>2017-12-15T23:17:16Z</time>
      </trkpt>
      <trkpt lat="44.77775" lon="5.92648">
        <ele>952.1</ele>
        <time>2017-12-15T23:17:22Z</time>
      </trkpt>
      <trkpt lat="44.77769" lon="5.92651">
        <ele>952.9</ele>
        <time>2017-12-15T23:17:32Z</time>
      </trkpt>
      <trkpt lat="44.77757" lon="5.9265">
        <ele>953.1</ele>
        <time>2017-12-15T23:17:49Z</time>
      </trkpt>
      <trkpt lat="44.77735" lon="5.92639">
        <ele>953.2</ele>
        <time>2017-12-15T23:18:04Z</time>
      </trkpt>
      <trkpt lat="44.77725" lon="5.92631">
        <ele>953.2</ele>
        <time>2017-12-15T23:18:16Z</time>
      </trkpt>
      <trkpt lat="44.7772" lon="5.92624">
        <ele>952.8</ele>
        <time>2017-12-15T23:18:24Z</time>
      </trkpt>
      <trkpt lat="44.77717" lon="5.92602">
        <ele>950.4</ele>
        <time>2017-12-15T23:18:36Z</time>
      </trkpt>
      <trkpt lat="44.77721" lon="5.9257">
        <ele>946.9</ele>
        <time>2017-12-15T23:18:52Z</time>
      </trkpt>
      <trkpt lat="44.77721" lon="5.92554">
        <ele>946.2</ele>
        <time>2017-12-15T23:19:04Z</time>
      </trkpt>
      <trkpt lat="44.77718" lon="5.92539">
        <ele>946</ele>
        <time>2017-12-15T23:19:21Z</time>
      </trkpt>
      <trkpt lat="44.77703" lon="5.92535">
        <ele>949.9</ele>
        <time>2017-12-15T23:19:31Z</time>
      </trkpt>
      <trkpt lat="44.77687" lon="5.92526">
        <ele>953.8</ele>
        <time>2017-12-15T23:19:39Z</time>
      </trkpt>
      <trkpt lat="44.7768" lon="5.92506">
        <ele>955.3</ele>
        <time>2017-12-15T23:19:47Z</time>
      </trkpt>
      <trkpt lat="44.77681" lon="5.92481">
        <ele>954.5</ele>
        <time>2017-12-15T23:19:52Z</time>
      </trkpt>
      <trkpt lat="44.77697" lon="5.92421">
        <ele>949.3</ele>
        <time>2017-12-15T23:20:11Z</time>
      </trkpt>
      <trkpt lat="44.77701" lon="5.92389">
        <ele>948.1</ele>
        <time>2017-12-15T23:20:20Z</time>
      </trkpt>
      <trkpt lat="44.77706" lon="5.92304">
        <ele>946</ele>
        <time>2017-12-15T23:20:36Z</time>
      </trkpt>
      <trkpt lat="44.77707" lon="5.92259">
        <ele>944.2</ele>
        <time>2017-12-15T23:20:46Z</time>
      </trkpt>
      <trkpt lat="44.77704" lon="5.92226">
        <ele>942.9</ele>
        <time>2017-12-15T23:21:06Z</time>
      </trkpt>
      <trkpt lat="44.77693" lon="5.92194">
        <ele>943.1</ele>
        <time>2017-12-15T23:21:24Z</time>
      </trkpt>
      <trkpt lat="44.77684" lon="5.92184">
        <ele>941.7</ele>
        <time>2017-12-15T23:21:34Z</time>
      </trkpt>
      <trkpt lat="44.77674" lon="5.92179">
        <ele>941.6</ele>
        <time>2017-12-15T23:21:39Z</time>
      </trkpt>
      <trkpt lat="44.77659" lon="5.92176">
        <ele>941.7</ele>
        <time>2017-12-15T23:21:46Z</time>
      </trkpt>
      <trkpt lat="44.77623" lon="5.92177">
        <ele>942</ele>
        <time>2017-12-15T23:21:50Z</time>
      </trkpt>
      <trkpt lat="44.77579" lon="5.92178">
        <ele>941.7</ele>
        <time>2017-12-15T23:21:54Z</time>
      </trkpt>
      <trkpt lat="44.77553" lon="5.92171">
        <ele>939.4</ele>
        <time>2017-12-15T23:22:14Z</time>
      </trkpt>
      <trkpt lat="44.77537" lon="5.9217">
        <ele>939.2</ele>
        <time>2017-12-15T23:22:25Z</time>
      </trkpt>
      <trkpt lat="44.77518" lon="5.92171">
        <ele>940.6</ele>
        <time>2017-12-15T23:22:27Z</time>
      </trkpt>
      <trkpt lat="44.77509" lon="5.92169">
        <ele>940.9</ele>
        <time>2017-12-15T23:22:40Z</time>
      </trkpt>
      <trkpt lat="44.77504" lon="5.92164">
        <ele>939.6</ele>
        <time>2017-12-15T23:22:45Z</time>
      </trkpt>
      <trkpt lat="44.77499" lon="5.92154">
        <ele>936.6</ele>
        <time>2017-12-15T23:22:51Z</time>
      </trkpt>
      <trkpt lat="44.77484" lon="5.92128">
        <ele>930.2</ele>
        <time>2017-12-15T23:22:58Z</time>
      </trkpt>
      <trkpt lat="44.77454" lon="5.92097">
        <ele>927.5</ele>
        <time>2017-12-15T23:23:03Z</time>
      </trkpt>
      <trkpt lat="44.77447" lon="5.92089">
        <ele>927</ele>
        <time>2017-12-15T23:23:23Z</time>
      </trkpt>
      <trkpt lat="44.77447" lon="5.92084">
        <ele>925.5</ele>
        <time>2017-12-15T23:23:43Z</time>
      </trkpt>
      <trkpt lat="44.77433" lon="5.92074">
        <ele>928.4</ele>
        <time>2017-12-15T23:23:53Z</time>
      </trkpt>
      <trkpt lat="44.77426" lon="5.92066">
        <ele>929.5</ele>
        <time>2017-12-15T23:23:56Z</time>
      </trkpt>
      <trkpt lat="44.7742" lon="5.92053">
        <ele>929.7</ele>
        <time>2017-12-15T23:24:10Z</time>
      </trkpt>
      <trkpt lat="44.77418" lon="5.92042">
        <ele>930</ele>
        <time>2017-12-15T23:24:13Z</time>
      </trkpt>
      <trkpt lat="44.7742" lon="5.92029">
        <ele>928.5</ele>
        <time>2017-12-15T23:24:31Z</time>
      </trkpt>
      <trkpt lat="44.77439" lon="5.91962">
        <ele>917.6</ele>
        <time>2017-12-15T23:24:46Z</time>
      </trkpt>
      <trkpt lat="44.77442" lon="5.91948">
        <ele>914.5</ele>
        <time>2017-12-15T23:24:57Z</time>
      </trkpt>
      <trkpt lat="44.77441" lon="5.91941">
        <ele>913.7</ele>
        <time>2017-12-15T23:25:07Z</time>
      </trkpt>
      <trkpt lat="44.77425" lon="5.91928">
        <ele>917.5</ele>
        <time>2017-12-15T23:25:16Z</time>
      </trkpt>
      <trkpt lat="44.77384" lon="5.91894">
        <ele>925.8</ele>
        <time>2017-12-15T23:25:23Z</time>
      </trkpt>
      <trkpt lat="44.77373" lon="5.91879">
        <ele>926.3</ele>
        <time>2017-12-15T23:25:41Z</time>
      </trkpt>
      <trkpt lat="44.77368" lon="5.91865">
        <ele>924</ele>
        <time>2017-12-15T23:25:44Z</time>
      </trkpt>
      <trkpt lat="44.77363" lon="5.91828">
        <ele>914</ele>
        <time>2017-12-15T23:26:04Z</time>
      </trkpt>
      <trkpt lat="44.7735" lon="5.91803">
        <ele>914.1</ele>
        <time>2017-12-15T23:26:19Z</time>
      </trkpt>
      <trkpt lat="44.77336" lon="5.91763">
        <ele>913.9</ele>
        <time>2017-12-15T23:26:35Z</time>
      </trkpt>
      <trkpt lat="44.77326" lon="5.91716">
        <ele>910.1</ele>
        <time>2017-12-15T23:26:41Z</time>
      </trkpt>
      <trkpt lat="44.77323" lon="5.91689">
        <ele>905.6</ele>
        <time>2017-12-15T23:26:59Z</time>
      </trkpt>
      <trkpt lat="44.77319" lon="5.91676">
        <ele>904.6</ele>
        <time>2017-12-15T23:27:18Z</time>
      </trkpt>
      <trkpt lat="44.77311" lon="5.91662">
        <ele>904.8</ele>
        <time>2017-12-15T23:27:22Z</time>
      </trkpt>
      <trkpt lat="44.77305" lon="5.91652">
        <ele>904.4</ele>
        <time>2017-12-15T23:27:42Z</time>
      </trkpt>
      <trkpt lat="44.77292" lon="5.91645">
        <ele>905.4</ele>
        <time>2017-12-15T23:27:57Z</time>
      </trkpt>
      <trkpt lat="44.77263" lon="5.91641">
        <ele>908.7</ele>
        <time>2017-12-15T23:28:00Z</time>
      </trkpt>
      <trkpt lat="44.77239" lon="5.91639">
        <ele>909.4</ele>
        <time>2017-12-15T23:28:10Z</time>
      </trkpt>
      <trkpt lat="44.77216" lon="5.91635">
        <ele>908.6</ele>
        <time>2017-12-15T23:28:17Z</time>
      </trkpt>
      <trkpt lat="44.77185" lon="5.91625">
        <ele>905.7</ele>
        <time>2017-12-15T23:28:37Z</time>
      </trkpt>
      <trkpt lat="44.77145" lon="5.91608">
        <ele>901.9</ele>
        <time>2017-12-15T23:28:43Z</time>
      </trkpt>
      <trkpt lat="44.77126" lon="5.916">
        <ele>900.5</ele>
        <time>2017-12-15T23:28:49Z</time>
      </trkpt>
      <trkpt lat="44.77109" lon="5.9159">
        <ele>898.3</ele>
        <time>2017-12-15T23:29:09Z</time>
      </trkpt>
      <trkpt lat="44.77101" lon="5.91581">
        <ele>896.3</ele>
        <time>2017-12-15T23:29:14Z</time>
      </trkpt>
      <trkpt lat="44.77098" lon="5.91574">
        <ele>895.6</ele>
        <time>2017-12-15T23:29:29Z</time>
      </trkpt>
      <trkpt lat="44.77096" lon="5.91547">
        <ele>893</ele>
        <time>2017-12-15T23:29:48Z</time>
      </trkpt>
      <trkpt lat="44.771" lon="5.91519">
        <ele>891.5</ele>
        <time>2017-12-15T23:29:53Z</time>
      </trkpt>
      <trkpt lat="44.77099" lon="5.91495">
        <ele>892.6</ele>
        <time>2017-12-15T23:30:09Z</time>
      </trkpt>
      <trkpt lat="44.77108" lon="5.91476">
        <ele>890.1</ele>
        <time>2017-12-15T23:30:25Z</time>
      </trkpt>
      <trkpt lat="44.77115" lon="5.91451">
        <ele>890.1</ele>
        <time>2017-12-15T23:30:45Z</time>
      </trkpt>
      <trkpt lat="44.77124" lon="5.91425">
        <ele>889.5</ele>
        <time>2017-12-15T23:31:03Z</time>
      </trkpt>
      <trkpt lat="44.77129" lon="5.91411">
        <ele>889.5</ele>
        <time>2017-12-15T23:31:18Z</time>
      </trkpt>
      <trkpt lat="44.77132" lon="5.91388">
        <ele>891</ele>
        <time>2017-12-15T23:31:28Z</time>
      </trkpt>
      <trkpt lat="44.77133" lon="5.9134">
        <ele>888.1</ele>
        <time>2017-12-15T23:31:43Z</time>
      </trkpt>
      <trkpt lat="44.77126" lon="5.9129">
        <ele>887.1</ele>
        <time>2017-12-15T23:31:56Z</time>
      </trkpt>
      <trkpt lat="44.77117" lon="5.91262">
        <ele>887.8</ele>
        <time>2017-12-15T23:32:07Z</time>
      </trkpt>
      <trkpt lat="44.77101" lon="5.91228">
        <ele>890.9</ele>
        <time>2017-12-15T23:32:18Z</time>
      </trkpt>
      <trkpt lat="44.77076" lon="5.9118">
        <ele>894.4</ele>
        <time>2017-12-15T23:32:20Z</time>
      </trkpt>
      <trkpt lat="44.77068" lon="5.91154">
        <ele>894.3</ele>
        <time>2017-12-15T23:32:22Z</time>
      </trkpt>
      <trkpt lat="44.77061" lon="5.91123">
        <ele>893.3</ele>
        <time>2017-12-15T23:32:25Z</time>
      </trkpt>
      <trkpt lat="44.77055" lon="5.91082">
        <ele>890.1</ele>
        <time>2017-12-15T23:32:33Z</time>
      </trkpt>
      <trkpt lat="44.77045" lon="5.9104">
        <ele>888.9</ele>
        <time>2017-12-15T23:32:47Z</time>
      </trkpt>
      <trkpt lat="44.77023" lon="5.91003">
        <ele>891.9</ele>
        <time>2017-12-15T23:32:51Z</time>
      </trkpt>
      <trkpt lat="44.77008" lon="5.9097">
        <ele>893.2</ele>
        <time>2017-12-15T23:32:57Z</time>
      </trkpt>
      <trkpt lat="44.76996" lon="5.90929">
        <ele>892.1</ele>
        <time>2017-12-15T23:33:01Z</time>
      </trkpt>
      <trkpt lat="44.76991" lon="5.90913">
        <ele>891.2</ele>
        <time>2017-12-15T23:33:03Z</time>
      </trkpt>
      <trkpt lat="44.76981" lon="5.90903">
        <ele>892.4</ele>
        <time>2017-12-15T23:33:19Z</time>
      </trkpt>
      <trkpt lat="44.76967" lon="5.90893">
        <ele>894.4</ele>
        <time>2017-12-15T23:33:29Z</time>
      </trkpt>
      <trkpt lat="44.76956" lon="5.9089">
        <ele>896.9</ele>
        <time>2017-12-15T23:33:40Z</time>
      </trkpt>
      <trkpt lat="44.76945" lon="5.90894">
        <ele>901.1</ele>
        <time>2017-12-15T23:33:50Z</time>
      </trkpt>
      <trkpt lat="44.76926" lon="5.90903">
        <ele>909.2</ele>
        <time>2017-12-15T23:34:03Z</time>
      </trkpt>
      <trkpt lat="44.76919" lon="5.90901">
        <ele>910.8</ele>
        <time>2017-12-15T23:34:21Z</time>
      </trkpt>
      <trkpt lat="44.76912" lon="5.90894">
        <ele>911</ele>
        <time>2017-12-15T23:34:29Z</time>
      </trkpt>
      <trkpt lat="44.76899" lon="5.90869">
        <ele>908</ele>
        <time>2017-12-15T23:34:43Z</time>
      </trkpt>
      <trkpt lat="44.76888" lon="5.90852">
        <ele>907.9</ele>
        <time>2017-12-15T23:34:48Z</time>
      </trkpt>
      <trkpt lat="44.76885" lon="5.90842">
        <ele>907.8</ele>
        <time>2017-12-15T23:34:55Z</time>
      </trkpt>
      <trkpt lat="44.76885" lon="5.9083">
        <ele>905.8</ele>
        <time>2017-12-15T23:35:04Z</time>
      </trkpt>
      <trkpt lat="44.76888" lon="5.90802">
        <ele>900.1</ele>
        <time>2017-12-15T23:35:13Z</time>
      </trkpt>
      <trkpt lat="44.76887" lon="5.90784">
        <ele>898.4</ele>
        <time>2017-12-15T23:35:29Z</time>
      </trkpt>
      <trkpt lat="44.76882" lon="5.90759">
        <ele>899.2</ele>
        <time>2017-12-15T23:35:41Z</time>
      </trkpt>
      <trkpt lat="44.76874" lon="5.90735">
        <ele>901.9</ele>
        <time>2017-12-15T23:36:01Z</time>
      </trkpt>
      <trkpt lat="44.76865" lon="5.90722">
        <ele>906.7</ele>
        <time>2017-12-15T23:36:16Z</time>
      </trkpt>
      <trkpt lat="44.76862" lon="5.9071">
        <ele>906.2</ele>
        <time>2017-12-15T23:36:24Z</time>
      </trkpt>
      <trkpt lat="44.76861" lon="5.90694">
        <ele>903</ele>
        <time>2017-12-15T23:36:43Z</time>
      </trkpt>
      <trkpt lat="44.76855" lon="5.90673">
        <ele>902.5</ele>
        <time>2017-12-15T23:36:46Z</time>
      </trkpt>
      <trkpt lat="44.7684" lon="5.90648">
        <ele>907.7</ele>
        <time>2017-12-15T23:37:00Z</time>
      </trkpt>
      <trkpt lat="44.76835" lon="5.90618">
        <ele>902.8</ele>
        <time>2017-12-15T23:37:13Z</time>
      </trkpt>
      <trkpt lat="44.76822" lon="5.9056">
        <ele>900.3</ele>
        <time>2017-12-15T23:37:18Z</time>
      </trkpt>
      <trkpt lat="44.768" lon="5.9048">
        <ele>899.6</ele>
        <time>2017-12-15T23:37:36Z</time>
      </trkpt>
      <trkpt lat="44.76784" lon="5.90434">
        <ele>897.1</ele>
        <time>2017-12-15T23:37:45Z</time>
      </trkpt>
      <trkpt lat="44.76771" lon="5.90412">
        <ele>897.3</ele>
        <time>2017-12-15T23:37:54Z</time>
      </trkpt>
      <trkpt lat="44.76757" lon="5.904">
        <ele>899.9</ele>
        <time>2017-12-15T23:38:14Z</time>
      </trkpt>
      <trkpt lat="44.76736" lon="5.90389">
        <ele>904.1</ele>
        <time>2017-12-15T23:38:19Z</time>
      </trkpt>
      <trkpt lat="44.76679" lon="5.90367">
        <ele>915.7</ele>
        <time>2017-12-15T23:38:24Z</time>
      </trkpt>
      <trkpt lat="44.76669" lon="5.90358">
        <ele>915.5</ele>
        <time>2017-12-15T23:38:36Z</time>
      </trkpt>
      <trkpt lat="44.7666" lon="5.90341">
        <ele>911.1</ele>
        <time>2017-12-15T23:38:54Z</time>
      </trkpt>
      <trkpt lat="44.76649" lon="5.90307">
        <ele>899.6</ele>
        <time>2017-12-15T23:38:59Z</time>
      </trkpt>
      <trkpt lat="44.76643" lon="5.90305">
        <ele>901.2</ele>
        <time>2017-12-15T23:39:14Z</time>
      </trkpt>
      <trkpt lat="44.76636" lon="5.9031">
        <ele>905.7</ele>
        <time>2017-12-15T23:39:21Z</time>
      </trkpt>
      <trkpt lat="44.76618" lon="5.90319">
        <ele>914.5</ele>
        <time>2017-12-15T23:39:30Z</time>
      </trkpt>
      <trkpt lat="44.76606" lon="5.90321">
        <ele>918.2</ele>
        <time>2017-12-15T23:39:40Z</time>
      </trkpt>
      <trkpt lat="44.76599" lon="5.90316">
        <ele>918</ele>
        <time>2017-12-15T23:39:46Z</time>
      </trkpt>
      <trkpt lat="44.76593" lon="5.90307">
        <ele>916.7</ele>
        <time>2017-12-15T23:39:59Z</time>
      </trkpt>
      <trkpt lat="44.7659" lon="5.90294">
        <ele>915.8</ele>
        <time>2017-12-15T23:40:03Z</time>
      </trkpt>
      <trkpt lat="44.76593" lon="5.90275">
        <ele>912.7</ele>
        <time>2017-12-15T23:40:23Z</time>
      </trkpt>
      <trkpt lat="44.76598" lon="5.90254">
        <ele>909.3</ele>
        <time>2017-12-15T23:40:35Z</time>
      </trkpt>
      <trkpt lat="44.76596" lon="5.90232">
        <ele>907.6</ele>
        <time>2017-12-15T23:40:55Z</time>
      </trkpt>
      <trkpt lat="44.76589" lon="5.9021">
        <ele>907.7</ele>
        <time>2017-12-15T23:41:11Z</time>
      </trkpt>
      <trkpt lat="44.76569" lon="5.90179">
        <ele>913.3</ele>
        <time>2017-12-15T23:41:30Z</time>
      </trkpt>
      <trkpt lat="44.76547" lon="5.9014">
        <ele>914.3</ele>
        <time>2017-12-15T23:41:46Z</time>
      </trkpt>
      <trkpt lat="44.76532" lon="5.90102">
        <ele>913.1</ele>
        <time>2017-12-15T23:42:01Z</time>
      </trkpt>
      <trkpt lat="44.76504" lon="5.89991">
        <ele>909</ele>
        <time>2017-12-15T23:42:12Z</time>
      </trkpt>
      <trkpt lat="44.76489" lon="5.89876">
        <ele>890.7</ele>
        <time>2017-12-15T23:42:31Z</time>
      </trkpt>
      <trkpt lat="44.76484" lon="5.89853">
        <ele>885.6</ele>
        <time>2017-12-15T23:42:38Z</time>
      </trkpt>
      <trkpt lat="44.76477" lon="5.89838">
        <ele>884.4</ele>
        <time>2017-12-15T23:42:40Z</time>
      </trkpt>
      <trkpt lat="44.76445" lon="5.89805">
        <ele>890.4</ele>
        <time>2017-12-15T23:42:55Z</time>
      </trkpt>
      <trkpt lat="44.76418" lon="5.8976">
        <ele>888.8</ele>
        <time>2017-12-15T23:42:59Z</time>
      </trkpt>
      <trkpt lat="44.76369" lon="5.89702">
        <ele>893</ele>
        <time>2017-12-15T23:43:14Z</time>
      </trkpt>
      <trkpt lat="44.76329" lon="5.89634">
        <ele>880.7</ele>
        <time>2017-12-15T23:43:24Z</time>
      </trkpt>
      <trkpt lat="44.76311" lon="5.89608">
        <ele>875.9</ele>
        <time>2017-12-15T23:43:31Z</time>
      </trkpt>
      <trkpt lat="44.76289" lon="5.89585">
        <ele>873.7</ele>
        <time>2017-12-15T23:43:40Z</time>
      </trkpt>
      <trkpt lat="44.76267" lon="5.89559">
        <ele>872.8</ele>
        <time>2017-12-15T23:43:54Z</time>
      </trkpt>
      <trkpt lat="44.76254" lon="5.89538">
        <ele>872.9</ele>
        <time>2017-12-15T23:44:05Z</time>
      </trkpt>
      <trkpt lat="44.76243" lon="5.89512">
        <ele>873</ele>
        <time>2017-12-15T23:44:22Z</time>
      </trkpt>
      <trkpt lat="44.76235" lon="5.89476">
        <ele>872</ele>
        <time>2017-12-15T23:44:36Z</time>
      </trkpt>
      <trkpt lat="44.76214" lon="5.89422">
        <ele>876.4</ele>
        <time>2017-12-15T23:44:50Z</time>
      </trkpt>
      <trkpt lat="44.76208" lon="5.894">
        <ele>877.2</ele>
        <time>2017-12-15T23:45:09Z</time>
      </trkpt>
      <trkpt lat="44.76205" lon="5.89365">
        <ele>874.2</ele>
        <time>2017-12-15T23:45:27Z</time>
      </trkpt>
      <trkpt lat="44.76206" lon="5.8933">
        <ele>866.3</ele>
        <time>2017-12-15T23:45:34Z</time>
      </trkpt>
      <trkpt lat="44.76201" lon="5.89299">
        <ele>862.2</ele>
        <time>2017-12-15T23:45:41Z</time>
      </trkpt>
      <trkpt lat="44.76172" lon="5.89218">
        <ele>859.8</ele>
        <time>2017-12-15T23:45:58Z</time>
      </trkpt>
      <trkpt lat="44.76152" lon="5.8919">
        <ele>861.4</ele>
        <time>2017-12-15T23:46:14Z</time>
      </trkpt>
      <trkpt lat="44.76129" lon="5.89154">
        <ele>861.2</ele>
        <time>2017-12-15T23:46:16Z</time>
      </trkpt>
      <trkpt lat="44.76092" lon="5.89102">
        <ele>865.6</ele>
        <time>2017-12-15T23:46:34Z</time>
      </trkpt>
      <trkpt lat="44.7607" lon="5.89054">
        <ele>867.6</ele>
        <time>2017-12-15T23:46:42Z</time>
      </trkpt>
      <trkpt lat="44.76046" lon="5.88973">
        <ele>866.2</ele>
        <time>2017-12-15T23:46:58Z</time>
      </trkpt>
      <trkpt lat="44.76038" lon="5.88953">
        <ele>867.6</ele>
        <time>2017-12-15T23:47:07Z</time>
      </trkpt>
      <trkpt lat="44.76026" lon="5.8893">
        <ele>869.1</ele>
        <time>2017-12-15T23:47:26Z</time>
      </trkpt>
      <trkpt lat="44.76006" lon="5.88913">
        <ele>874.6</ele>
        <time>2017-12-15T23:47:39Z</time>
      </trkpt>
      <trkpt lat="44.75955" lon="5.88868">
        <ele>882.7</ele>
        <time>2017-12-15T23:47:57Z</time>
      </trkpt>
      <trkpt lat="44.75947" lon="5.88861">
        <ele>883.2</ele>
        <time>2017-12-15T23:48:07Z</time>
      </trkpt>
      <trkpt lat="44.75919" lon="5.88815">
        <ele>880.6</ele>
        <time>2017-12-15T23:48:12Z</time>
      </trkpt>
      <trkpt lat="44.75911" lon="5.8881">
        <ele>880.6</ele>
        <time>2017-12-15T23:48:14Z</time>
      </trkpt>
      <trkpt lat="44.7587" lon="5.88812">
        <ele>883.9</ele>
        <time>2017-12-15T23:48:18Z</time>
      </trkpt>
      <trkpt lat="44.7585" lon="5.88812">
        <ele>884</ele>
        <time>2017-12-15T23:48:37Z</time>
      </trkpt>
      <trkpt lat="44.75844" lon="5.88809">
        <ele>882.7</ele>
        <time>2017-12-15T23:48:50Z</time>
      </trkpt>
      <trkpt lat="44.75838" lon="5.88803">
        <ele>880.8</ele>
        <time>2017-12-15T23:48:59Z</time>
      </trkpt>
      <trkpt lat="44.7583" lon="5.88786">
        <ele>878.2</ele>
        <time>2017-12-15T23:49:13Z</time>
      </trkpt>
      <trkpt lat="44.75822" lon="5.88755">
        <ele>876.2</ele>
        <time>2017-12-15T23:49:20Z</time>
      </trkpt>
      <trkpt lat="44.75808" lon="5.88718">
        <ele>876.4</ele>
        <time>2017-12-15T23:49:32Z</time>
      </trkpt>
      <trkpt lat="44.75804" lon="5.88712">
        <ele>877.2</ele>
        <time>2017-12-15T23:49:34Z</time>
      </trkpt>
      <trkpt lat="44.75799" lon="5.8871">
        <ele>877.9</ele>
        <time>2017-12-15T23:49:40Z</time>
      </trkpt>
      <trkpt lat="44.75726" lon="5.88704">
        <ele>884.9</ele>
        <time>2017-12-15T23:49:54Z</time>
      </trkpt>
      <trkpt lat="44.75698" lon="5.88708">
        <ele>885.4</ele>
        <time>2017-12-15T23:50:14Z</time>
      </trkpt>
      <trkpt lat="44.7568" lon="5.88708">
        <ele>885.5</ele>
        <time>2017-12-15T23:50:22Z</time>
      </trkpt>
      <trkpt lat="44.7567" lon="5.88703">
        <ele>886.1</ele>
        <time>2017-12-15T23:50:25Z</time>
      </trkpt>
      <trkpt lat="44.75651" lon="5.88688">
        <ele>888.1</ele>
        <time>2017-12-15T23:50:34Z</time>
      </trkpt>
      <trkpt lat="44.75612" lon="5.8866">
        <ele>891.5</ele>
        <time>2017-12-15T23:50:53Z</time>
      </trkpt>
      <trkpt lat="44.75604" lon="5.88658">
        <ele>891.5</ele>
        <time>2017-12-15T23:51:11Z</time>
      </trkpt>
      <trkpt lat="44.75588" lon="5.88658">
        <ele>890.5</ele>
        <time>2017-12-15T23:51:18Z</time>
      </trkpt>
      <trkpt lat="44.75565" lon="5.88655">
        <ele>890.8</ele>
        <time>2017-12-15T23:51:29Z</time>
      </trkpt>
      <trkpt lat="44.75546" lon="5.88632">
        <ele>892.8</ele>
        <time>2017-12-15T23:51:41Z</time>
      </trkpt>
      <trkpt lat="44.75489" lon="5.88546">
        <ele>899.4</ele>
        <time>2017-12-15T23:51:57Z</time>
      </trkpt>
      <trkpt lat="44.75479" lon="5.88535">
        <ele>899.9</ele>
        <time>2017-12-15T23:52:09Z</time>
      </trkpt>
      <trkpt lat="44.75445" lon="5.88511">
        <ele>899.2</ele>
        <time>2017-12-15T23:52:20Z</time>
      </trkpt>
      <trkpt lat="44.75406" lon="5.88488">
        <ele>899.9</ele>
        <time>2017-12-15T23:52:29Z</time>
      </trkpt>
      <trkpt lat="44.75369" lon="5.88463">
        <ele>900.8</ele>
        <time>2017-12-15T23:52:35Z</time>
      </trkpt>
      <trkpt lat="44.75334" lon="5.88438">
        <ele>902.4</ele>
        <time>2017-12-15T23:52:53Z</time>
      </trkpt>
      <trkpt lat="44.75303" lon="5.88425">
        <ele>904.5</ele>
        <time>2017-12-15T23:53:11Z</time>
      </trkpt>
      <trkpt lat="44.75253" lon="5.88409">
        <ele>906.5</ele>
        <time>2017-12-15T23:53:28Z</time>
      </trkpt>
      <trkpt lat="44.75185" lon="5.88393">
        <ele>908.5</ele>
        <time>2017-12-15T23:53:37Z</time>
      </trkpt>
      <trkpt lat="44.75176" lon="5.88391">
        <ele>908.7</ele>
        <time>2017-12-15T23:53:49Z</time>
      </trkpt>
      <trkpt lat="44.75158" lon="5.88392">
        <ele>908.7</ele>
        <time>2017-12-15T23:53:56Z</time>
      </trkpt>
      <trkpt lat="44.75141" lon="5.88396">
        <ele>908.2</ele>
        <time>2017-12-15T23:54:08Z</time>
      </trkpt>
      <trkpt lat="44.75129" lon="5.88398">
        <ele>908</ele>
        <time>2017-12-15T23:54:23Z</time>
      </trkpt>
      <trkpt lat="44.75124" lon="5.88397">
        <ele>908.1</ele>
        <time>2017-12-15T23:54:27Z</time>
      </trkpt>
      <trkpt lat="44.75115" lon="5.88388">
        <ele>909.2</ele>
        <time>2017-12-15T23:54:32Z</time>
      </trkpt>
      <trkpt lat="44.75108" lon="5.88379">
        <ele>911.4</ele>
        <time>2017-12-15T23:54:45Z</time>
      </trkpt>
      <trkpt lat="44.75103" lon="5.88394">
        <ele>909</ele>
        <time>2017-12-15T23:54:59Z</time>
      </trkpt>
      <trkpt lat="44.75099" lon="5.8845">
        <ele>906.4</ele>
        <time>2017-12-15T23:55:07Z</time>
      </trkpt>
      <trkpt lat="44.75094" lon="5.88478">
        <ele>909.5</ele>
        <time>2017-12-15T23:55:14Z</time>
      </trkpt>
      <trkpt lat="44.75091" lon="5.8849">
        <ele>912.7</ele>
        <time>2017-12-15T23:55:33Z</time>
      </trkpt>
      <trkpt lat="44.75087" lon="5.88494">
        <ele>913.6</ele>
        <time>2017-12-15T23:55:40Z</time>
      </trkpt>
      <trkpt lat="44.75083" lon="5.88496">
        <ele>914</ele>
        <time>2017-12-15T23:55:50Z</time>
      </trkpt>
      <trkpt lat="44.75017" lon="5.88508">
        <ele>919.1</ele>
        <time>2017-12-15T23:56:01Z</time>
      </trkpt>
      <trkpt lat="44.75002" lon="5.88506">
        <ele>919.1</ele>
        <time>2017-12-15T23:56:10Z</time>
      </trkpt>
      <trkpt lat="44.74982" lon="5.88493">
        <ele>918.2</ele>
        <time>2017-12-15T23:56:16Z</time>
      </trkpt>
      <trkpt lat="44.7497" lon="5.8849">
        <ele>919.3</ele>
        <time>2017-12-15T23:56:20Z</time>
      </trkpt>
      <trkpt lat="44.74962" lon="5.88489">
        <ele>919.1</ele>
        <time>2017-12-15T23:56:29Z</time>
      </trkpt>
      <trkpt lat="44.74952" lon="5.88492">
        <ele>919.5</ele>
        <time>2017-12-15T23:56:39Z</time>
      </trkpt>
      <trkpt lat="44.74896" lon="5.88522">
        <ele>925.6</ele>
        <time>2017-12-15T23:56:42Z</time>
      </trkpt>
      <trkpt lat="44.74875" lon="5.88528">
        <ele>930.1</ele>
        <time>2017-12-15T23:56:46Z</time>
      </trkpt>
      <trkpt lat="44.74856" lon="5.88529">
        <ele>932.7</ele>
        <time>2017-12-15T23:56:57Z</time>
      </trkpt>
      <trkpt lat="44.74819" lon="5.8852">
        <ele>930.3</ele>
        <time>2017-12-15T23:57:07Z</time>
      </trkpt>
      <trkpt lat="44.74808" lon="5.88521">
        <ele>931.1</ele>
        <time>2017-12-15T23:57:25Z</time>
      </trkpt>
      <trkpt lat="44.74786" lon="5.88532">
        <ele>935.6</ele>
        <time>2017-12-15T23:57:38Z</time>
      </trkpt>
      <trkpt lat="44.74769" lon="5.88531">
        <ele>934.8</ele>
        <time>2017-12-15T23:57:43Z</time>
      </trkpt>
      <trkpt lat="44.74754" lon="5.88538">
        <ele>941.8</ele>
        <time>2017-12-15T23:57:57Z</time>
      </trkpt>
      <trkpt lat="44.74748" lon="5.88546">
        <ele>949.2</ele>
        <time>2017-12-15T23:58:04Z</time>
      </trkpt>
      <trkpt lat="44.74725" lon="5.88579">
        <ele>973.7</ele>
        <time>2017-12-15T23:58:20Z</time>
      </trkpt>
      <trkpt lat="44.74719" lon="5.88595">
        <ele>981.6</ele>
        <time>2017-12-15T23:58:33Z</time>
      </trkpt>
      <trkpt lat="44.74692" lon="5.88641">
        <ele>982.5</ele>
        <time>2017-12-15T23:58:35Z</time>
      </trkpt>
      <trkpt lat="44.7467" lon="5.88671">
        <ele>977.7</ele>
        <time>2017-12-15T23:58:55Z</time>
      </trkpt>
      <trkpt lat="44.74658" lon="5.88683">
        <ele>973.8</ele>
        <time>2017-12-15T23:59:11Z</time>
      </trkpt>
      <trkpt lat="44.74642" lon="5.88693">
        <ele>965.8</ele>
        <time>2017-12-15T23:59:27Z</time>
      </trkpt>
      <trkpt lat="44.74629" lon="5.88702">
        <ele>965.4</ele>
        <time>2017-12-15T23:59:40Z</time>
      </trkpt>
      <trkpt lat="44.746" lon="5.8875">
        <ele>974.8</ele>
        <time>2017-12-15T23:59:59Z</time>
      </trkpt>
      <trkpt lat="44.7458" lon="5.88772">
        <ele>971.1</ele>
        <time>2017-12-16T00:00:19Z</time>
      </trkpt>
      <trkpt lat="44.74561" lon="5.88787">
        <ele>966.2</ele>
        <time>2017-12-16T00:00:26Z</time>
      </trkpt>
      <trkpt lat="44.74545" lon="5.88793">
        <ele>961</ele>
        <time>2017-12-16T00:00:44Z</time>
      </trkpt>
      <trkpt lat="44.74515" lon="5.88791">
        <ele>956.6</ele>
        <time>2017-12-16T00:00:56Z</time>
      </trkpt>
      <trkpt lat="44.74488" lon="5.88796">
        <ele>963.7</ele>
        <time>2017-12-16T00:01:13Z</time>
      </trkpt>
      <trkpt lat="44.74463" lon="5.88809">
        <ele>975</ele>
        <time>2017-12-16T00:01:19Z</time>
      </trkpt>
      <trkpt lat="44.74449" lon="5.88827">
        <ele>978.6</ele>
        <time>2017-12-16T00:01:24Z</time>
      </trkpt>
      <trkpt lat="44.74438" lon="5.88858">
        <ele>971.8</ele>
        <time>2017-12-16T00:01:33Z</time>
      </trkpt>
      <trkpt lat="44.74427" lon="5.88924">
        <ele>976.9</ele>
        <time>2017-12-16T00:01:46Z</time>
      </trkpt>
      <trkpt lat="44.74414" lon="5.88965">
        <ele>985.3</ele>
        <time>2017-12-16T00:01:52Z</time>
      </trkpt>
      <trkpt lat="44.74399" lon="5.88998">
        <ele>990.2</ele>
        <time>2017-12-16T00:02:05Z</time>
      </trkpt>
      <trkpt lat="44.74383" lon="5.89023">
        <ele>985.1</ele>
        <time>2017-12-16T00:02:12Z</time>
      </trkpt>
      <trkpt lat="44.74371" lon="5.89033">
        <ele>985</ele>
        <time>2017-12-16T00:02:15Z</time>
      </trkpt>
      <trkpt lat="44.74339" lon="5.89052">
        <ele>982.8</ele>
        <time>2017-12-16T00:02:19Z</time>
      </trkpt>
      <trkpt lat="44.74315" lon="5.89067">
        <ele>985.7</ele>
        <time>2017-12-16T00:02:28Z</time>
      </trkpt>
      <trkpt lat="44.74298" lon="5.89076">
        <ele>986.4</ele>
        <time>2017-12-16T00:02:37Z</time>
      </trkpt>
      <trkpt lat="44.74286" lon="5.89072">
        <ele>981.9</ele>
        <time>2017-12-16T00:02:42Z</time>
      </trkpt>
      <trkpt lat="44.74276" lon="5.89058">
        <ele>976.7</ele>
        <time>2017-12-16T00:02:49Z</time>
      </trkpt>
      <trkpt lat="44.74266" lon="5.89051">
        <ele>978.3</ele>
        <time>2017-12-16T00:03:02Z</time>
      </trkpt>
      <trkpt lat="44.74257" lon="5.89052">
        <ele>979.2</ele>
        <time>2017-12-16T00:03:09Z</time>
      </trkpt>
      <trkpt lat="44.74239" lon="5.89065">
        <ele>980.3</ele>
        <time>2017-12-16T00:03:12Z</time>
      </trkpt>
      <trkpt lat="44.74183" lon="5.89115">
        <ele>983.1</ele>
        <time>2017-12-16T00:03:15Z</time>
      </trkpt>
      <trkpt lat="44.74159" lon="5.8913">
        <ele>984.4</ele>
        <time>2017-12-16T00:03:33Z</time>
      </trkpt>
      <trkpt lat="44.74116" lon="5.89145">
        <ele>990.8</ele>
        <time>2017-12-16T00:03:45Z</time>
      </trkpt>
      <trkpt lat="44.74075" lon="5.89159">
        <ele>996.8</ele>
        <time>2017-12-16T00:04:05Z</time>
      </trkpt>
      <trkpt lat="44.74018" lon="5.89172">
        <ele>1004.3</ele>
        <time>2017-12-16T00:04:22Z</time>
      </trkpt>
      <trkpt lat="44.73995" lon="5.8918">
        <ele>1004.8</ele>
        <time>2017-12-16T00:04:24Z</time>
      </trkpt>
      <trkpt lat="44.73964" lon="5.89192">
        <ele>1004.5</ele>
        <time>2017-12-16T00:04:28Z</time>
      </trkpt>
      <trkpt lat="44.73943" lon="5.89197">
        <ele>1006.1</ele>
        <time>2017-12-16T00:04:34Z</time>
      </trkpt>
      <trkpt lat="44.7389" lon="5.89199">
        <ele>1009.6</ele>
        <time>2017-12-16T00:04:47Z</time>
      </trkpt>
      <trkpt lat="44.73871" lon="5.89186">
        <ele>1011.2</ele>
        <time>2017-12-16T00:04:51Z</time>
      </trkpt>
      <trkpt lat="44.73859" lon="5.89173">
        <ele>1012.2</ele>
        <time>2017-12-16T00:05:06Z</time>
      </trkpt>
      <trkpt lat="44.73841" lon="5.8915">
        <ele>1014.3</ele>
        <time>2017-12-16T00:05:23Z</time>
      </trkpt>
      <trkpt lat="44.73828" lon="5.89139">
        <ele>1014.4</ele>
        <time>2017-12-16T00:05:35Z</time>
      </trkpt>
      <trkpt lat="44.73807" lon="5.89128">
        <ele>1015.3</ele>
        <time>2017-12-16T00:05:45Z</time>
      </trkpt>
      <trkpt lat="44.73788" lon="5.89127">
        <ele>1017</ele>
        <time>2017-12-16T00:06:00Z</time>
      </trkpt>
      <trkpt lat="44.73776" lon="5.8913">
        <ele>1017.3</ele>
        <time>2017-12-16T00:06:10Z</time>
      </trkpt>
      <trkpt lat="44.73759" lon="5.89142">
        <ele>1018.1</ele>
        <time>2017-12-16T00:06:30Z</time>
      </trkpt>
      <trkpt lat="44.73747" lon="5.89156">
        <ele>1017.5</ele>
        <time>2017-12-16T00:06:36Z</time>
      </trkpt>
      <trkpt lat="44.73727" lon="5.8919">
        <ele>1015.9</ele>
        <time>2017-12-16T00:06:52Z</time>
      </trkpt>
      <trkpt lat="44.73646" lon="5.89359">
        <ele>1020.9</ele>
        <time>2017-12-16T00:07:06Z</time>
      </trkpt>
      <trkpt lat="44.73639" lon="5.89388">
        <ele>1020.1</ele>
        <time>2017-12-16T00:07:16Z</time>
      </trkpt>
      <trkpt lat="44.73639" lon="5.89439">
        <ele>1020</ele>
        <time>2017-12-16T00:07:26Z</time>
      </trkpt>
      <trkpt lat="44.73639" lon="5.89452">
        <ele>1020</ele>
        <time>2017-12-16T00:07:29Z</time>
      </trkpt>
      <trkpt lat="44.73635" lon="5.89465">
        <ele>1020.1</ele>
        <time>2017-12-16T00:07:43Z</time>
      </trkpt>
      <trkpt lat="44.73625" lon="5.89476">
        <ele>1020.3</ele>
        <time>2017-12-16T00:07:54Z</time>
      </trkpt>
      <trkpt lat="44.73614" lon="5.89478">
        <ele>1020.3</ele>
        <time>2017-12-16T00:08:01Z</time>
      </trkpt>
      <trkpt lat="44.73598" lon="5.8947">
        <ele>1021.2</ele>
        <time>2017-12-16T00:08:08Z</time>
      </trkpt>
      <trkpt lat="44.73579" lon="5.89452">
        <ele>1026.1</ele>
        <time>2017-12-16T00:08:13Z</time>
      </trkpt>
      <trkpt lat="44.73559" lon="5.89438">
        <ele>1031.2</ele>
        <time>2017-12-16T00:08:20Z</time>
      </trkpt>
      <trkpt lat="44.73551" lon="5.89436">
        <ele>1032.8</ele>
        <time>2017-12-16T00:08:22Z</time>
      </trkpt>
      <trkpt lat="44.73525" lon="5.8944">
        <ele>1035.5</ele>
        <time>2017-12-16T00:08:33Z</time>
      </trkpt>
      <trkpt lat="44.73506" lon="5.89449">
        <ele>1036</ele>
        <time>2017-12-16T00:08:50Z</time>
      </trkpt>
      <trkpt lat="44.7346" lon="5.89476">
        <ele>1036.6</ele>
        <time>2017-12-16T00:08:56Z</time>
      </trkpt>
      <trkpt lat="44.73442" lon="5.89492">
        <ele>1037</ele>
        <time>2017-12-16T00:09:01Z</time>
      </trkpt>
      <trkpt lat="44.73432" lon="5.89516">
        <ele>1036.3</ele>
        <time>2017-12-16T00:09:10Z</time>
      </trkpt>
      <trkpt lat="44.73423" lon="5.89546">
        <ele>1035.4</ele>
        <time>2017-12-16T00:09:18Z</time>
      </trkpt>
      <trkpt lat="44.73419" lon="5.89558">
        <ele>1035.2</ele>
        <time>2017-12-16T00:09:20Z</time>
      </trkpt>
      <trkpt lat="44.73413" lon="5.89563">
        <ele>1035.5</ele>
        <time>2017-12-16T00:09:37Z</time>
      </trkpt>
      <trkpt lat="44.73391" lon="5.8957">
        <ele>1038.1</ele>
        <time>2017-12-16T00:09:40Z</time>
      </trkpt>
      <trkpt lat="44.73382" lon="5.89571">
        <ele>1038.4</ele>
        <time>2017-12-16T00:10:00Z</time>
      </trkpt>
      <trkpt lat="44.73374" lon="5.89568">
        <ele>1039</ele>
        <time>2017-12-16T00:10:14Z</time>
      </trkpt>
      <trkpt lat="44.73346" lon="5.89552">
        <ele>1042.3</ele>
        <time>2017-12-16T00:10:16Z</time>
      </trkpt>
      <trkpt lat="44.73329" lon="5.89542">
        <ele>1045.7</ele>
        <time>2017-12-16T00:10:24Z</time>
      </trkpt>
      <trkpt lat="44.73313" lon="5.89539">
        <ele>1047.6</ele>
        <time>2017-12-16T00:10:31Z</time>
      </trkpt>
      <trkpt lat="44.73298" lon="5.89541">
        <ele>1048.6</ele>
        <time>2017-12-16T00:10:41Z</time>
      </trkpt>
      <trkpt lat="44.73289" lon="5.89546">
        <ele>1048.4</ele>
        <time>2017-12-16T00:10:47Z</time>
      </trkpt>
      <trkpt lat="44.73275" lon="5.8956">
        <ele>1046.4</ele>
        <time>2017-12-16T00:11:01Z</time>
      </trkpt>
      <trkpt lat="44.73273" lon="5.89563">
        <ele>1046</ele>
        <time>2017-12-16T00:11:12Z</time>
      </trkpt>
      <trkpt lat="44.73243" lon="5.89598">
        <ele>1043.2</ele>
        <time>2017-12-16T00:11:21Z</time>
      </trkpt>
      <trkpt lat="44.73205" lon="5.89623">
        <ele>1044.3</ele>
        <time>2017-12-16T00:11:26Z</time>
      </trkpt>
      <trkpt lat="44.73152" lon="5.89649">
        <ele>1045.7</ele>
        <time>2017-12-16T00:11:39Z</time>
      </trkpt>
      <trkpt lat="44.73118" lon="5.89671">
        <ele>1044.6</ele>
        <time>2017-12-16T00:11:53Z</time>
      </trkpt>
      <trkpt lat="44.73062" lon="5.89721">
        <ele>1042.7</ele>
        <time>2017-12-16T00:11:56Z</time>
      </trkpt>
      <trkpt lat="44.73053" lon="5.89735">
        <ele>1041.5</ele>
        <time>2017-12-16T00:12:16Z</time>
      </trkpt>
      <trkpt lat="44.73048" lon="5.89755">
        <ele>1039.3</ele>
        <time>2017-12-16T00:12:18Z</time>
      </trkpt>
      <trkpt lat="44.73048" lon="5.89761">
        <ele>1038.7</ele>
        <time>2017-12-16T00:12:33Z</time>
      </trkpt>
      <trkpt lat="44.7305" lon="5.89813">
        <ele>1034.3</ele>
        <time>2017-12-16T00:12:40Z</time>
      </trkpt>
      <trkpt lat="44.73048" lon="5.89854">
        <ele>1032.2</ele>
        <time>2017-12-16T00:12:48Z</time>
      </trkpt>
      <trkpt lat="44.73045" lon="5.89888">
        <ele>1032</ele>
        <time>2017-12-16T00:13:08Z</time>
      </trkpt>
      <trkpt lat="44.73043" lon="5.89911">
        <ele>1034.4</ele>
        <time>2017-12-16T00:13:23Z</time>
      </trkpt>
      <trkpt lat="44.73039" lon="5.89945">
        <ele>1035.6</ele>
        <time>2017-12-16T00:13:26Z</time>
      </trkpt>
      <trkpt lat="44.73032" lon="5.89978">
        <ele>1037.3</ele>
        <time>2017-12-16T00:13:30Z</time>
      </trkpt>
      <trkpt lat="44.73027" lon="5.90009">
        <ele>1040.7</ele>
        <time>2017-12-16T00:13:48Z</time>
      </trkpt>
      <trkpt lat="44.73028" lon="5.90031">
        <ele>1042.2</ele>
        <time>2017-12-16T00:13:51Z</time>
      </trkpt>
      <trkpt lat="44.73039" lon="5.90082">
        <ele>1043.2</ele>
        <time>2017-12-16T00:14:05Z</time>
      </trkpt>
      <trkpt lat="44.73044" lon="5.90105">
        <ele>1043</ele>
        <time>2017-12-16T00:14:18Z</time>
      </trkpt>
      <trkpt lat="44.73045" lon="5.90133">
        <ele>1044.8</ele>
        <time>2017-12-16T00:14:25Z</time>
      </trkpt>
      <trkpt lat="44.73038" lon="5.90175">
        <ele>1048.5</ele>
        <time>2017-12-16T00:14:42Z</time>
      </trkpt>
      <trkpt lat="44.73031" lon="5.90196">
        <ele>1049.9</ele>
        <time>2017-12-16T00:14:47Z</time>
      </trkpt>
      <trkpt lat="44.73022" lon="5.90214">
        <ele>1050</ele>
        <time>2017-12-16T00:14:59Z</time>
      </trkpt>
      <trkpt lat="44.73011" lon="5.90228">
        <ele>1050.8</ele>
        <time>2017-12-16T00:15:11Z</time>
      </trkpt>
      <trkpt lat="44.72994" lon="5.90245">
        <ele>1051.8</ele>
        <time>2017-12-16T00:15:15Z</time>
      </trkpt>
      <trkpt lat="44.72978" lon="5.90258">
        <ele>1053.8</ele>
        <time>2017-12-16T00:15:32Z</time>
      </trkpt>
      <trkpt lat="44.72958" lon="5.90278">
        <ele>1056.5</ele>
        <time>2017-12-16T00:15:37Z</time>
      </trkpt>
      <trkpt lat="44.72915" lon="5.90324">
        <ele>1059</ele>
        <time>2017-12-16T00:15:57Z</time>
      </trkpt>
      <trkpt lat="44.72899" lon="5.90338">
        <ele>1060.3</ele>
        <time>2017-12-16T00:16:13Z</time>
      </trkpt>
      <trkpt lat="44.72866" lon="5.90358">
        <ele>1064.2</ele>
        <time>2017-12-16T00:16:15Z</time>
      </trkpt>
      <trkpt lat="44.72849" lon="5.90369">
        <ele>1066.8</ele>
        <time>2017-12-16T00:16:26Z</time>
      </trkpt>
      <trkpt lat="44.72834" lon="5.90383">
        <ele>1068.1</ele>
        <time>2017-12-16T00:16:32Z</time>
      </trkpt>
      <trkpt lat="44.72821" lon="5.904">
        <ele>1068.6</ele>
        <time>2017-12-16T00:16:35Z</time>
      </trkpt>
      <trkpt lat="44.72793" lon="5.90441">
        <ele>1067.5</ele>
        <time>2017-12-16T00:16:38Z</time>
      </trkpt>
      <trkpt lat="44.72765" lon="5.90486">
        <ele>1065.8</ele>
        <time>2017-12-16T00:16:51Z</time>
      </trkpt>
      <trkpt lat="44.72744" lon="5.90534">
        <ele>1066.5</ele>
        <time>2017-12-16T00:17:02Z</time>
      </trkpt>
      <trkpt lat="44.72733" lon="5.90565">
        <ele>1069.5</ele>
        <time>2017-12-16T00:17:20Z</time>
      </trkpt>
      <trkpt lat="44.72725" lon="5.90584">
        <ele>1072.2</ele>
        <time>2017-12-16T00:17:35Z</time>
      </trkpt>
      <trkpt lat="44.72704" lon="5.90616">
        <ele>1076</ele>
        <time>2017-12-16T00:17:49Z</time>
      </trkpt>
      <trkpt lat="44.72676" lon="5.90653">
        <ele>1075.6</ele>
        <time>2017-12-16T00:18:05Z</time>
      </trkpt>
      <trkpt lat="44.7266" lon="5.90687">
        <ele>1073.9</ele>
        <time>2017-12-16T00:18:20Z</time>
      </trkpt>
      <trkpt lat="44.72649" lon="5.90727">
        <ele>1073.9</ele>
        <time>2017-12-16T00:18:29Z</time>
      </trkpt>
      <trkpt lat="44.72643" lon="5.90747">
        <ele>1074.9</ele>
        <time>2017-12-16T00:18:32Z</time>
      </trkpt>
      <trkpt lat="44.72635" lon="5.90764">
        <ele>1076.3</ele>
        <time>2017-12-16T00:18:49Z</time>
      </trkpt>
      <trkpt lat="44.72614" lon="5.90791">
        <ele>1081.6</ele>
        <time>2017-12-16T00:18:55Z</time>
      </trkpt>
      <trkpt lat="44.72598" lon="5.9081">
        <ele>1085.9</ele>
        <time>2017-12-16T00:19:09Z</time>
      </trkpt>
      <trkpt lat="44.72588" lon="5.90826">
        <ele>1088</ele>
        <time>2017-12-16T00:19:23Z</time>
      </trkpt>
      <trkpt lat="44.72572" lon="5.90863">
        <ele>1090.1</ele>
        <time>2017-12-16T00:19:40Z</time>
      </trkpt>
      <trkpt lat="44.72558" lon="5.90903">
        <ele>1090.4</ele>
        <time>2017-12-16T00:19:43Z</time>
      </trkpt>
      <trkpt lat="44.72542" lon="5.90937">
        <ele>1092.3</ele>
        <time>2017-12-16T00:20:02Z</time>
      </trkpt>
      <trkpt lat="44.72532" lon="5.90953">
        <ele>1093.8</ele>
        <time>2017-12-16T00:20:15Z</time>
      </trkpt>
      <trkpt lat="44.72516" lon="5.90972">
        <ele>1095.7</ele>
        <time>2017-12-16T00:20:17Z</time>
      </trkpt>
      <trkpt lat="44.72448" lon="5.91038">
        <ele>1102.1</ele>
        <time>2017-12-16T00:20:25Z</time>
      </trkpt>
      <trkpt lat="44.72418" lon="5.9108">
        <ele>1102.2</ele>
        <time>2017-12-16T00:20:38Z</time>
      </trkpt>
      <trkpt lat="44.72407" lon="5.91096">
        <ele>1102.3</ele>
        <time>2017-12-16T00:20:54Z</time>
      </trkpt>
      <trkpt lat="44.72394" lon="5.91109">
        <ele>1103.2</ele>
        <time>2017-12-16T00:21:14Z</time>
      </trkpt>
      <trkpt lat="44.7238" lon="5.9112">
        <ele>1104</ele>
        <time>2017-12-16T00:21:16Z</time>
      </trkpt>
      <trkpt lat="44.72365" lon="5.91129">
        <ele>1104.9</ele>
        <time>2017-12-16T00:21:22Z</time>
      </trkpt>
      <trkpt lat="44.72317" lon="5.91143">
        <ele>1109.7</ele>
        <time>2017-12-16T00:21:37Z</time>
      </trkpt>
      <trkpt lat="44.72285" lon="5.91157">
        <ele>1111.7</ele>
        <time>2017-12-16T00:21:53Z</time>
      </trkpt>
      <trkpt lat="44.72261" lon="5.91171">
        <ele>1112.4</ele>
        <time>2017-12-16T00:22:08Z</time>
      </trkpt>
      <trkpt lat="44.72213" lon="5.91198">
        <ele>1113.8</ele>
        <time>2017-12-16T00:22:12Z</time>
      </trkpt>
      <trkpt lat="44.72172" lon="5.91223">
        <ele>1115.7</ele>
        <time>2017-12-16T00:22:19Z</time>
      </trkpt>
      <trkpt lat="44.72072" lon="5.91297">
        <ele>1118.9</ele>
        <time>2017-12-16T00:22:22Z</time>
      </trkpt>
      <trkpt lat="44.72036" lon="5.91322">
        <ele>1122.1</ele>
        <time>2017-12-16T00:22:30Z</time>
      </trkpt>
      <trkpt lat="44.71997" lon="5.91344">
        <ele>1127.8</ele>
        <time>2017-12-16T00:22:44Z</time>
      </trkpt>
      <trkpt lat="44.71929" lon="5.91377">
        <ele>1133.2</ele>
        <time>2017-12-16T00:22:56Z</time>
      </trkpt>
      <trkpt lat="44.71911" lon="5.91389">
        <ele>1132.6</ele>
        <time>2017-12-16T00:23:16Z</time>
      </trkpt>
      <trkpt lat="44.71887" lon="5.91413">
        <ele>1131.6</ele>
        <time>2017-12-16T00:23:27Z</time>
      </trkpt>
      <trkpt lat="44.71848" lon="5.91458">
        <ele>1136.2</ele>
        <time>2017-12-16T00:23:35Z</time>
      </trkpt>
      <trkpt lat="44.71766" lon="5.9153">
        <ele>1145.8</ele>
        <time>2017-12-16T00:23:49Z</time>
      </trkpt>
      <trkpt lat="44.71748" lon="5.91542">
        <ele>1148.6</ele>
        <time>2017-12-16T00:23:59Z</time>
      </trkpt>
      <trkpt lat="44.71731" lon="5.9155">
        <ele>1151.2</ele>
        <time>2017-12-16T00:24:17Z</time>
      </trkpt>
      <trkpt lat="44.71713" lon="5.91554">
        <ele>1153.5</ele>
        <time>2017-12-16T00:24:27Z</time>
      </trkpt>
      <trkpt lat="44.71697" lon="5.91556">
        <ele>1155.9</ele>
        <time>2017-12-16T00:24:31Z</time>
      </trkpt>
      <trkpt lat="44.71681" lon="5.91553">
        <ele>1157.1</ele>
        <time>2017-12-16T00:24:34Z</time>
      </trkpt>
      <trkpt lat="44.71668" lon="5.91546">
        <ele>1156.4</ele>
        <time>2017-12-16T00:24:50Z</time>
      </trkpt>
      <trkpt lat="44.71653" lon="5.91537">
        <ele>1155.9</ele>
        <time>2017-12-16T00:24:52Z</time>
      </trkpt>
      <trkpt lat="44.71645" lon="5.91537">
        <ele>1157.5</ele>
        <time>2017-12-16T00:25:07Z</time>
      </trkpt>
      <trkpt lat="44.7164" lon="5.91537">
        <ele>1158.4</ele>
        <time>2017-12-16T00:25:14Z</time>
      </trkpt>
      <trkpt lat="44.7164" lon="5.91541">
        <ele>1160</ele>
        <time>2017-12-16T00:25:26Z</time>
      </trkpt>
      <trkpt lat="44.71639" lon="5.91548">
        <ele>1163</ele>
        <time>2017-12-16T00:25:41Z</time>
      </trkpt>
      <trkpt lat="44.71641" lon="5.91556">
        <ele>1165.7</ele>
        <time>2017-12-16T00:25:51Z</time>
      </trkpt>
      <trkpt lat="44.71645" lon="5.91561">
        <ele>1167</ele>
        <time>2017-12-16T00:26:01Z</time>
      </trkpt>
      <trkpt lat="44.71676" lon="5.91569">
        <ele>1163.5</ele>
        <time>2017-12-16T00:26:21Z</time>
      </trkpt>
      <trkpt lat="44.71703" lon="5.91573">
        <ele>1159.9</ele>
        <time>2017-12-16T00:26:26Z</time>
      </trkpt>
      <trkpt lat="44.71715" lon="5.91578">
        <ele>1159.6</ele>
        <time>2017-12-16T00:26:32Z</time>
      </trkpt>
      <trkpt lat="44.71724" lon="5.91584">
        <ele>1160</ele>
        <time>2017-12-16T00:26:41Z</time>
      </trkpt>
      <trkpt lat="44.71728" lon="5.9159">
        <ele>1160.3</ele>
        <time>2017-12-16T00:26:52Z</time>
      </trkpt>
      <trkpt lat="44.71731" lon="5.91603">
        <ele>1160.9</ele>
        <time>2017-12-16T00:27:10Z</time>
      </trkpt>
      <trkpt lat="44.7173" lon="5.91612">
        <ele>1161.6</ele>
        <time>2017-12-16T00:27:27Z</time>
      </trkpt>
      <trkpt lat="44.71725" lon="5.91623">
        <ele>1162.5</ele>
        <time>2017-12-16T00:27:33Z</time>
      </trkpt>
      <trkpt lat="44.71717" lon="5.91632">
        <ele>1164</ele>
        <time>2017-12-16T00:27:39Z</time>
      </trkpt>
      <trkpt lat="44.71689" lon="5.9165">
        <ele>1167.3</ele>
        <time>2017-12-16T00:27:57Z</time>
      </trkpt>
      <trkpt lat="44.71624" lon="5.91686">
        <ele>1172.4</ele>
        <time>2017-12-16T00:28:13Z</time>
      </trkpt>
      <trkpt lat="44.71575" lon="5.9171">
        <ele>1175.9</ele>
        <time>2017-12-16T00:28:19Z</time>
      </trkpt>
      <trkpt lat="44.71558" lon="5.91715">
        <ele>1177.3</ele>
        <time>2017-12-16T00:28:32Z</time>
      </trkpt>
      <trkpt lat="44.71481" lon="5.91727">
        <ele>1182.8</ele>
        <time>2017-12-16T00:28:40Z</time>
      </trkpt>
      <trkpt lat="44.71362" lon="5.91746">
        <ele>1191.5</ele>
        <time>2017-12-16T00:28:45Z</time>
      </trkpt>
      <trkpt lat="44.71295" lon="5.91751">
        <ele>1197.3</ele>
        <time>2017-12-16T00:29:02Z</time>
      </trkpt>
      <trkpt lat="44.71251" lon="5.91748">
        <ele>1199.2</ele>
        <time>2017-12-16T00:29:22Z</time>
      </trkpt>
      <trkpt lat="44.71219" lon="5.91748">
        <ele>1201.6</ele>
        <time>2017-12-16T00:29:28Z</time>
      </trkpt>
      <trkpt lat="44.71197" lon="5.91751">
        <ele>1202.6</ele>
        <time>2017-12-16T00:29:34Z</time>
      </trkpt>
      <trkpt lat="44.71046" lon="5.91784">
        <ele>1213.7</ele>
        <time>2017-12-16T00:29:46Z</time>
      </trkpt>
      <trkpt lat="44.70953" lon="5.91814">
        <ele>1220.4</ele>
        <time>2017-12-16T00:29:48Z</time>
      </trkpt>
      <trkpt lat="44.70882" lon="5.91842">
        <ele>1224.2</ele>
        <time>2017-12-16T00:30:04Z</time>
      </trkpt>
      <trkpt lat="44.70853" lon="5.91858">
        <ele>1225.1</ele>
        <time>2017-12-16T00:30:24Z</time>
      </trkpt>
      <trkpt lat="44.70825" lon="5.91878">
        <ele>1227.2</ele>
        <time>2017-12-16T00:30:44Z</time>
      </trkpt>
      <trkpt lat="44.708" lon="5.91901">
        <ele>1228.9</ele>
        <time>2017-12-16T00:30:51Z</time>
      </trkpt>
      <trkpt lat="44.70782" lon="5.91923">
        <ele>1231.2</ele>
        <time>2017-12-16T00:30:53Z</time>
      </trkpt>
      <trkpt lat="44.70758" lon="5.91967">
        <ele>1236.2</ele>
        <time>2017-12-16T00:30:55Z</time>
      </trkpt>
      <trkpt lat="44.70733" lon="5.92028">
        <ele>1237.7</ele>
        <time>2017-12-16T00:31:03Z</time>
      </trkpt>
      <trkpt lat="44.70721" lon="5.92051">
        <ele>1235.5</ele>
        <time>2017-12-16T00:31:09Z</time>
      </trkpt>
      <trkpt lat="44.70692" lon="5.92091">
        <ele>1238.3</ele>
        <time>2017-12-16T00:31:28Z</time>
      </trkpt>
      <trkpt lat="44.70643" lon="5.92143">
        <ele>1239.3</ele>
        <time>2017-12-16T00:31:40Z</time>
      </trkpt>
      <trkpt lat="44.70583" lon="5.92207">
        <ele>1235.7</ele>
        <time>2017-12-16T00:31:51Z</time>
      </trkpt>
      <trkpt lat="44.70572" lon="5.92222">
        <ele>1235.2</ele>
        <time>2017-12-16T00:31:57Z</time>
      </trkpt>
      <trkpt lat="44.70557" lon="5.92251">
        <ele>1234.8</ele>
        <time>2017-12-16T00:32:17Z</time>
      </trkpt>
      <trkpt lat="44.70539" lon="5.92322">
        <ele>1233.2</ele>
        <time>2017-12-16T00:32:29Z</time>
      </trkpt>
      <trkpt lat="44.70527" lon="5.92357">
        <ele>1233.2</ele>
        <time>2017-12-16T00:32:36Z</time>
      </trkpt>
      <trkpt lat="44.70513" lon="5.92382">
        <ele>1234.1</ele>
        <time>2017-12-16T00:32:56Z</time>
      </trkpt>
      <trkpt lat="44.7048" lon="5.9243">
        <ele>1232.6</ele>
        <time>2017-12-16T00:33:14Z</time>
      </trkpt>
      <trkpt lat="44.70462" lon="5.9245">
        <ele>1231.8</ele>
        <time>2017-12-16T00:33:26Z</time>
      </trkpt>
      <trkpt lat="44.7043" lon="5.92471">
        <ele>1231.2</ele>
        <time>2017-12-16T00:33:36Z</time>
      </trkpt>
      <trkpt lat="44.70366" lon="5.92511">
        <ele>1232</ele>
        <time>2017-12-16T00:33:40Z</time>
      </trkpt>
      <trkpt lat="44.70307" lon="5.92547">
        <ele>1231.4</ele>
        <time>2017-12-16T00:33:54Z</time>
      </trkpt>
      <trkpt lat="44.70285" lon="5.92558">
        <ele>1232.5</ele>
        <time>2017-12-16T00:34:12Z</time>
      </trkpt>
      <trkpt lat="44.70267" lon="5.92571">
        <ele>1232.8</ele>
        <time>2017-12-16T00:34:20Z</time>
      </trkpt>
      <trkpt lat="44.70242" lon="5.92598">
        <ele>1232.1</ele>
        <time>2017-12-16T00:34:23Z</time>
      </trkpt>
      <trkpt lat="44.70206" lon="5.92643">
        <ele>1232.4</ele>
        <time>2017-12-16T00:34:33Z</time>
      </trkpt>
      <trkpt lat="44.70183" lon="5.92661">
        <ele>1234.6</ele>
        <time>2017-12-16T00:34:48Z</time>
      </trkpt>
      <trkpt lat="44.70138" lon="5.92686">
        <ele>1234.3</ele>
        <time>2017-12-16T00:35:01Z</time>
      </trkpt>
      <trkpt lat="44.70124" lon="5.92697">
        <ele>1234.2</ele>
        <time>2017-12-16T00:35:04Z</time>
      </trkpt>
      <trkpt lat="44.70113" lon="5.92711">
        <ele>1234.2</ele>
        <time>2017-12-16T00:35:08Z</time>
      </trkpt>
      <trkpt lat="44.70106" lon="5.9273">
        <ele>1235.6</ele>
        <time>2017-12-16T00:35:18Z</time>
      </trkpt>
      <trkpt lat="44.70103" lon="5.92751">
        <ele>1237.5</ele>
        <time>2017-12-16T00:35:28Z</time>
      </trkpt>
      <trkpt lat="44.70104" lon="5.92772">
        <ele>1238.4</ele>
        <time>2017-12-16T00:35:37Z</time>
      </trkpt>
      <trkpt lat="44.70114" lon="5.92825">
        <ele>1237.4</ele>
        <time>2017-12-16T00:35:52Z</time>
      </trkpt>
      <trkpt lat="44.70115" lon="5.92847">
        <ele>1237.3</ele>
        <time>2017-12-16T00:36:10Z</time>
      </trkpt>
      <trkpt lat="44.70112" lon="5.9288">
        <ele>1236.5</ele>
        <time>2017-12-16T00:36:20Z</time>
      </trkpt>
      <trkpt lat="44.70107" lon="5.92897">
        <ele>1236.1</ele>
        <time>2017-12-16T00:36:29Z</time>
      </trkpt>
      <trkpt lat="44.701" lon="5.92911">
        <ele>1235.8</ele>
        <time>2017-12-16T00:36:45Z</time>
      </trkpt>
      <trkpt lat="44.70091" lon="5.92921">
        <ele>1235.3</ele>
        <time>2017-12-16T00:36:58Z</time>
      </trkpt>
      <trkpt lat="44.70082" lon="5.92927">
        <ele>1235.2</ele>
        <time>2017-12-16T00:37:14Z</time>
      </trkpt>
      <trkpt lat="44.70047" lon="5.92939">
        <ele>1237.3</ele>
        <time>2017-12-16T00:37:33Z</time>
      </trkpt>
      <trkpt lat="44.70035" lon="5.92943">
        <ele>1237.7</ele>
        <time>2017-12-16T00:37:52Z</time>
      </trkpt>
      <trkpt lat="44.70035" lon="5.92963">
        <ele>1227.2</ele>
        <time>2017-12-16T00:38:00Z</time>
      </trkpt>
      <trkpt lat="44.70041" lon="5.93034">
        <ele>1218.2</ele>
        <time>2017-12-16T00:38:13Z</time>
      </trkpt>
      <trkpt lat="44.70037" lon="5.9306">
        <ele>1225.7</ele>
        <time>2017-12-16T00:38:26Z</time>
      </trkpt>
      <trkpt lat="44.70028" lon="5.93079">
        <ele>1232.6</ele>
        <time>2017-12-16T00:38:37Z</time>
      </trkpt>
      <trkpt lat="44.70017" lon="5.93084">
        <ele>1235.5</ele>
        <time>2017-12-16T00:38:39Z</time>
      </trkpt>
      <trkpt lat="44.70004" lon="5.93083">
        <ele>1236.4</ele>
        <time>2017-12-16T00:38:58Z</time>
      </trkpt>
      <trkpt lat="44.69969" lon="5.93071">
        <ele>1234.1</ele>
        <time>2017-12-16T00:39:00Z</time>
      </trkpt>
      <trkpt lat="44.69949" lon="5.93067">
        <ele>1232.5</ele>
        <time>2017-12-16T00:39:12Z</time>
      </trkpt>
      <trkpt lat="44.69927" lon="5.93069">
        <ele>1231.5</ele>
        <time>2017-12-16T00:39:24Z</time>
      </trkpt>
      <trkpt lat="44.6991" lon="5.93077">
        <ele>1231.2</ele>
        <time>2017-12-16T00:39:42Z</time>
      </trkpt>
      <trkpt lat="44.69905" lon="5.93085">
        <ele>1232.3</ele>
        <time>2017-12-16T00:40:01Z</time>
      </trkpt>
      <trkpt lat="44.699" lon="5.93103">
        <ele>1237.4</ele>
        <time>2017-12-16T00:40:20Z</time>
      </trkpt>
      <trkpt lat="44.69896" lon="5.93134">
        <ele>1249.3</ele>
        <time>2017-12-16T00:40:22Z</time>
      </trkpt>
      <trkpt lat="44.69874" lon="5.93184">
        <ele>1262.1</ele>
        <time>2017-12-16T00:40:37Z</time>
      </trkpt>
      <trkpt lat="44.69853" lon="5.93224">
        <ele>1265.6</ele>
        <time>2017-12-16T00:40:39Z</time>
      </trkpt>
      <trkpt lat="44.6984" lon="5.93244">
        <ele>1263.7</ele>
        <time>2017-12-16T00:40:48Z</time>
      </trkpt>
      <trkpt lat="44.69819" lon="5.93258">
        <ele>1262.1</ele>
        <time>2017-12-16T00:41:04Z</time>
      </trkpt>
      <trkpt lat="44.69778" lon="5.9327">
        <ele>1262.3</ele>
        <time>2017-12-16T00:41:06Z</time>
      </trkpt>
      <trkpt lat="44.69748" lon="5.9328">
        <ele>1260.6</ele>
        <time>2017-12-16T00:41:09Z</time>
      </trkpt>
      <trkpt lat="44.69721" lon="5.93294">
        <ele>1262.3</ele>
        <time>2017-12-16T00:41:24Z</time>
      </trkpt>
      <trkpt lat="44.69691" lon="5.93312">
        <ele>1257</ele>
        <time>2017-12-16T00:41:41Z</time>
      </trkpt>
      <trkpt lat="44.6968" lon="5.93325">
        <ele>1253.2</ele>
        <time>2017-12-16T00:41:52Z</time>
      </trkpt>
      <trkpt lat="44.69678" lon="5.93332">
        <ele>1253.3</ele>
        <time>2017-12-16T00:42:09Z</time>
      </trkpt>
      <trkpt lat="44.69679" lon="5.93347">
        <ele>1254.3</ele>
        <time>2017-12-16T00:42:14Z</time>
      </trkpt>
      <trkpt lat="44.69689" lon="5.93385">
        <ele>1259.9</ele>
        <time>2017-12-16T00:42:21Z</time>
      </trkpt>
      <trkpt lat="44.69691" lon="5.93406">
        <ele>1256.1</ele>
        <time>2017-12-16T00:42:36Z</time>
      </trkpt>
      <trkpt lat="44.69687" lon="5.93417">
        <ele>1253.7</ele>
        <time>2017-12-16T00:42:41Z</time>
      </trkpt>
      <trkpt lat="44.69678" lon="5.93428">
        <ele>1252.7</ele>
        <time>2017-12-16T00:42:59Z</time>
      </trkpt>
      <trkpt lat="44.69653" lon="5.93453">
        <ele>1259.2</ele>
        <time>2017-12-16T00:43:06Z</time>
      </trkpt>
      <trkpt lat="44.69636" lon="5.93467">
        <ele>1264.7</ele>
        <time>2017-12-16T00:43:21Z</time>
      </trkpt>
      <trkpt lat="44.69629" lon="5.93477">
        <ele>1262.2</ele>
        <time>2017-12-16T00:43:35Z</time>
      </trkpt>
      <trkpt lat="44.69626" lon="5.93486">
        <ele>1258.2</ele>
        <time>2017-12-16T00:43:39Z</time>
      </trkpt>
      <trkpt lat="44.69626" lon="5.93497">
        <ele>1251.5</ele>
        <time>2017-12-16T00:43:54Z</time>
      </trkpt>
      <trkpt lat="44.69629" lon="5.93511">
        <ele>1252.1</ele>
        <time>2017-12-16T00:44:10Z</time>
      </trkpt>
      <trkpt lat="44.69629" lon="5.93522">
        <ele>1257</ele>
        <time>2017-12-16T00:44:18Z</time>
      </trkpt>
      <trkpt lat="44.69627" lon="5.93532">
        <ele>1261.4</ele>
        <time>2017-12-16T00:44:20Z</time>
      </trkpt>
      <trkpt lat="44.69592" lon="5.93603">
        <ele>1281.5</ele>
        <time>2017-12-16T00:44:25Z</time>
      </trkpt>
      <trkpt lat="44.69585" lon="5.93618">
        <ele>1280.2</ele>
        <time>2017-12-16T00:44:34Z</time>
      </trkpt>
      <trkpt lat="44.69563" lon="5.9365">
        <ele>1271.5</ele>
        <time>2017-12-16T00:44:46Z</time>
      </trkpt>
      <trkpt lat="44.69539" lon="5.93685">
        <ele>1271.2</ele>
        <time>2017-12-16T00:45:00Z</time>
      </trkpt>
      <trkpt lat="44.69524" lon="5.93712">
        <ele>1272.7</ele>
        <time>2017-12-16T00:45:16Z</time>
      </trkpt>
      <trkpt lat="44.69515" lon="5.93734">
        <ele>1273.7</ele>
        <time>2017-12-16T00:45:27Z</time>
      </trkpt>
      <trkpt lat="44.69506" lon="5.93765">
        <ele>1274.5</ele>
        <time>2017-12-16T00:45:46Z</time>
      </trkpt>
      <trkpt lat="44.69489" lon="5.93845">
        <ele>1274.2</ele>
        <time>2017-12-16T00:45:57Z</time>
      </trkpt>
      <trkpt lat="44.6947" lon="5.9394">
        <ele>1277.1</ele>
        <time>2017-12-16T00:46:08Z</time>
      </trkpt>
      <trkpt lat="44.69463" lon="5.93958">
        <ele>1277.6</ele>
        <time>2017-12-16T00:46:14Z</time>
      </trkpt>
      <trkpt lat="44.6943" lon="5.94021">
        <ele>1278.2</ele>
        <time>2017-12-16T00:46:21Z</time>
      </trkpt>
    </trkseg>
  </trk>
</gpx>